[[{"header":{"parameterUnit":"m.s-1","parameterCategory":1,"la1":31.0,"la2":29.5877,"lo1":-88.7671,"lo2":-86.6584,"dy":0.0162,"dx":0.0185,"nx":115,"ny":88,"refTime":"2024-02-13T18:00:00:Z","depth":0,"parameterNumber":2,"parameterNumberName":"U-component_of_WINDS"},"data":[0.0,0.0,0.0,0.0,0.0,0.0,0.0,0.0,0.0,0.0,0.0,0.0,0.0,0.0,0.0,0.0,0.0,0.0,0.0,0.0,0.0,0.0,0.0,0.0,0.0,0.0,0.0,0.0,0.0,0.0,0.0,0.0,0.0,0.0,0.0,0.0,0.0,0.0,0.0,0.0,0.0,0.0,0.0,0.0,0.0,0.0,0.0,0.0,0.0,0.0,0.0,0.0,0.0,0.0,0.0,0.0,0.0,0.0,0.0,0.0,0.0,0.0,0.0,0.0,0.0,0.0,0.0,0.0,0.0,0.0,0.0,0.0,0.0,0.0,0.0,0.0,0.0,0.0,0.0,0.0,0.0,0.0,0.0,0.0,0.0,0.0,0.0,0.0,0.0,0.0,0.0,0.0,0.0,0.0,0.0,0.0,0.0,0.0,0.0,0.0,0.0,0.0,0.0,0.0,0.0,0.0,0.0,0.0,0.0,0.0,0.0,0.0,0.0,0.0,0.0,0.0,0.0,0.0,0.0,0.0,0.0,0.0,0.0,0.0,0.0,0.0,0.0,0.0,0.0,0.0,0.0,0.0,0.0,0.0,0.0,0.0,0.0,0.0,0.0,0.0,0.0,0.0,0.0,0.0,0.0,0.0,0.0,0.0,0.0,0.0,0.0,0.0,0.0,0.0,0.0,0.0,0.0,0.0,0.0,0.0,0.0,0.0,0.0,0.0,0.0,0.0,0.0,0.0,0.0,0.0,0.0,0.0,0.0,0.0,0.0,0.0,0.0,0.0,0.0,0.0,0.0,0.0,0.0,0.0,0.0,0.0,0.0,0.0,0.0,0.0,0.0,0.0,0.0,0.0,0.0,0.0,0.0,0.0,0.0,0.0,0.0,0.0,0.0,0.0,0.0,0.0,0.0,0.0,0.0,0.0,0.0,0.0,0.0,0.0,0.0,0.0,0.0,0.0,0.0,0.0,0.0,0.0,0.0,0.0,0.0,0.0,0.0,0.0,0.0,0.0,0.0,0.0,0.0,0.0,0.0,0.0,0.0,0.0,0.0,0.0,0.0,0.0,0.0,0.0,0.0,0.0,0.0,0.0,0.0,0.0,0.0,0.0,0.0,0.0,0.0,0.0,0.0,0.0,0.0,0.0,0.0,0.0,0.0,0.0,0.0,0.0,0.0,0.0,0.0,0.0,0.0,0.0,0.0,0.0,0.0,0.0,0.0,0.0,0.0,0.0,0.0,0.0,0.0,0.0,0.0,0.0,0.0,0.0,0.0,0.0,0.0,0.0,0.0,0.0,0.0,0.0,0.0,0.0,0.0,0.0,0.0,0.0,0.0,0.0,0.0,0.0,0.0,0.0,0.0,0.0,0.0,0.0,0.0,0.0,0.0,0.0,0.0,0.0,0.0,0.0,0.0,0.0,0.0,0.0,0.0,0.0,0.0,0.0,0.0,0.0,0.0,0.0,0.0,0.0,0.0,0.0,0.0,0.0,0.0,0.0,0.0,0.0,0.0,0.0,0.0,0.0,0.0,0.0,0.0,0.0,0.0,0.0,0.0,0.0,0.0,0.0,0.0,0.0,0.0,0.0,0.0,0.0,0.0,0.0,0.0,0.0,0.0,0.0,0.0,0.0,0.0,0.0,0.0,0.0,0.0,0.0,0.0,0.0,0.0,0.0,0.0,0.0,0.0,0.0,0.0,0.0,0.0,0.0,0.0,0.0,0.0,0.0,0.0,0.0,0.0,0.0,0.0,0.0,0.0,0.0,0.0,0.0,0.0,0.0,0.0,0.0,0.0,0.0,0.0,0.0,0.0,0.0,0.0,0.0,0.0,0.0,0.0,0.0,0.0,0.0,0.0,0.0,0.0,0.0,0.0,0.0,0.0,0.0,0.0,0.0,0.0,0.0,0.0,0.0,0.0,0.0,0.0,0.0,0.0,0.0,0.0,0.0,0.0,0.0,0.0,0.0,0.0,0.0,0.0,0.0,0.0,0.0,0.0,0.0,0.0,0.0,0.0,0.0,0.0,0.0,0.0,0.0,0.0,0.0,0.0,0.0,0.0,0.0,0.0,0.0,0.0,0.0,0.0,0.0,0.0,0.0,0.0,0.0,0.0,0.0,0.0,0.0,0.0,0.0,0.0,0.0,0.0,0.0,0.0,0.0,0.0,0.0,0.0,0.0,0.0,0.0,0.0,0.0,0.0,0.0,0.0,0.0,0.0,0.0,0.0,0.0,0.0,0.0,0.0,0.0,0.0,0.0,0.0,0.0,0.0,0.0,0.0,0.0,0.0,0.0,0.0,0.0,0.0,0.0,0.0,0.0,0.0,0.0,0.0,0.0,0.0,0.0,0.0,0.0,0.0,0.0,0.0,0.0,0.0,0.0,0.0,0.0,0.0,0.0,0.0,0.0,0.0,0.0,0.0,0.0,0.0,0.0,0.0,0.0,0.0,0.0,0.0,0.0,0.0,0.0,0.0,0.0,0.0,0.0,0.0,0.0,0.0,0.0,0.0,0.0,0.0,0.0,0.0,0.0,0.0,0.0,0.0,0.0,0.0,0.0,0.0,0.0,0.0,0.0,0.0,0.0,0.0,0.0,0.0,0.0,0.0,0.0,0.0,0.0,0.0,0.0,0.0,0.0,0.0,0.0,0.0,0.0,0.0,0.0,0.0,0.0,0.0,0.0,0.0,0.0,0.0,0.0,0.0,0.0,0.0,0.0,0.0,0.0,0.0,0.0,0.0,0.0,0.0,0.0,0.0,0.0,0.0,0.0,0.0,0.0,0.0,0.0,0.0,0.0,0.0,0.0,0.0,0.0,0.0,0.0,0.0,0.0,0.0,0.0,0.0,0.0,0.0,0.0,0.0,0.0,0.0,0.0,0.0,0.0,0.0,0.0,0.0,0.0,0.0,0.0,0.0,0.0,0.0,0.0,0.0,0.0,0.0,0.0,0.0,0.0,0.0,0.0,0.0,0.0,0.0,0.0,0.0,0.0,0.0,0.0,0.0,0.0,0.0,0.0,0.0,0.0,0.0,0.0,0.0,0.0,0.0,0.0,0.0,0.0,0.0,0.0,0.0,0.0,0.0,0.0,0.0,0.0,0.0,0.0,0.0,0.0,0.0,0.0,0.0,0.0,0.0,0.0,0.0,0.0,0.0,0.0,0.0,0.0,0.0,0.0,0.0,0.0,0.0,0.0,0.0,0.0,0.0,0.0,0.0,0.0,0.0,0.0,0.0,0.0,0.0,0.0,0.0,0.0,0.0,0.0,0.0,0.0,0.0,0.0,0.0,0.0,0.0,0.0,0.0,0.0,0.0,0.0,0.0,0.0,0.0,0.0,0.0,0.0,0.0,0.0,0.0,0.0,0.0,0.0,0.0,0.0,0.0,0.0,0.0,0.0,0.0,0.0,0.0,0.0,0.0,0.0,0.0,0.0,0.0,0.0,0.0,0.0,0.0,0.0,0.0,0.0,0.0,0.0,0.0,0.0,0.0,0.0,0.0,0.0,0.0,0.0,0.0,0.0,0.0,0.0,0.0,0.0,0.0,0.0,0.0,0.0,0.0,0.0,0.0,0.0,0.0,0.0,0.0,0.0,0.0,0.0,0.0,0.0,0.0,0.0,0.0,0.0,0.0,0.0,0.0,0.0,0.0,0.0,0.0,0.0,0.0,0.0,0.0,0.0,0.0,0.0,0.0,0.0,0.0,0.0,0.0,0.0,0.0,0.0,0.0,0.0,0.0,0.0,0.0,0.0,0.0,0.0,0.0,0.0,0.0,0.0,0.0,0.0,0.0,0.0,0.0,0.0,0.0,0.0,0.0,0.0,0.0,0.0,0.0,0.0,0.0,0.0,0.0,0.0,0.0,0.0,0.0,0.0,0.0,0.0,0.0,0.0,0.0,0.0,0.0,0.0,0.0,0.0,0.0,0.0,0.0,0.0,0.0,0.0,0.0,0.0,0.0,0.0,0.0,0.0,0.0,0.0,0.0,0.0,0.0,0.0,0.0,0.0,0.0,0.0,0.0,0.0,0.0,0.0,0.0,0.0,0.0,0.0,0.0,0.0,0.0,0.0,0.0,0.0,0.0,0.0,0.0,0.0,0.0,0.0,0.0,0.0,0.0,0.0,0.0,0.0,0.0,0.0,0.0,0.0,0.0,0.0,0.0,0.0,0.0,0.0,0.0,0.0,0.0,0.0,0.0,0.0,0.0,0.0,0.0,0.0,0.0,0.0,0.0,0.0,0.0,0.0,0.0,0.0,0.0,0.0,-1.4783,0.0,0.0,0.0,0.0,0.0,0.0,0.0,0.0,0.0,0.0,0.0,0.0,0.0,0.0,0.0,0.0,0.0,0.0,0.0,0.0,0.0,0.0,0.0,0.0,0.0,0.0,0.0,0.0,0.0,0.0,0.0,0.0,0.0,0.0,0.0,0.0,0.0,0.0,0.0,0.0,0.0,0.0,0.0,0.0,0.0,0.0,0.0,0.0,0.0,0.0,0.0,0.0,0.0,0.0,0.0,0.0,0.0,0.0,0.0,0.0,0.0,0.0,0.0,0.0,0.0,0.0,0.0,0.0,0.0,0.0,0.0,0.0,0.0,0.0,0.0,0.0,0.0,0.0,0.0,0.0,0.0,0.0,0.0,0.0,0.0,0.0,0.0,0.0,0.0,0.0,0.0,0.0,0.0,0.0,0.0,0.0,0.0,0.0,0.0,0.0,0.0,0.0,0.0,0.0,0.0,0.0,0.0,0.0,0.0,0.0,-1.574,-1.5088,-1.5634,-1.5601,-1.4871,0.0,0.0,0.0,0.0,0.0,0.0,0.0,0.0,0.0,0.0,0.0,0.0,0.0,0.0,0.0,0.0,0.0,0.0,0.0,0.0,0.0,0.0,0.0,0.0,0.0,0.0,0.0,0.0,0.0,0.0,0.0,0.0,0.0,0.0,0.0,0.0,0.0,0.0,0.0,0.0,0.0,0.0,0.0,0.0,0.0,0.0,0.0,0.0,0.0,0.0,0.0,0.0,0.0,0.0,0.0,0.0,0.0,0.0,0.0,0.0,0.0,0.0,0.0,0.0,0.0,0.0,0.0,0.0,0.0,0.0,0.0,0.0,0.0,0.0,0.0,0.0,0.0,0.0,0.0,0.0,0.0,0.0,0.0,0.0,0.0,0.0,0.0,0.0,0.0,0.0,0.0,0.0,0.0,0.0,0.0,0.0,0.0,0.0,0.0,0.0,0.0,0.0,0.0,0.0,0.0,0.0,0.0,0.0,0.0,0.0,0.0,0.0,-1.623,-1.6136,-1.5145,0.0,0.0,0.0,0.0,0.0,0.0,0.0,0.0,0.0,0.0,0.0,0.0,0.0,0.0,0.0,0.0,0.0,0.0,0.0,0.0,0.0,0.0,0.0,0.0,0.0,0.0,0.0,0.0,0.0,0.0,0.0,0.0,0.0,0.0,0.0,0.0,0.0,0.0,0.0,0.0,0.0,0.0,0.0,0.0,0.0,0.0,0.0,0.0,0.0,0.0,0.0,0.0,0.0,0.0,0.0,0.0,0.0,0.0,0.0,0.0,0.0,0.0,0.0,0.0,0.0,0.0,0.0,0.0,0.0,0.0,0.0,0.0,0.0,0.0,0.0,0.0,0.0,0.0,0.0,0.0,0.0,0.0,0.0,0.0,0.0,0.0,0.0,0.0,0.0,0.0,0.0,0.0,0.0,0.0,0.0,0.0,0.0,0.0,0.0,0.0,0.0,0.0,0.0,0.0,0.0,0.0,0.0,0.0,0.0,0.0,-1.6519,-1.7071,-1.7028,0.0,-1.6065,0.0,0.0,0.0,0.0,0.0,0.0,0.0,0.0,0.0,0.0,0.0,0.0,0.0,0.0,0.0,0.0,0.0,0.0,0.0,0.0,0.0,0.0,0.0,0.0,0.0,0.0,0.0,0.0,0.0,0.0,0.0,0.0,0.0,0.0,0.0,0.0,0.0,0.0,0.0,0.0,0.0,0.0,0.0,0.0,0.0,0.0,0.0,0.0,0.0,0.0,0.0,0.0,0.0,0.0,0.0,0.0,0.0,0.0,0.0,0.0,0.0,0.0,0.0,0.0,0.0,0.0,0.0,0.0,0.0,0.0,0.0,0.0,0.0,0.0,0.0,0.0,0.0,0.0,0.0,0.0,0.0,0.0,0.0,0.0,0.0,0.0,0.0,0.0,0.0,0.0,0.0,0.0,0.0,0.0,0.0,0.0,0.0,0.0,0.0,0.0,0.0,0.0,0.0,0.0,0.0,0.0,0.0,0.0,0.0,0.0,-1.6764,-1.7562,-1.7275,-1.6578,0.0,0.0,0.0,0.0,0.0,0.0,0.0,0.0,0.0,0.0,0.0,0.0,0.0,0.0,0.0,0.0,0.0,0.0,0.0,0.0,0.0,0.0,0.0,0.0,0.0,0.0,0.0,0.0,0.0,0.0,0.0,0.0,0.0,0.0,0.0,0.0,0.0,0.0,0.0,0.0,0.0,0.0,0.0,0.0,0.0,0.0,0.0,0.0,0.0,0.0,0.0,0.0,0.0,0.0,0.0,0.0,0.0,0.0,0.0,0.0,0.0,0.0,0.0,0.0,0.0,0.0,0.0,0.0,0.0,0.0,0.0,0.0,0.0,0.0,0.0,0.0,0.0,0.0,0.0,0.0,0.0,0.0,0.0,0.0,0.0,0.0,0.0,0.0,0.0,0.0,0.0,0.0,0.0,0.0,0.0,0.0,0.0,0.0,0.0,0.0,0.0,0.0,0.0,0.0,0.0,0.0,0.0,0.0,0.0,0.0,-1.7326,-1.7629,-1.8333,-1.7515,-1.6554,-1.5728,0.0,0.0,0.0,0.0,0.0,0.0,0.0,0.0,0.0,0.0,0.0,0.0,0.0,0.0,0.0,0.0,0.0,0.0,0.0,0.0,0.0,0.0,0.0,0.0,0.0,0.0,0.0,0.0,0.0,0.0,0.0,0.0,0.0,0.0,0.0,0.0,0.0,0.0,0.0,0.0,0.0,0.0,0.0,0.0,0.0,0.0,0.0,0.0,0.0,0.0,0.0,0.0,0.0,0.0,0.0,0.0,0.0,0.0,0.0,0.0,0.0,0.0,0.0,0.0,0.0,0.0,0.0,0.0,0.0,0.0,0.0,0.0,0.0,0.0,0.0,0.0,0.0,0.0,0.0,0.0,0.0,0.0,0.0,0.0,0.0,0.0,0.0,0.0,0.0,0.0,0.0,0.0,0.0,0.0,0.0,0.0,0.0,0.0,0.0,0.0,0.0,0.0,0.0,0.0,0.0,0.0,0.0,0.0,-1.9563,-1.927,-1.9366,-1.9857,-1.7871,-1.695,0.0,0.0,0.0,0.0,0.0,0.0,0.0,0.0,0.0,0.0,0.0,0.0,0.0,0.0,0.0,0.0,0.0,0.0,0.0,0.0,0.0,0.0,0.0,0.0,0.0,0.0,0.0,0.0,0.0,0.0,0.0,0.0,0.0,0.0,0.0,0.0,0.0,0.0,0.0,0.0,0.0,0.0,0.0,0.0,0.0,0.0,0.0,0.0,0.0,0.0,0.0,0.0,0.0,0.0,0.0,0.0,0.0,0.0,0.0,0.0,0.0,0.0,0.0,0.0,0.0,0.0,0.0,0.0,0.0,0.0,0.0,0.0,0.0,0.0,0.0,0.0,0.0,0.0,0.0,0.0,0.0,0.0,0.0,0.0,0.0,0.0,0.0,0.0,0.0,0.0,0.0,0.0,0.0,0.0,0.0,0.0,0.0,0.0,0.0,0.0,0.0,0.0,0.0,0.0,0.0,0.0,0.0,0.0,0.0,-2.0303,-2.048,-2.0007,-1.8955,-1.8495,-1.7969,0.0,0.0,0.0,0.0,0.0,0.0,0.0,0.0,0.0,0.0,0.0,0.0,0.0,0.0,0.0,0.0,0.0,0.0,0.0,0.0,0.0,0.0,0.0,0.0,0.0,0.0,0.0,0.0,0.0,0.0,0.0,0.0,0.0,0.0,0.0,0.0,0.0,0.0,0.0,0.0,0.0,0.0,0.0,0.0,0.0,0.0,0.0,0.0,0.0,0.0,0.0,0.0,0.0,0.0,0.0,0.0,0.0,0.0,0.0,0.0,0.0,0.0,0.0,0.0,0.0,0.0,0.0,0.0,0.0,0.0,0.0,0.0,0.0,0.0,0.0,0.0,0.0,0.0,0.0,0.0,0.0,0.0,0.0,0.0,0.0,0.0,0.0,0.0,0.0,0.0,0.0,0.0,0.0,0.0,0.0,0.0,0.0,0.0,0.0,0.0,0.0,0.0,0.0,0.0,0.0,0.0,0.0,0.0,0.0,-2.1438,0.0,-2.1181,-1.961,-1.9447,-1.8812,0.0,0.0,0.0,0.0,0.0,0.0,0.0,0.0,0.0,0.0,0.0,0.0,0.0,0.0,0.0,0.0,0.0,0.0,0.0,0.0,0.0,0.0,0.0,0.0,0.0,0.0,0.0,0.0,0.0,0.0,0.0,0.0,0.0,0.0,0.0,0.0,0.0,0.0,0.0,0.0,0.0,0.0,0.0,0.0,0.0,0.0,0.0,0.0,0.0,0.0,0.0,0.0,0.0,0.0,0.0,0.0,0.0,0.0,0.0,0.0,0.0,0.0,0.0,0.0,0.0,0.0,0.0,0.0,0.0,0.0,0.0,0.0,0.0,0.0,0.0,0.0,0.0,0.0,0.0,0.0,0.0,0.0,0.0,0.0,0.0,0.0,0.0,0.0,0.0,0.0,0.0,0.0,0.0,0.0,0.0,0.0,0.0,0.0,0.0,0.0,0.0,0.0,0.0,0.0,0.0,0.0,0.0,0.0,-2.0648,-2.3068,-2.3313,-2.2975,-2.2192,-2.0697,-1.9379,0.0,0.0,0.0,0.0,0.0,0.0,0.0,0.0,0.0,0.0,0.0,0.0,0.0,0.0,0.0,0.0,0.0,0.0,0.0,0.0,0.0,0.0,0.0,0.0,0.0,0.0,0.0,0.0,0.0,0.0,0.0,0.0,0.0,0.0,0.0,0.0,0.0,0.0,0.0,0.0,0.0,0.0,0.0,0.0,0.0,0.0,0.0,0.0,0.0,0.0,0.0,0.0,0.0,0.0,0.0,0.0,0.0,0.0,0.0,0.0,0.0,0.0,0.0,0.0,0.0,0.0,0.0,0.0,0.0,0.0,0.0,0.0,0.0,0.0,0.0,0.0,0.0,0.0,0.0,0.0,0.0,0.0,0.0,0.0,0.0,0.0,0.0,0.0,0.0,0.0,0.0,0.0,0.0,0.0,0.0,0.0,0.0,0.0,0.0,0.0,0.0,0.0,0.0,0.0,0.0,0.0,0.0,0.0,0.0,-2.3233,-2.4124,-2.3928,-2.2565,-2.1175,-2.0212,0.0,0.0,0.0,0.0,0.0,0.0,0.0,0.0,0.0,0.0,0.0,0.0,0.0,0.0,0.0,0.0,0.0,0.0,0.0,0.0,0.0,0.0,0.0,0.0,0.0,0.0,0.0,0.0,0.0,0.0,0.0,0.0,0.0,0.0,0.0,0.0,0.0,0.0,0.0,0.0,0.0,0.0,0.0,0.0,0.0,0.0,0.0,0.0,0.0,0.0,0.0,0.0,0.0,0.0,0.0,0.0,0.0,0.0,0.0,0.0,0.0,0.0,0.0,0.0,0.0,0.0,0.0,0.0,0.0,0.0,0.0,0.0,0.0,0.0,0.0,0.0,0.0,0.0,0.0,0.0,0.0,0.0,0.0,0.0,0.0,0.0,0.0,0.0,0.0,0.0,0.0,0.0,0.0,0.0,0.0,0.0,0.0,0.0,0.0,0.0,0.0,0.0,0.0,0.0,0.0,0.0,0.0,0.0,0.0,-2.3035,-2.4291,-2.4248,-2.2731,-2.1682,-2.0743,-1.9903,0.0,0.0,0.0,0.0,0.0,0.0,0.0,0.0,0.0,0.0,0.0,0.0,0.0,0.0,0.0,0.0,0.0,0.0,0.0,0.0,0.0,0.0,0.0,0.0,0.0,0.0,0.0,0.0,0.0,0.0,0.0,0.0,0.0,0.0,0.0,0.0,0.0,0.0,0.0,0.0,0.0,0.0,0.0,0.0,0.0,0.0,0.0,0.0,0.0,0.0,0.0,0.0,0.0,0.0,0.0,0.0,0.0,0.0,0.0,0.0,0.0,0.0,0.0,0.0,0.0,0.0,0.0,0.0,0.0,0.0,0.0,0.0,0.0,0.0,0.0,0.0,0.0,0.0,0.0,0.0,0.0,0.0,0.0,0.0,0.0,0.0,0.0,0.0,0.0,0.0,0.0,0.0,0.0,0.0,0.0,0.0,0.0,0.0,0.0,0.0,0.0,0.0,0.0,0.0,0.0,0.0,0.0,0.0,-2.241,-2.3887,-2.4069,-2.287,-2.2201,-2.1062,0.0,0.0,0.0,0.0,0.0,0.0,0.0,0.0,0.0,0.0,0.0,0.0,0.0,0.0,0.0,0.0,0.0,0.0,0.0,0.0,0.0,0.0,0.0,0.0,0.0,0.0,0.0,0.0,0.0,0.0,0.0,0.0,0.0,0.0,0.0,0.0,0.0,0.0,0.0,0.0,0.0,0.0,0.0,0.0,0.0,0.0,0.0,0.0,0.0,0.0,0.0,0.0,0.0,0.0,0.0,0.0,0.0,0.0,0.0,0.0,0.0,0.0,0.0,0.0,0.0,0.0,0.0,0.0,0.0,0.0,0.0,0.0,0.0,0.0,0.0,0.0,0.0,0.0,0.0,0.0,0.0,0.0,0.0,0.0,0.0,0.0,0.0,0.0,0.0,0.0,0.0,0.0,0.0,0.0,0.0,0.0,0.0,0.0,0.0,0.0,0.0,0.0,0.0,0.0,0.0,0.0,0.0,0.0,0.0,-2.1179,-2.3153,-2.4193,-2.4051,-2.2471,-2.1284,0.0,0.0,0.0,0.0,0.0,0.0,0.0,0.0,0.0,0.0,0.0,0.0,0.0,0.0,0.0,0.0,0.0,0.0,0.0,0.0,0.0,0.0,0.0,0.0,0.0,0.0,0.0,0.0,0.0,0.0,0.0,0.0,0.0,0.0,0.0,0.0,0.0,0.0,0.0,0.0,0.0,0.0,0.0,0.0,0.0,0.0,0.0,0.0,0.0,0.0,0.0,0.0,0.0,0.0,0.0,0.0,0.0,0.0,0.0,0.0,0.0,0.0,0.0,0.0,0.0,0.0,0.0,0.0,0.0,0.0,0.0,0.0,0.0,0.0,0.0,0.0,0.0,0.0,0.0,0.0,0.0,0.0,0.0,0.0,0.0,0.0,0.0,0.0,0.0,0.0,0.0,0.0,0.0,0.0,0.0,0.0,0.0,0.0,0.0,0.0,0.0,0.0,0.0,0.0,0.0,0.0,0.0,0.0,-2.0101,-2.0119,-2.2654,-2.3973,-2.3896,-2.2119,-2.0873,0.0,0.0,0.0,0.0,0.0,0.0,0.0,0.0,0.0,0.0,0.0,0.0,0.0,0.0,0.0,0.0,0.0,0.0,0.0,0.0,0.0,0.0,0.0,0.0,0.0,0.0,0.0,0.0,0.0,0.0,0.0,0.0,0.0,0.0,0.0,0.0,0.0,0.0,0.0,0.0,0.0,0.0,0.0,0.0,0.0,0.0,0.0,0.0,0.0,0.0,0.0,0.0,0.0,0.0,0.0,0.0,0.0,0.0,0.0,0.0,0.0,0.0,0.0,0.0,0.0,0.0,0.0,0.0,0.0,0.0,0.0,0.0,0.0,0.0,0.0,0.0,0.0,0.0,0.0,0.0,0.0,0.0,0.0,0.0,0.0,0.0,0.0,0.0,0.0,0.0,0.0,0.0,0.0,0.0,0.0,0.0,0.0,0.0,0.0,0.0,0.0,0.0,0.0,0.0,0.0,0.0,0.0,0.0,-1.9793,-1.9364,-2.2278,-2.3487,-2.2667,-2.1301,-2.0064,0.0,0.0,0.0,0.0,0.0,0.0,0.0,0.0,0.0,0.0,0.0,0.0,0.0,0.0,0.0,0.0,0.0,0.0,0.0,0.0,0.0,0.0,0.0,0.0,0.0,0.0,0.0,0.0,0.0,0.0,0.0,0.0,0.0,0.0,0.0,0.0,0.0,0.0,0.0,0.0,0.0,0.0,0.0,0.0,0.0,0.0,0.0,0.0,0.0,0.0,0.0,0.0,0.0,0.0,0.0,0.0,0.0,0.0,0.0,0.0,0.0,0.0,0.0,0.0,0.0,0.0,0.0,0.0,0.0,0.0,0.0,0.0,0.0,0.0,0.0,0.0,0.0,0.0,0.0,0.0,0.0,0.0,0.0,0.0,0.0,0.0,0.0,0.0,0.0,0.0,0.0,0.0,0.0,0.0,0.0,0.0,0.0,0.0,0.0,0.0,0.0,0.0,0.0,0.0,0.0,0.0,0.0,0.0,-1.9349,-1.8846,-2.1867,-2.2789,-2.1305,-2.0222,-1.9472,0.0,0.0,0.0,0.0,0.0,0.0,0.0,0.0,0.0,0.0,0.0,0.0,0.0,0.0,0.0,0.0,0.0,0.0,0.0,0.0,0.0,0.0,0.0,0.0,0.0,0.0,0.0,0.0,0.0,0.0,0.0,0.0,0.0,0.0,0.0,0.0,0.0,0.0,0.0,0.0,0.0,0.0,0.0,0.0,0.0,0.0,0.0,0.0,-1.6887,0.0,0.0,0.0,0.0,0.0,0.0,0.0,0.0,0.0,0.0,0.0,0.0,0.0,0.0,0.0,0.0,0.0,0.0,0.0,0.0,0.0,0.0,0.0,0.0,0.0,0.0,0.0,0.0,0.0,0.0,0.0,0.0,0.0,0.0,0.0,0.0,0.0,0.0,0.0,0.0,0.0,0.0,0.0,0.0,0.0,0.0,0.0,0.0,0.0,0.0,0.0,0.0,0.0,0.0,0.0,0.0,0.0,0.0,0.0,-1.8861,-1.8807,-2.1275,-2.2054,-2.0868,-1.9549,-1.8711,0.0,0.0,0.0,0.0,0.0,0.0,0.0,0.0,0.0,0.0,0.0,0.0,0.0,0.0,0.0,0.0,0.0,0.0,0.0,0.0,0.0,0.0,0.0,0.0,0.0,0.0,0.0,0.0,0.0,0.0,0.0,0.0,0.0,0.0,0.0,0.0,0.0,0.0,0.0,0.0,0.0,0.0,0.0,0.0,0.0,0.0,0.0,0.0,0.0,0.0,0.0,0.0,0.0,0.0,0.0,0.0,0.0,0.0,0.0,0.0,0.0,0.0,0.0,0.0,0.0,0.0,0.0,0.0,0.0,0.0,0.0,0.0,0.0,0.0,0.0,0.0,0.0,0.0,0.0,0.0,0.0,0.0,0.0,0.0,0.0,0.0,0.0,0.0,0.0,0.0,0.0,0.0,0.0,0.0,0.0,0.0,0.0,0.0,0.0,0.0,0.0,0.0,0.0,0.0,0.0,0.0,0.0,-1.7731,-1.8499,-1.9027,-2.0723,-2.1337,-2.0665,-1.9023,-1.7985,-1.7631,0.0,0.0,0.0,0.0,0.0,0.0,0.0,0.0,0.0,0.0,0.0,0.0,0.0,0.0,0.0,0.0,0.0,0.0,0.0,0.0,0.0,0.0,0.0,0.0,0.0,0.0,0.0,0.0,0.0,0.0,0.0,0.0,0.0,0.0,0.0,0.0,0.0,0.0,-1.7992,-1.9884,0.0,0.0,0.0,0.0,0.0,0.0,0.0,0.0,-2.0742,0.0,0.0,0.0,0.0,0.0,0.0,0.0,0.0,0.0,0.0,0.0,0.0,0.0,0.0,0.0,0.0,0.0,0.0,0.0,0.0,0.0,0.0,0.0,0.0,0.0,0.0,0.0,0.0,0.0,0.0,0.0,0.0,0.0,0.0,0.0,0.0,0.0,0.0,0.0,0.0,0.0,0.0,0.0,0.0,0.0,0.0,0.0,0.0,0.0,0.0,0.0,0.0,0.0,0.0,0.0,0.0,-1.7223,-1.7791,-1.8486,-1.9392,-2.0673,-2.0798,-1.9569,-1.8469,-1.7598,-1.7029,0.0,0.0,0.0,0.0,0.0,0.0,0.0,0.0,0.0,0.0,0.0,0.0,0.0,0.0,0.0,0.0,0.0,0.0,0.0,0.0,0.0,0.0,0.0,0.0,0.0,0.0,0.0,0.0,0.0,0.0,0.0,0.0,0.0,0.0,0.0,0.0,0.0,0.0,0.0,-2.2011,-2.3583,0.0,0.0,0.0,0.0,0.0,0.0,0.0,0.0,-2.2091,0.0,0.0,0.0,0.0,0.0,0.0,0.0,0.0,0.0,0.0,0.0,0.0,0.0,0.0,0.0,0.0,0.0,0.0,0.0,0.0,0.0,0.0,0.0,0.0,0.0,0.0,0.0,0.0,0.0,0.0,0.0,0.0,0.0,0.0,0.0,0.0,0.0,0.0,0.0,0.0,0.0,0.0,0.0,0.0,0.0,0.0,0.0,0.0,0.0,0.0,0.0,0.0,0.0,0.0,0.0,-1.7277,-1.7918,-1.8608,-1.9435,-2.0387,-2.0257,-1.9007,-1.8263,-1.748,0.0,0.0,0.0,0.0,0.0,0.0,0.0,0.0,0.0,0.0,0.0,0.0,0.0,0.0,0.0,0.0,0.0,0.0,0.0,0.0,0.0,0.0,0.0,0.0,0.0,0.0,0.0,0.0,0.0,0.0,0.0,0.0,0.0,0.0,0.0,0.0,0.0,0.0,0.0,0.0,-2.2589,-2.445,-2.691,0.0,0.0,0.0,0.0,0.0,0.0,-2.5442,-2.4488,0.0,0.0,0.0,0.0,0.0,0.0,0.0,0.0,0.0,0.0,0.0,0.0,0.0,0.0,0.0,0.0,0.0,0.0,0.0,0.0,0.0,0.0,0.0,0.0,0.0,0.0,0.0,0.0,0.0,0.0,0.0,0.0,0.0,0.0,0.0,0.0,0.0,0.0,0.0,0.0,0.0,0.0,0.0,0.0,0.0,0.0,0.0,0.0,0.0,0.0,0.0,0.0,0.0,0.0,0.0,-1.7257,-1.7985,-1.8709,-1.9437,-2.0029,-1.979,-1.8689,-1.8113,-1.7313,0.0,0.0,0.0,0.0,0.0,0.0,0.0,0.0,0.0,0.0,0.0,0.0,0.0,0.0,0.0,0.0,0.0,0.0,0.0,0.0,0.0,0.0,0.0,0.0,0.0,0.0,0.0,0.0,0.0,0.0,0.0,0.0,0.0,0.0,0.0,0.0,0.0,0.0,0.0,0.0,0.0,-2.4968,-2.8022,-2.7566,0.0,0.0,0.0,0.0,-2.8296,-2.7383,0.0,0.0,0.0,0.0,0.0,0.0,0.0,0.0,0.0,0.0,0.0,0.0,0.0,0.0,0.0,0.0,0.0,0.0,0.0,0.0,0.0,0.0,0.0,0.0,0.0,0.0,0.0,0.0,0.0,0.0,0.0,0.0,0.0,0.0,0.0,0.0,0.0,0.0,0.0,0.0,0.0,0.0,0.0,0.0,0.0,0.0,0.0,0.0,0.0,0.0,0.0,0.0,0.0,0.0,0.0,0.0,-1.7261,-1.7862,-1.8644,-1.9591,-1.9705,-1.944,-1.8875,-1.7726,-1.695,0.0,0.0,0.0,0.0,0.0,0.0,0.0,0.0,0.0,0.0,0.0,0.0,0.0,0.0,0.0,0.0,0.0,0.0,0.0,0.0,0.0,0.0,0.0,0.0,0.0,0.0,0.0,0.0,0.0,0.0,0.0,0.0,0.0,0.0,0.0,0.0,0.0,0.0,0.0,0.0,0.0,-2.5411,-2.7447,-2.7793,-2.7867,0.0,0.0,-2.9218,-2.9332,-2.9766,0.0,0.0,0.0,0.0,0.0,0.0,0.0,0.0,0.0,0.0,0.0,0.0,0.0,0.0,0.0,0.0,0.0,0.0,0.0,0.0,0.0,0.0,0.0,0.0,0.0,0.0,0.0,0.0,0.0,0.0,0.0,0.0,0.0,0.0,0.0,0.0,0.0,0.0,0.0,0.0,0.0,0.0,0.0,0.0,0.0,0.0,0.0,0.0,0.0,0.0,0.0,0.0,0.0,0.0,0.0,-1.6087,-1.7132,-1.8441,-1.9349,-1.9807,-1.9926,-1.9579,-1.8676,-1.7915,-1.7204,0.0,0.0,0.0,0.0,0.0,0.0,0.0,0.0,0.0,0.0,0.0,0.0,0.0,0.0,0.0,0.0,0.0,0.0,0.0,0.0,0.0,0.0,0.0,0.0,0.0,0.0,0.0,0.0,0.0,0.0,0.0,0.0,0.0,0.0,0.0,0.0,0.0,0.0,0.0,0.0,0.0,0.0,-2.7143,-2.773,0.0,0.0,0.0,-2.9481,-2.9457,0.0,0.0,0.0,0.0,0.0,0.0,0.0,0.0,0.0,0.0,0.0,0.0,0.0,0.0,0.0,0.0,0.0,0.0,0.0,0.0,0.0,0.0,0.0,0.0,0.0,0.0,0.0,0.0,0.0,0.0,0.0,0.0,0.0,0.0,0.0,0.0,0.0,0.0,0.0,0.0,0.0,0.0,0.0,0.0,0.0,0.0,0.0,0.0,0.0,0.0,0.0,0.0,0.0,0.0,0.0,0.0,0.0,-1.7011,-1.8831,-1.9828,-1.9951,-2.005,-1.9656,-1.8681,-1.8225,0.0,0.0,0.0,0.0,0.0,0.0,0.0,0.0,0.0,0.0,0.0,0.0,0.0,0.0,0.0,0.0,0.0,0.0,0.0,0.0,0.0,0.0,0.0,0.0,0.0,0.0,0.0,-1.401,0.0,0.0,0.0,0.0,0.0,0.0,0.0,0.0,0.0,0.0,0.0,0.0,0.0,0.0,-2.4801,-2.6971,-2.7764,-2.8203,0.0,0.0,-2.961,-2.9342,-2.9702,-2.9366,0.0,0.0,0.0,0.0,0.0,0.0,0.0,0.0,0.0,0.0,0.0,0.0,0.0,0.0,0.0,0.0,0.0,0.0,0.0,0.0,0.0,0.0,0.0,0.0,0.0,0.0,0.0,0.0,0.0,0.0,0.0,0.0,0.0,0.0,0.0,0.0,0.0,0.0,0.0,0.0,0.0,0.0,0.0,0.0,0.0,0.0,0.0,0.0,0.0,0.0,0.0,0.0,0.0,0.0,0.0,-1.7021,-1.8606,-1.9651,-2.0055,-1.9799,-1.9476,-1.9084,-1.8477,-1.793,0.0,0.0,0.0,0.0,0.0,0.0,0.0,0.0,0.0,0.0,0.0,0.0,0.0,0.0,0.0,0.0,0.0,0.0,0.0,0.0,0.0,0.0,0.0,0.0,0.0,0.0,0.0,0.0,0.0,0.0,0.0,0.0,0.0,0.0,0.0,0.0,0.0,0.0,0.0,0.0,0.0,-2.5186,-2.6977,-2.8032,-2.8943,0.0,0.0,-3.0037,-2.9148,-3.049,-3.0229,-2.6064,0.0,0.0,0.0,0.0,0.0,0.0,0.0,0.0,0.0,0.0,0.0,0.0,0.0,0.0,0.0,0.0,0.0,0.0,0.0,0.0,0.0,0.0,0.0,0.0,0.0,0.0,0.0,0.0,0.0,0.0,0.0,0.0,0.0,0.0,0.0,0.0,0.0,0.0,0.0,0.0,0.0,0.0,0.0,0.0,0.0,0.0,0.0,0.0,0.0,0.0,0.0,0.0,0.0,-1.6053,-1.6749,-1.8626,-1.9735,-2.0076,-2.0013,-1.9819,-1.9537,-1.9061,-1.8613,0.0,0.0,0.0,0.0,0.0,0.0,0.0,0.0,0.0,0.0,0.0,0.0,0.0,0.0,0.0,0.0,0.0,0.0,0.0,0.0,0.0,0.0,0.0,0.0,0.0,0.0,0.0,0.0,-1.2858,-1.3129,-1.413,0.0,0.0,0.0,0.0,0.0,0.0,0.0,0.0,0.0,0.0,-2.431,-2.5704,-2.6531,0.0,0.0,-2.8862,-2.8736,-2.8917,-2.9077,-2.8412,-2.6065,-2.5418,0.0,0.0,0.0,0.0,0.0,0.0,0.0,0.0,0.0,0.0,0.0,0.0,0.0,0.0,0.0,0.0,0.0,0.0,0.0,0.0,0.0,0.0,0.0,0.0,0.0,0.0,0.0,0.0,0.0,0.0,0.0,0.0,0.0,0.0,0.0,0.0,0.0,0.0,0.0,0.0,0.0,0.0,0.0,0.0,0.0,0.0,0.0,0.0,0.0,0.0,0.0,0.0,-1.5946,-1.6603,-1.848,-1.963,-2.0002,-2.0117,-2.0052,-1.9864,-1.9594,-1.916,0.0,0.0,0.0,0.0,0.0,0.0,0.0,0.0,0.0,0.0,0.0,0.0,0.0,0.0,0.0,0.0,0.0,0.0,0.0,0.0,0.0,0.0,0.0,0.0,0.0,0.0,0.0,0.0,-1.2381,-1.2724,-1.411,0.0,0.0,0.0,0.0,0.0,0.0,0.0,0.0,0.0,0.0,-2.3715,-2.4699,-2.5462,-2.6374,-2.7638,-2.7551,-2.7452,-2.7799,-2.7566,-2.6811,-2.5274,0.0,0.0,0.0,0.0,0.0,0.0,0.0,0.0,0.0,0.0,0.0,0.0,0.0,0.0,0.0,0.0,0.0,0.0,0.0,0.0,0.0,0.0,0.0,0.0,0.0,0.0,0.0,0.0,0.0,0.0,-1.6064,0.0,0.0,0.0,0.0,0.0,0.0,0.0,0.0,0.0,0.0,0.0,0.0,0.0,0.0,0.0,0.0,0.0,0.0,0.0,0.0,0.0,0.0,-1.5525,-1.6598,-1.811,-1.9195,-1.9772,-1.9997,-2.0057,-1.9996,-1.9967,-1.9458,-1.8377,0.0,0.0,0.0,0.0,0.0,0.0,0.0,0.0,0.0,0.0,0.0,0.0,0.0,0.0,0.0,0.0,0.0,0.0,0.0,0.0,0.0,0.0,0.0,0.0,0.0,0.0,-1.3312,-1.2698,-1.269,0.0,0.0,0.0,0.0,0.0,0.0,0.0,0.0,0.0,0.0,-2.2343,-2.367,-2.4123,-2.5207,-2.6023,-2.6471,-2.6613,-2.6393,-2.5632,-2.6228,-2.5894,0.0,0.0,0.0,0.0,0.0,0.0,0.0,0.0,0.0,0.0,0.0,0.0,0.0,0.0,0.0,0.0,0.0,0.0,0.0,0.0,0.0,0.0,0.0,0.0,0.0,0.0,0.0,-2.0249,-1.8425,0.0,0.0,0.0,0.0,0.0,0.0,0.0,0.0,0.0,0.0,0.0,-2.0317,-1.9497,0.0,0.0,0.0,0.0,0.0,0.0,0.0,0.0,0.0,0.0,0.0,0.0,-1.5411,-1.6103,-1.7645,-1.8661,-1.9126,-1.9562,-1.9848,-1.9987,-2.0045,-1.9851,-1.9438,0.0,0.0,0.0,0.0,0.0,0.0,0.0,0.0,0.0,0.0,0.0,0.0,0.0,0.0,0.0,0.0,0.0,0.0,0.0,0.0,0.0,0.0,0.0,0.0,0.0,-1.4333,0.0,0.0,0.0,0.0,0.0,0.0,0.0,0.0,0.0,0.0,0.0,-2.0471,-2.0582,-2.1334,-2.2099,-2.2706,-2.3028,-2.378,0.0,0.0,0.0,0.0,0.0,0.0,0.0,0.0,0.0,0.0,0.0,0.0,0.0,0.0,-2.0402,-1.9951,-1.9521,-1.9105,-1.8571,0.0,0.0,0.0,0.0,0.0,0.0,0.0,0.0,0.0,0.0,0.0,0.0,0.0,0.0,-2.144,0.0,-1.9165,0.0,0.0,0.0,0.0,0.0,0.0,0.0,0.0,-2.0684,-2.0784,-2.082,-2.0274,-1.9781,0.0,-1.7712,-1.6265,0.0,0.0,0.0,0.0,0.0,0.0,0.0,0.0,-1.5169,-1.5738,-1.7182,-1.8136,-1.8481,-1.9068,-1.9468,-1.9692,-1.958,-1.9684,-1.9954,-1.9591,-1.9087,0.0,0.0,0.0,0.0,0.0,0.0,0.0,0.0,0.0,0.0,0.0,0.0,0.0,0.0,0.0,0.0,0.0,0.0,0.0,0.0,0.0,0.0,0.0,-1.4398,0.0,0.0,0.0,0.0,0.0,0.0,0.0,0.0,0.0,-1.9623,-1.9904,-2.0031,-2.0333,-2.0486,-2.0735,-2.1271,0.0,0.0,0.0,0.0,0.0,0.0,0.0,-2.2685,-2.2461,-2.2184,-2.1792,-2.113,-2.0718,-2.0395,-2.0045,0.0,0.0,-1.991,-1.9569,-1.9148,-1.8686,-1.8191,-1.7738,-1.7331,-1.6772,-1.6131,0.0,0.0,0.0,0.0,0.0,0.0,0.0,0.0,-2.2253,-2.169,0.0,-1.9568,0.0,0.0,0.0,0.0,0.0,-1.936,0.0,0.0,-2.0825,-2.1135,-2.0886,-2.0292,-1.9864,-1.9477,-1.8129,-1.7293,-1.6851,-1.4731,0.0,0.0,0.0,0.0,0.0,0.0,-1.4795,-1.5472,-1.6759,-1.7574,-1.7862,-1.8503,-1.8945,-1.9077,-1.8742,-1.8973,-1.9786,-1.9213,-1.8833,-1.8824,-1.8639,0.0,0.0,0.0,0.0,0.0,0.0,0.0,0.0,0.0,0.0,0.0,0.0,0.0,0.0,0.0,0.0,0.0,0.0,0.0,0.0,-1.4381,0.0,0.0,0.0,0.0,0.0,0.0,0.0,0.0,0.0,0.0,-1.8498,-1.9035,-1.9375,-2.0023,0.0,0.0,0.0,0.0,-2.1147,-2.0794,-2.1373,-2.1819,-2.174,-2.1611,-2.1467,-2.124,0.0,0.0,-1.9183,-1.9286,-1.9218,-1.8243,-1.8255,-1.8875,-2.0167,-1.9487,-1.8782,-1.8525,-1.7704,-1.697,-1.6543,-1.6026,-1.5257,-2.4895,0.0,0.0,0.0,0.0,-2.3675,-2.3432,-2.3326,-2.3004,-2.2115,-2.0759,-1.9509,0.0,0.0,0.0,0.0,0.0,0.0,-1.8215,-1.9345,-1.9121,-1.922,-1.9554,-1.913,-1.8767,-1.8472,-1.7538,-1.6962,-1.6752,-1.5465,-1.445,-1.3761,0.0,0.0,0.0,0.0,-1.4132,-1.4866,-1.5884,-1.6537,-1.675,-1.7552,-1.8235,-1.8733,-1.8797,-1.9008,-1.933,-1.9256,-1.9254,-1.9284,-1.8587,0.0,0.0,0.0,0.0,0.0,0.0,0.0,0.0,0.0,0.0,0.0,0.0,0.0,0.0,0.0,0.0,0.0,0.0,0.0,-1.5026,-1.4684,-1.4396,0.0,0.0,0.0,0.0,0.0,0.0,0.0,0.0,0.0,-1.5229,-1.6721,-1.787,0.0,0.0,-1.7486,-1.7654,-1.8315,-1.892,-1.9295,0.0,0.0,0.0,-2.0113,-1.9928,-1.9702,-1.9148,-1.8616,-1.8148,-1.8018,-1.7728,-1.6987,-1.697,-1.7007,-1.6938,-1.7564,-1.7824,-1.7528,-1.7248,-1.6983,-1.669,-1.6258,-1.5579,-2.3254,-2.32,-2.2987,-2.2852,-2.2824,-2.2405,-2.2264,-2.2334,-2.1935,-2.1235,-2.0249,-1.9033,-1.8271,-1.769,-1.6908,0.0,0.0,0.0,-1.7176,-1.8109,-1.7665,-1.7639,-1.7957,-1.7517,-1.7258,-1.7109,-1.6373,-1.5986,-1.588,-1.4819,-1.3973,-1.3373,0.0,0.0,-1.2779,-1.3288,-1.377,-1.4227,-1.5078,-1.5634,-1.5829,-1.6747,-1.7467,-1.7959,-1.8281,-1.8485,-1.861,-1.9064,-1.9337,-1.9371,-1.9075,-1.8589,0.0,0.0,0.0,0.0,0.0,0.0,0.0,0.0,0.0,0.0,0.0,-1.1516,-1.1146,0.0,0.0,0.0,-1.2741,-1.3826,-1.4469,-1.4237,0.0,0.0,0.0,0.0,0.0,0.0,0.0,-1.2765,-1.241,-1.2406,-1.3062,-1.4026,-1.5154,-1.6473,-1.6293,-1.6066,-1.6194,0.0,-1.7569,-1.762,-1.8094,-1.8425,-1.8469,-1.8312,-1.811,-1.7899,-1.7249,-1.6755,-1.6625,-1.6335,-1.5898,-1.5469,-1.5281,-1.51,-1.4568,-1.5198,-1.5936,-1.617,-1.6182,-1.6108,-1.5915,-1.5572,-1.4954,-2.1062,-2.0593,-2.1123,-2.0938,-2.0331,-2.0209,-2.0274,-2.037,-1.9736,-1.9401,-1.9302,-1.8175,-1.7705,-1.7651,-1.6992,0.0,-1.6451,-1.6507,-1.6476,-1.6501,-1.6352,-1.6235,-1.6191,-1.5726,-1.5488,-1.5484,-1.4825,-1.4546,-1.4405,-1.331,-1.265,-1.2428,-1.3284,-1.3248,-1.2422,-1.3083,-1.3492,-1.3501,-1.4219,-1.4765,-1.5062,-1.6025,-1.6661,-1.6987,-1.7313,-1.7519,-1.7669,-1.8547,-1.9061,-1.9169,-1.9755,-1.9619,-1.8575,0.0,0.0,0.0,0.0,0.0,0.0,0.0,0.0,0.0,0.0,0.0,0.0,0.0,0.0,0.0,-1.2427,0.0,-1.3372,-1.3305,0.0,0.0,0.0,-1.3432,-1.357,-1.2458,-1.1787,-1.1966,0.0,0.0,-1.1705,-1.1214,-1.1709,-1.4298,-1.4853,-1.5028,-1.5038,-1.6127,-1.6715,-1.5865,-1.6114,-1.6455,-1.6695,-1.6449,-1.6203,-1.6096,-1.5336,-1.4876,-1.4824,-1.4398,-1.3915,-1.3541,-1.3375,-1.319,-1.2934,-1.2749,-1.3022,-1.4348,-1.4586,-1.4471,-1.4303,-1.3921,-1.3279,-2.0779,-1.9948,-1.9561,-1.9483,-1.9625,-1.9614,-1.9408,-1.9054,-1.874,-1.7922,-1.682,-1.6648,-1.5969,-1.4946,-1.4538,-1.4442,-1.4628,-1.4737,-1.4898,-1.5051,-1.4962,-1.4837,-1.4706,-1.4022,-1.3691,-1.3608,-1.335,-1.3203,-1.3076,-1.2543,-1.2073,-1.1689,-1.1442,-1.148,-1.1787,-1.1626,-1.1861,-1.2448,-1.2922,-1.3734,-1.4898,-1.5535,-1.5961,-1.6273,-1.6328,-1.6402,-1.6427,-1.7178,-1.7926,-1.861,-1.8595,-1.8638,-1.8776,-1.7158,0.0,0.0,0.0,0.0,0.0,0.0,0.0,0.0,0.0,-1.1983,-1.1246,0.0,-1.1767,0.0,-1.1665,-1.2351,-1.3227,-1.3063,0.0,0.0,-1.276,-1.2339,-1.1619,-1.1154,-1.0711,-1.0206,-0.9862,-0.9632,-0.9722,-0.9582,-0.9785,-1.0673,-1.1902,-1.2704,-1.2753,-1.3755,-1.4518,-1.4359,-1.4547,-1.4922,-1.5251,-1.5124,-1.4819,-1.4788,-1.419,-1.3693,-1.3488,-1.3095,-1.2539,-1.1727,-1.1645,-1.148,-1.0904,-1.0785,-1.0856,-1.1206,-1.184,-1.2311,-1.2006,-1.1718,-1.1379,-1.8579,-1.8083,-1.7554,-1.7375,-1.7556,-1.8092,-1.7855,-1.7125,-1.7007,-1.6268,-1.5072,-1.4854,-1.4239,-1.3321,-1.313,-1.3199,-1.345,-1.3425,-1.3457,-1.3534,-1.3268,-1.2968,-1.2781,-1.2196,-1.1888,-1.1864,-1.1765,-1.1715,-1.1589,-1.1256,-1.0962,-1.0757,-1.0109,-0.9996,-1.0428,-1.0423,-1.0786,-1.1464,-1.1874,-1.2762,-1.4151,-1.4495,-1.488,-1.533,-1.5301,-1.5257,-1.5257,-1.592,-1.6603,-1.7326,-1.75,-1.7788,-1.8201,-1.6586,-1.5414,0.0,0.0,0.0,0.0,0.0,0.0,0.0,0.0,0.0,0.0,0.0,-1.1692,0.0,-1.1203,-1.1426,-1.2363,-1.2092,-1.173,-1.1583,-1.1323,-1.0893,-1.0156,-0.9517,-0.9097,-0.897,-0.842,-0.8002,-0.795,-0.795,-0.7858,-0.7738,-0.8881,-1.0135,-1.1195,-1.1979,-1.2423,-1.2634,-1.2526,-1.252,-1.2848,-1.2617,-1.2406,-1.2365,-1.177,-1.1237,-1.1184,-1.0822,-1.0367,-0.9839,-0.9916,-0.9955,-0.9468,-0.9222,-0.9061,-0.8789,-0.8985,-0.9489,-1.0105,-1.0182,-0.9864,-1.5982,-1.5939,-1.5737,-1.5348,-1.5078,-1.6042,-1.5987,-1.5111,-1.5119,-1.4649,-1.3848,-1.3087,-1.2642,-1.2389,-1.2328,-1.2458,-1.265,-1.2458,-1.2305,-1.2091,-1.1622,-1.1217,-1.0875,-1.0522,-1.0364,-1.0364,-1.0356,-1.0372,-1.0356,-0.9933,-0.976,-0.9874,-0.9025,-0.8696,-0.8885,-0.9237,-0.9752,-1.0545,-1.1115,-1.1986,-1.3157,-1.3382,-1.3736,-1.4296,-1.4242,-1.4178,-1.413,-1.4715,-1.5246,-1.5651,-1.6351,-1.6914,-1.7101,-1.5649,-1.4799,0.0,-1.3324,0.0,0.0,0.0,0.0,0.0,0.0,0.0,0.0,-1.1195,-1.1331,-1.1738,-1.077,-1.0377,-1.1023,-1.0661,-1.0187,-0.9691,-0.9411,-0.9156,-0.8741,-0.7745,-0.7244,-0.7789,-0.6734,-0.6078,-0.6348,-0.6372,-0.613,-0.5914,-0.6412,-0.765,-0.961,-1.0233,-1.0458,-1.0763,-1.041,-1.0209,-1.0103,-0.9881,-0.9848,-0.9837,-0.9375,-0.861,-0.8921,-0.8496,-0.8129,-0.8085,-0.8246,-0.8322,-0.8138,-0.7804,-0.739,-0.6943,-0.6491,-0.6699,-0.8078,-0.8534,-0.837,-1.5884,-1.5596,-1.5401,-1.4871,-1.43,-1.4221,-1.4101,-1.4017,-1.4017,-1.352,-1.2763,-1.1824,-1.1615,-1.174,-1.149,-1.1553,-1.1802,-1.1732,-1.1473,-1.1069,-1.1115,-1.0762,-1.0231,-1.0102,-1.0115,-1.0218,-1.0115,-1.0072,-1.0064,-0.9442,-0.9286,-0.9558,-0.7912,-0.7559,-0.8354,0.0,0.0,0.0,-1.0797,-1.1773,-1.2637,-1.3054,-1.3319,-1.3421,-1.3166,0.0,-1.3092,-1.3581,-1.395,-1.428,-1.49,0.0,0.0,0.0,0.0,0.0,0.0,0.0,0.0,0.0,0.0,0.0,-1.0093,-0.9998,-1.0123,-0.9915,-0.9959,-1.0324,-0.9959,-0.9629,-0.94,-0.9415,-0.8978,-0.7896,-0.7725,-0.735,-0.6401,-0.5888,-0.5525,-0.5287,-0.5086,-0.501,-0.5149,-0.5195,-0.5306,-0.5457,-0.5418,-0.5858,-0.7147,-0.8006,-0.8511,-0.8616,-0.8731,-0.8715,-0.8391,-0.8602,-0.8761,-0.8867,-0.8564,-0.8178,-0.8083,-0.7532,-0.6939,-0.6615,-0.6478,-0.6359,-0.6016,-0.5865,-0.5829,-0.5668,-0.5116,-0.4989,-0.5711,-0.597,-0.581,-1.4566,0.0,-1.4129,-1.3591,0.0,-1.277,-1.2334,-1.1934,-1.2402,-1.2093,-1.1219,-1.0661,-1.0478,-1.0541,-1.0681,-1.087,-1.1122,-1.0793,-1.0465,-1.0077,-0.9768,-0.9339,-0.8771,-0.8771,-0.8823,-0.8869,-0.8764,-0.8771,-0.8764,-0.843,-0.828,-0.8387,-0.7468,-0.719,-0.7562,-0.6949,-0.7502,-0.9341,-1.0028,-1.086,-1.1865,-1.2357,-1.2628,-1.2781,0.0,0.0,0.0,0.0,0.0,0.0,0.0,0.0,0.0,0.0,0.0,-1.1861,-1.1156,-1.0434,-0.9843,-0.9626,-0.9224,-0.8547,-0.8171,-0.8319,-0.9199,-0.8996,-0.8854,-0.8835,-0.8429,-0.8,-0.7782,-0.7676,-0.7261,-0.6355,-0.6181,-0.5822,-0.5016,-0.457,-0.4349,-0.4319,-0.4191,-0.4144,-0.4249,-0.4069,-0.3952,-0.408,-0.3896,-0.3999,-0.4635,-0.5875,-0.6781,-0.6853,-0.6947,-0.695,-0.6618,-0.6667,-0.6828,-0.6753,-0.6496,-0.6343,-0.6369,-0.5918,-0.548,-0.539,-0.5319,-0.5092,-0.468,-0.448,-0.4237,-0.3808,-0.3387,-0.3042,-0.315,-0.3675,-0.3993,-1.2826,-1.282,-1.268,-1.2124,-1.1482,-1.1443,-1.0748,-0.9844,0.0,0.0,0.0,-0.964,-0.9454,-0.939,-0.9786,-1.011,-1.0225,-0.9724,-0.9315,-0.8974,-0.8451,-0.7955,-0.7473,-0.7461,-0.7521,-0.7521,-0.7521,-0.7521,-0.7521,-0.7521,-0.7465,-0.7378,-0.7269,-0.7101,-0.6826,-0.6723,-0.736,-0.8722,-0.912,-0.9888,-1.1135,-1.1514,-1.183,-1.2119,-1.2182,-1.2158,-1.2044,-1.1738,-1.1595,-1.1579,-1.1472,-1.1545,-1.1677,-1.1001,-1.0514,-1.0234,-0.9621,-0.8918,-0.8119,-0.7895,-0.7473,-0.673,-0.6303,-0.6676,-0.8146,-0.8,-0.7741,-0.7368,-0.6725,-0.6347,-0.6239,-0.5919,-0.5473,-0.4805,-0.4727,-0.4426,-0.3744,-0.3382,-0.3256,-0.344,-0.3181,-0.3121,-0.3241,-0.2918,-0.2633,-0.2438,-0.2442,-0.2391,-0.2607,-0.3981,-0.5081,-0.5117,-0.5056,-0.4906,-0.4799,-0.4589,-0.4466,-0.4673,-0.4333,-0.4073,-0.4248,-0.4069,-0.3945,-0.4023,-0.4066,-0.3739,-0.3352,-0.3011,-0.2703,-0.2062,-0.162,-0.1174,-0.0949,-0.1503,-0.1998,-1.1409,-1.1409,-1.1335,-1.1101,-1.0617,-1.0389,-0.9785,-0.8927,-0.9239,-0.9151,-0.8865,-0.8742,-0.8742,-0.8801,-0.8748,-0.8807,-0.8924,-0.86,-0.8299,0.0,-0.7821,-0.7628,-0.7348,-0.7461,-0.7521,-0.7521,-0.7521,-0.7521,-0.7521,-0.7461,-0.7545,-0.7541,-0.7039,-0.6695,-0.6583,-0.6616,-0.693,-0.7628,-0.8341,-0.9381,-1.0641,-1.0811,-1.089,-1.095,-1.0792,-1.0696,-1.0707,-1.0535,-1.0456,-1.0414,-1.0226,-1.0049,-0.9948,-0.9362,-0.8767,-0.8211,-0.7954,-0.7426,-0.644,-0.6517,-0.6323,-0.5618,-0.5483,-0.5697,-0.6298,-0.6357,-0.619,-0.581,-0.5542,-0.5273,-0.4827,-0.4608,-0.4142,-0.3286,-0.3329,-0.2997,-0.2007,-0.1974,-0.19,-0.1648,-0.1543,-0.1601,-0.1733,-0.1661,-0.1688,-0.1687,-0.1634,-0.1595,-0.1835,-0.2674,-0.3237,-0.3188,-0.2967,-0.3055,-0.3371,-0.3045,-0.2978,-0.3547,-0.2985,-0.2723,-0.3155,-0.2675,-0.2203,-0.213,-0.2,-0.1682,-0.1423,-0.1276,-0.1139,-0.0943,-0.0503,0.0,0.0503,0.0725,0.078,-1.0651,-1.0576,-1.0501,-0.9985,-0.9193,-0.8559,-0.7959,-0.7521,-0.7637,-0.7902,-0.8156,-0.8032,-0.7972,-0.8096,-0.8355,-0.8549,-0.8603,-0.819,-0.7899,-0.7661,-0.726,-0.6926,-0.6727,-0.6707,-0.6712,-0.6707,-0.6603,-0.649,-0.6317,-0.6317,-0.6258,-0.619,-0.5729,-0.5539,-0.5596,-0.5544,-0.5887,-0.6618,-0.7634,-0.8523,-0.92,-0.955,-0.9745,-0.9729,-0.9688,-0.9823,-1.0061,-0.9703,-0.9467,-0.9456,-0.9059,-0.8762,-0.8451,-0.7921,-0.7433,-0.71,-0.683,-0.632,-0.5517,-0.5201,-0.4761,-0.4065,-0.3934,-0.3808,-0.3699,-0.4425,-0.4659,-0.422,-0.3724,-0.3284,-0.3007,-0.2839,-0.2434,-0.1848,-0.2013,-0.1882,-0.1302,-0.1248,-0.1248,-0.1092,-0.1002,-0.1012,-0.1068,-0.0868,-0.0766,-0.0821,-0.0766,-0.0771,-0.0782,-0.1199,-0.1639,-0.1921,-0.1884,-0.1808,-0.2009,-0.1757,-0.1656,-0.1959,-0.1656,-0.1504,-0.1704,-0.1255,-0.1064,-0.1029,-0.0672,-0.0367,-0.0271,0.0218,0.0495,0.061,0.1117,0.162,0.1899,0.2402,0.2734,-0.9664,-0.9664,-0.9442,-0.8822,-0.7845,-0.697,-0.6548,-0.6346,-0.6412,-0.6798,-0.7316,-0.726,-0.7265,-0.7396,-0.7842,-0.8102,-0.8071,-0.7749,-0.7434,-0.7125,-0.6527,-0.6102,-0.5852,-0.5698,-0.5673,-0.5673,-0.5567,-0.5344,-0.5171,-0.5117,-0.5007,-0.4718,-0.4549,-0.4495,-0.4725,-0.4536,-0.4792,-0.5512,-0.6508,-0.735,-0.79,-0.8311,-0.8567,-0.8567,-0.8606,-0.8856,-0.9141,-0.8718,-0.839,-0.8256,-0.7898,-0.7441,-0.7067,-0.6617,-0.6271,-0.6104,-0.5793,-0.524,-0.4537,-0.3968,-0.3323,-0.2669,-0.2418,-0.2169,-0.1804,-0.2441,-0.2894,-0.2619,-0.2065,-0.1677,-0.1621,-0.1398,-0.1052,-0.0918,-0.0991,-0.0986,-0.0734,-0.0743,-0.0755,-0.07,-0.0485,-0.0381,-0.0333,-0.0056,0.028,0.0335,0.0336,0.0448,0.0392,0.0448,0.0166,-0.027,-0.0629,-0.0829,-0.0773,-0.0517,-0.0467,-0.0568,-0.0259,-0.0104,-0.0052,0.0052,0.0312,0.0373,0.0643,0.092,0.0889,0.1395,0.1895,0.1956,0.2402,0.2959,0.3178,0.3843,0.4236,-0.8008,-0.8012,-0.7859,-0.7426,-0.6991,-0.657,-0.6288,-0.6156,-0.5881,-0.5947,-0.6296,-0.6482,-0.6618,-0.6741,-0.6868,-0.6868,-0.6854,-0.6735,-0.6379,-0.5821,-0.5585,-0.5243,-0.4808,-0.4692,-0.4625,-0.4625,-0.4629,-0.4629,-0.4515,-0.4522,-0.446,-0.4288,-0.422,-0.4113,-0.4064,-0.4039,-0.3987,-0.3846,-0.4443,-0.5634,-0.7256,-0.7422,-0.7469,-0.7475,-0.7475,-0.7415,-0.7394,-0.7084,-0.6907,-0.6771,-0.6488,-0.6152,-0.5803,-0.5662,-0.53,-0.4577,-0.454,-0.4045,-0.296,-0.2642,-0.2332,-0.1776,-0.1429,-0.1229,-0.1115,-0.08,-0.0784,-0.1118,-0.1174,-0.1062,-0.1006,-0.0784,-0.0615,-0.0389,-0.0447,-0.0335,0.0,0.0,0.0,0.0223,0.0556,0.0894,0.0896,0.1231,0.1567,0.1621,0.1788,0.1955,0.2014,0.2068,0.2178,0.1944,0.1328,0.0442,0.011,0.0443,0.0605,0.0276,0.0995,0.1374,0.1368,0.1755,0.238,0.1971,0.2321,0.2386,0.2393,0.2681,0.2847,0.2959,0.3236,0.3564,0.434,0.5222,0.5609,-0.7249,-0.7246,-0.7173,-0.6678,-0.6004,-0.5645,-0.5345,-0.5002,-0.507,-0.5183,-0.5382,-0.5521,-0.5769,-0.6013,-0.5815,-0.5749,-0.5738,-0.5645,-0.5508,-0.5238,-0.4968,-0.471,-0.45,-0.4219,-0.4151,-0.4079,-0.4073,-0.3965,-0.3697,-0.3478,-0.3369,-0.3365,-0.3134,-0.296,-0.2901,-0.296,-0.296,-0.2844,-0.3254,-0.3951,-0.4735,-0.5345,-0.5806,-0.6032,-0.581,-0.5846,-0.6125,-0.5989,-0.5909,-0.5804,-0.5594,-0.5255,-0.4836,-0.444,-0.3991,-0.3568,-0.3207,-0.2733,-0.2027,-0.1898,-0.1518,-0.0759,-0.0492,-0.0302,-0.006,0.0419,0.0527,0.0282,0.0056,0.0,0.0056,0.0168,0.028,0.0336,0.028,0.0337,0.0449,0.0449,0.0561,0.0897,0.1289,0.1625,0.1905,0.2183,0.2347,0.2402,0.2569,0.2681,0.2685,0.2796,0.2907,0.2907,0.2517,0.2181,0.173,0.1788,0.19,0.1845,0.2124,0.2402,0.2514,0.2676,0.3065,0.3236,0.3403,0.3458,0.3234,0.4012,0.4457,0.4343,0.467,0.5214,0.571,0.6105,0.6213,-0.6318,-0.6314,-0.6196,-0.5682,-0.4983,-0.4782,-0.4448,-0.4092,-0.4299,-0.449,-0.4704,-0.4553,-0.4749,-0.5132,-0.5125,-0.5087,-0.5008,-0.4977,-0.48,-0.4592,-0.4284,-0.4119,-0.3914,-0.3631,-0.346,-0.3397,-0.3395,-0.3218,-0.2824,-0.2589,-0.2472,-0.2516,-0.2156,-0.1973,-0.1974,-0.1973,-0.1974,-0.2034,-0.2339,-0.2593,-0.2784,-0.3401,-0.4094,-0.455,-0.4278,-0.4309,-0.4752,-0.4645,-0.4615,-0.4584,-0.4426,-0.4061,-0.3675,-0.3082,-0.2683,-0.2485,-0.2014,-0.153,-0.1109,-0.1042,-0.0649,0.0064,0.0378,0.0559,0.0804,0.1173,0.1271,0.1224,0.1152,0.1034,0.0898,0.1075,0.1193,0.1137,0.1143,0.1208,0.121,0.1144,0.1309,0.1647,0.1971,0.2348,0.2796,0.3019,0.3128,0.3128,0.3239,0.3239,0.3292,0.3516,0.363,0.3574,0.3741,0.3519,0.313,0.2907,0.2963,0.3019,0.3074,0.3294,0.3461,0.3569,0.3788,0.407,0.4291,0.4457,0.4453,0.5171,0.5723,0.5664,0.5932,0.648,0.6701,0.6761,0.6977,-0.4763,-0.4753,-0.4498,-0.438,-0.4281,-0.4035,-0.3921,-0.3776,-0.3557,-0.3851,-0.4302,-0.3708,-0.3559,-0.4111,-0.4683,-0.4894,-0.4628,-0.4683,-0.427,-0.3595,-0.3505,-0.3206,-0.2695,-0.2559,-0.2456,-0.2436,-0.2372,-0.2319,-0.2205,-0.2026,-0.1846,-0.1789,-0.161,-0.1484,-0.1427,-0.1367,-0.1238,-0.1367,-0.1738,-0.1939,-0.1857,-0.2053,-0.2433,-0.2928,-0.309,-0.314,-0.3138,-0.2969,-0.2857,-0.2802,-0.2669,-0.241,-0.2079,-0.181,-0.1543,-0.121,-0.0941,-0.0604,-0.0134,0.0134,0.0464,0.0907,0.1223,0.1271,0.1306,0.1552,0.1666,0.153,0.189,0.1857,0.1487,0.1737,0.1819,0.1704,0.2162,0.2306,0.2252,0.2181,0.2347,0.2555,0.2782,0.319,0.3799,0.4079,0.4095,0.415,0.4366,0.4539,0.4487,0.4639,0.4695,0.468,0.468,0.446,0.3635,0.3522,0.3524,0.3633,0.3959,0.4177,0.4346,0.457,0.4736,0.4901,0.5011,0.523,0.5555,0.5937,0.6258,0.6475,0.674,0.7128,0.7408,0.7461,0.7622,-0.4318,-0.4309,-0.421,-0.3982,-0.3697,-0.3589,-0.3354,-0.2982,-0.2982,-0.3086,-0.3345,-0.3158,-0.3211,-0.3352,-0.3593,-0.3572,-0.3449,-0.3511,-0.3277,-0.2824,-0.2659,-0.2427,-0.2061,-0.1592,-0.1316,-0.1234,-0.0985,-0.112,-0.152,-0.1268,-0.1344,-0.1693,-0.15,-0.1305,-0.1305,-0.1175,-0.1109,-0.1175,-0.1305,-0.1377,-0.1322,-0.126,-0.1366,-0.1568,-0.2053,-0.2323,-0.2342,-0.2343,-0.2173,-0.1897,-0.186,-0.1744,-0.141,-0.0873,-0.0269,0.0202,0.0403,0.0672,0.1275,0.1409,0.1737,0.2315,0.2576,0.261,0.2558,0.2763,0.2887,0.2805,0.2947,0.2977,0.2777,0.2587,0.236,0.2359,0.2462,0.2638,0.2552,0.2555,0.2732,0.3069,0.3487,0.3968,0.4278,0.4548,0.4716,0.473,0.498,0.5104,0.503,0.5121,0.5204,0.51,0.5014,0.4904,0.4743,0.4574,0.4519,0.4684,0.4901,0.5011,0.5175,0.5289,0.5458,0.5563,0.5727,0.5941,0.6263,0.6799,0.7122,0.7498,0.7771,0.7771,0.8049,0.8049,0.8262,-0.343,-0.3399,-0.3429,-0.3203,-0.2986,-0.2983,-0.2754,-0.2372,-0.2448,-0.2627,-0.281,-0.2777,-0.2679,-0.2519,-0.2406,-0.2133,-0.1935,-0.2188,-0.208,-0.1637,-0.1554,-0.1398,-0.1179,-0.0849,-0.0582,-0.0381,-0.0063,-0.0192,-0.0651,-0.0587,-0.0858,-0.1343,-0.1211,-0.1144,-0.1144,-0.101,-0.0874,-0.0807,-0.0875,-0.0874,-0.074,-0.074,-0.0669,-0.0725,-0.1133,-0.1394,-0.1419,-0.1455,-0.1333,-0.092,-0.093,-0.0671,-0.0134,0.0403,0.1008,0.1612,0.1813,0.208,0.2482,0.2616,0.2872,0.3313,0.3467,0.3579,0.3425,0.3694,0.3733,0.3717,0.3913,0.3995,0.3816,0.3542,0.3339,0.319,0.321,0.3297,0.3267,0.3268,0.3513,0.3837,0.4234,0.4565,0.4734,0.4933,0.51,0.5229,0.5393,0.546,0.5439,0.5467,0.5525,0.5361,0.5334,0.5464,0.5538,0.5504,0.5289,0.5344,0.5454,0.5677,0.5891,0.6005,0.6119,0.6228,0.644,0.6652,0.7079,0.7616,0.8043,0.8421,0.8421,0.8368,0.8533,0.8586,0.8844,-0.1992,-0.1959,-0.1869,-0.1845,-0.1888,-0.2041,-0.2117,-0.2033,-0.2113,-0.227,-0.2431,-0.227,-0.1874,-0.1641,-0.1399,-0.0847,-0.03,-0.0865,-0.0846,-0.014,-0.0137,-0.0135,-0.0134,-0.0335,-0.0201,0.0133,0.0268,0.0335,0.0268,-0.0067,-0.0268,-0.0403,-0.0673,-0.0741,-0.0741,-0.0539,-0.0337,-0.0202,-0.0336,-0.0337,-0.0067,-0.0269,-0.0337,-0.0269,-0.0269,-0.02,-0.0194,-0.0266,-0.0135,0.0269,0.047,0.0941,0.168,0.1947,0.235,0.282,0.3222,0.342,0.3485,0.3687,0.3779,0.3926,0.3838,0.4045,0.411,0.4159,0.4138,0.4251,0.4518,0.4728,0.4524,0.4779,0.4742,0.4341,0.4358,0.4487,0.4492,0.4541,0.4624,0.4671,0.4984,0.5204,0.5268,0.551,0.5699,0.5763,0.584,0.5896,0.5908,0.5879,0.5834,0.5756,0.5749,0.5832,0.616,0.6436,0.6109,0.5891,0.595,0.6114,0.6436,0.6598,0.6707,0.6815,0.7085,0.7348,0.7723,0.8256,0.8527,0.8798,0.885,0.8903,0.9054,0.9152,0.9361,-0.0942,-0.0935,-0.0418,-0.0328,-0.0563,-0.0723,-0.0875,-0.0941,-0.102,-0.1178,-0.1256,-0.1019,-0.0783,-0.0627,-0.0392,0.0312,0.1081,0.0899,0.0658,0.0359,0.035,0.0346,0.0482,0.061,0.0941,0.1412,0.1547,0.1412,0.101,0.0673,0.0403,0.0202,-0.0067,-0.0135,0.0067,0.0202,0.0269,0.0336,0.0269,0.0269,0.0538,0.0605,0.0672,0.0807,0.0942,0.1138,0.1394,0.0937,0.0875,0.1212,0.1747,0.235,0.2885,0.3017,0.322,0.3489,0.3754,0.402,0.4223,0.4553,0.474,0.497,0.5134,0.5269,0.5298,0.5256,0.5286,0.5289,0.5488,0.555,0.5749,0.6013,0.572,0.4769,0.4789,0.4951,0.5085,0.5116,0.5156,0.5236,0.5578,0.5759,0.5787,0.6149,0.6675,0.6604,0.6608,0.6657,0.6565,0.6283,0.5983,0.5815,0.6003,0.6225,0.6534,0.6905,0.7002,0.6783,0.6778,0.6732,0.6987,0.7139,0.73,0.7509,0.7729,0.8049,0.8474,0.8791,0.9054,0.9159,0.9159,0.9309,0.9517,0.9718,0.9925,-0.0525,-0.0347,0.0086,0.0252,0.0329,0.0082,-0.0081,-0.008,-0.0239,-0.0396,-0.0314,-0.0078,0.0157,0.047,0.0861,0.1488,0.219,0.2389,0.2127,0.1491,0.1297,0.1274,0.1401,0.1653,0.2062,0.2493,0.2498,0.2289,0.194,0.1525,0.1248,0.1109,0.0692,0.0624,0.0898,0.0892,0.0956,0.109,0.1014,0.1008,0.121,0.1277,0.1344,0.1412,0.1613,0.188,0.208,0.2013,0.2014,0.2218,0.2686,0.322,0.3754,0.3887,0.402,0.4287,0.4486,0.4749,0.4954,0.5219,0.5484,0.5686,0.5822,0.5954,0.5954,0.602,0.602,0.609,0.6284,0.642,0.6416,0.6675,0.6474,0.5745,0.5799,0.586,0.5962,0.6021,0.6096,0.6249,0.6586,0.663,0.6728,0.7091,0.7598,0.737,0.7404,0.7327,0.7179,0.6868,0.6615,0.6445,0.6607,0.6789,0.6846,0.7264,0.7796,0.7752,0.7698,0.7618,0.7668,0.7693,0.7788,0.8156,0.8474,0.8679,0.9047,0.9309,0.9517,0.951,0.9621,0.9984,1.0241,1.0293,1.0446,-0.0532,0.0087,0.0,0.043,0.0927,0.0505,0.0499,0.0489,0.0324,0.024,0.0315,0.0707,0.1099,0.1646,0.2037,0.2665,0.3288,0.3441,0.3354,0.316,0.2842,0.2536,0.2542,0.2528,0.2694,0.3033,0.3042,0.2901,0.2743,0.2309,0.2256,0.2097,0.1659,0.1451,0.1655,0.1632,0.1824,0.2097,0.1921,0.1902,0.2234,0.1959,0.1819,0.1884,0.2082,0.228,0.2547,0.3151,0.342,0.3224,0.3553,0.3954,0.4353,0.4556,0.4758,0.502,0.5418,0.5484,0.5617,0.5752,0.5888,0.5888,0.602,0.602,0.6284,0.6412,0.6544,0.6613,0.6942,0.7068,0.6811,0.7073,0.726,0.719,0.7098,0.7223,0.7363,0.7262,0.7234,0.7421,0.7757,0.7947,0.7698,0.804,0.8143,0.808,0.8054,0.7933,0.7817,0.7686,0.7524,0.7401,0.7325,0.7252,0.7307,0.8066,0.8472,0.8239,0.8312,0.849,0.8354,0.8359,0.8347,0.8705,0.9022,0.9278,0.951,0.9666,0.9976,1.019,1.0395,1.0761,1.0863,1.0913,1.1057,0.1428,0.1688,0.1957,0.211,0.2244,0.1982,0.1871,0.1831,0.1718,0.1622,0.1765,0.2055,0.2359,0.2741,0.3139,0.3606,0.3923,0.4075,0.4075,0.3915,0.3647,0.3302,0.3125,0.2957,0.304,0.3212,0.3149,0.2987,0.2985,0.2631,0.2555,0.2767,0.2411,0.226,0.2542,0.2605,0.2669,0.281,0.2867,0.2891,0.3053,0.3113,0.3219,0.3362,0.3355,0.3556,0.3954,0.4556,0.4891,0.4827,0.4824,0.509,0.5355,0.5345,0.5342,0.5484,0.5686,0.5752,0.5749,0.6017,0.6218,0.6214,0.6609,0.6872,0.6937,0.733,0.7526,0.7591,0.7727,0.7852,0.7912,0.8177,0.8501,0.8818,0.8231,0.7772,0.7887,0.7926,0.7981,0.8221,0.8683,0.8742,0.8645,0.888,0.9125,0.9005,0.8833,0.8659,0.8589,0.8406,0.8212,0.8028,0.7902,0.7831,0.8038,0.8795,0.9052,0.8658,0.8883,0.9442,0.9296,0.917,0.9086,0.913,0.9408,0.9671,0.9807,0.9969,1.0336,1.0761,1.0913,1.1124,1.1368,1.1469,1.1719,0.206,0.2329,0.2423,0.2586,0.2823,0.2555,0.2611,0.2644,0.2525,0.2661,0.2799,0.3091,0.3311,0.3549,0.3918,0.4218,0.4453,0.4487,0.4465,0.4309,0.4146,0.3776,0.3467,0.3207,0.3348,0.3609,0.3533,0.3537,0.3612,0.3379,0.3381,0.339,0.3231,0.3142,0.3185,0.3254,0.3308,0.3356,0.3421,0.3524,0.3648,0.3779,0.3858,0.4053,0.4161,0.4561,0.5017,0.5301,0.5487,0.5526,0.5567,0.5618,0.5877,0.5679,0.5614,0.5738,0.5885,0.5951,0.6017,0.6412,0.6679,0.6741,0.7204,0.7466,0.7591,0.7852,0.7982,0.8047,0.8242,0.8376,0.8501,0.8765,0.9151,0.9338,0.9011,0.8683,0.8807,0.8941,0.9011,0.921,0.953,0.9722,0.9384,0.9819,0.9893,0.9818,0.9686,0.9576,0.9443,0.9201,0.8942,0.8792,0.8707,0.867,0.8663,0.9227,0.9552,0.9227,0.9398,0.9974,0.9904,0.9763,0.9764,0.9715,0.9842,1.0031,1.0244,1.0533,1.0956,1.1267,1.1377,1.1528,1.1828,1.1927,1.2224,0.2061,0.2598,0.2152,0.2333,0.2869,0.2691,0.2837,0.3054,0.3033,0.317,0.3461,0.3783,0.3995,0.4185,0.4475,0.4693,0.4836,0.4739,0.4709,0.4623,0.4462,0.413,0.3728,0.3595,0.3757,0.4037,0.4073,0.4062,0.4039,0.4206,0.4142,0.3971,0.3902,0.3872,0.3656,0.364,0.3747,0.3849,0.3921,0.3946,0.4072,0.4177,0.4319,0.4422,0.477,0.516,0.546,0.5585,0.5689,0.5951,0.5713,0.5717,0.5886,0.5732,0.58,0.5982,0.621,0.6342,0.6408,0.6937,0.7269,0.733,0.7792,0.8052,0.8117,0.8247,0.8371,0.8436,0.87,0.8835,0.8835,0.9081,0.9402,0.9594,0.9786,0.9983,1.0047,1.0047,1.0047,1.0117,1.0371,1.0498,1.0548,1.0571,1.0608,1.0374,1.0294,1.0174,1.0114,1.0012,0.9873,0.9662,0.9615,0.9606,0.9586,0.9652,0.9785,0.982,1.0042,1.0372,1.0264,1.0196,1.0287,1.0391,1.0381,1.0645,1.1048,1.1368,1.1578,1.1728,1.1828,1.2076,1.2274,1.2323,1.2471,0.3408,0.3317,0.3048,0.2959,0.3138,0.3048,0.322,0.3467,0.376,0.3898,0.4124,0.4404,0.4585,0.4757,0.4814,0.4906,0.5001,0.4956,0.4859,0.4701,0.4465,0.4384,0.4226,0.4119,0.4208,0.4307,0.4155,0.4077,0.3997,0.3995,0.3919,0.3919,0.3919,0.3908,0.3962,0.3949,0.4115,0.4241,0.4387,0.4475,0.4588,0.4723,0.4915,0.5205,0.5497,0.5763,0.6013,0.6117,0.6248,0.6201,0.5955,0.5962,0.6185,0.5989,0.6113,0.6494,0.6666,0.6859,0.719,0.7521,0.7787,0.7857,0.8333,0.8635,0.8641,0.8981,0.9104,0.9221,0.9285,0.935,0.9478,0.967,0.9856,0.9983,1.0238,1.0428,1.0434,1.0301,1.0364,1.0555,1.0681,1.0807,1.0856,1.0733,1.0759,1.0822,1.0801,1.0718,1.0746,1.0739,1.0601,1.0393,1.0299,1.0276,1.0343,1.0428,1.058,1.0703,1.0927,1.1174,1.1048,1.0926,1.1129,1.1006,1.0818,1.1192,1.1663,1.1628,1.1728,1.2026,1.2283,1.2323,1.2421,1.2569,1.2821,0.3857,0.3676,0.3496,0.3406,0.3406,0.3406,0.3585,0.3935,0.4162,0.4401,0.4655,0.4865,0.5047,0.5025,0.5133,0.5133,0.5105,0.504,0.494,0.4859,0.4701,0.4701,0.4623,0.4543,0.4465,0.4384,0.4309,0.4153,0.4073,0.4075,0.4075,0.3921,0.3921,0.3887,0.3872,0.4053,0.4199,0.4402,0.4673,0.4873,0.4908,0.514,0.5475,0.5906,0.6097,0.6202,0.6408,0.6546,0.6677,0.6694,0.6532,0.648,0.6569,0.651,0.6634,0.7093,0.7326,0.7456,0.7787,0.8112,0.8376,0.8382,0.893,0.9254,0.9336,0.9533,0.967,0.9699,0.9697,0.974,0.9862,1.0053,1.0174,1.0301,1.0498,1.0624,1.0688,1.0618,1.0618,1.0807,1.0933,1.1059,1.11,1.1027,1.1041,1.1107,1.1238,1.1167,1.1043,1.103,1.1009,1.0897,1.0944,1.0952,1.1041,1.1195,1.1567,1.1703,1.1856,1.2195,1.2405,1.221,1.2061,1.1818,1.1498,1.1734,1.2095,1.1991,1.2013,1.2243,1.244,1.248,1.2635,1.2899,1.3193,0.3946,0.3857,0.3676,0.3676,0.3676,0.3676,0.4032,0.4389,0.4478,0.4732,0.5008,0.5282,0.5352,0.5251,0.5317,0.5292,0.5156,0.5069,0.5018,0.494,0.494,0.494,0.4937,0.4781,0.4621,0.4384,0.4309,0.4307,0.4229,0.4307,0.4075,0.4077,0.4079,0.3969,0.3842,0.4024,0.4283,0.454,0.4815,0.5126,0.5255,0.5507,0.5928,0.65,0.6806,0.6894,0.7035,0.7202,0.7335,0.7414,0.7578,0.7506,0.7316,0.7104,0.7335,0.7811,0.8022,0.8177,0.8306,0.8635,0.8899,0.891,0.9449,0.9844,0.9856,0.9838,0.9832,0.9826,0.9854,0.9924,1.0091,1.0303,1.0431,1.0509,1.0617,1.0749,1.0798,1.0841,1.0863,1.0926,1.1122,1.124,1.1365,1.1363,1.1406,1.1428,1.1553,1.1622,1.149,1.1476,1.1509,1.1742,1.1813,1.1974,1.2095,1.2167,1.2484,1.2616,1.2811,1.3068,1.3366,1.3192,1.2876,1.252,1.2351,1.2563,1.2604,1.2535,1.2579,1.2624,1.2733,1.2849,1.3055,1.3262,1.359,0.4123,0.3857,0.3857,0.3946,0.4121,0.4208,0.4476,0.4832,0.5102,0.5282,0.5369,0.5547,0.56,0.5442,0.5385,0.5249,0.5179,0.5034,0.5023,0.5026,0.5023,0.5018,0.5018,0.4937,0.4701,0.4465,0.4309,0.4153,0.3997,0.3919,0.3997,0.3921,0.3921,0.3977,0.4203,0.4377,0.4535,0.4889,0.5226,0.5449,0.5723,0.6019,0.6508,0.7153,0.7641,0.7892,0.7936,0.8289,0.849,0.829,0.8575,0.8717,0.8659,0.8057,0.806,0.8498,0.8663,0.87,0.8958,0.9215,0.935,0.9473,0.9724,0.9868,0.9886,0.9892,0.9989,0.9983,0.9993,1.0114,1.0689,1.0717,1.0863,1.1056,1.1088,1.1077,1.1108,1.1149,1.1192,1.124,1.1303,1.1365,1.1428,1.156,1.1553,1.1553,1.1677,1.1926,1.205,1.2104,1.2282,1.252,1.2757,1.2992,1.3168,1.3293,1.3477,1.348,1.3579,1.3635,1.3853,1.3847,1.3618,1.3418,1.3176,1.3109,1.3132,1.3144,1.3195,1.3348,1.3299,1.3291,1.3509,1.3749,1.41,0.4302,0.4304,0.4304,0.448,0.4654,0.4654,0.4919,0.5364,0.5455,0.5725,0.5968,0.618,0.6224,0.6056,0.5949,0.5684,0.536,0.5037,0.5053,0.508,0.505,0.5018,0.5018,0.4937,0.4779,0.4543,0.4309,0.4075,0.3841,0.3921,0.3921,0.3999,0.4077,0.4229,0.4382,0.4613,0.4929,0.5321,0.586,0.6247,0.656,0.6999,0.7522,0.7899,0.8288,0.848,0.8553,0.9023,0.9232,0.9151,0.9425,0.9757,0.9776,0.9502,0.9064,0.9287,0.9259,0.9227,0.9414,0.9478,0.9478,0.9514,0.973,0.9934,1.0036,1.0152,1.0189,1.0368,1.0552,1.0715,1.1109,1.1086,1.1174,1.1261,1.1303,1.1286,1.1321,1.1425,1.1493,1.149,1.1575,1.1575,1.156,1.1622,1.1622,1.1747,1.1872,1.2182,1.2552,1.272,1.2842,1.3147,1.3442,1.3623,1.3863,1.4119,1.42,1.4268,1.4383,1.4447,1.4586,1.4668,1.4631,1.4434,1.4237,1.3926,1.3932,1.3985,1.3985,1.3985,1.4007,1.4029,1.4061,1.4222,1.4641,0.4569,0.4748,0.4748,0.4924,0.5099,0.5097,0.5364,0.5808,0.6074,0.634,0.6587,0.698,0.7027,0.6885,0.6569,0.6134,0.5553,0.5204,0.5143,0.5176,0.5056,0.5018,0.494,0.4859,0.4779,0.4701,0.4543,0.4231,0.3999,0.4077,0.4157,0.4233,0.4387,0.4618,0.4771,0.5234,0.5544,0.6009,0.663,0.7173,0.771,0.8169,0.8556,0.8627,0.8916,0.9097,0.914,0.9675,0.9859,0.9961,1.0208,1.0527,1.0719,1.055,1.0315,0.9968,0.9784,0.9628,0.9502,0.9574,0.9598,0.9616,0.9814,1.0065,1.0297,1.0414,1.0516,1.0805,1.0831,1.1112,1.1408,1.1456,1.1579,1.1702,1.1621,1.1459,1.1659,1.1746,1.1729,1.1755,1.1792,1.1862,1.1854,1.2077,1.2233,1.2274,1.2399,1.2739,1.3099,1.3216,1.339,1.3752,1.3992,1.424,1.4419,1.4715,1.4809,1.4888,1.5042,1.5194,1.5377,1.5628,1.5465,1.525,1.5224,1.4968,1.4945,1.475,1.4697,1.4643,1.474,1.4659,1.4498,1.4765,1.5242,0.4746,0.501,0.5008,0.5186,0.563,0.5719,0.5897,0.6428,0.7044,0.7312,0.7478,0.7838,0.8082,0.7879,0.7141,0.6407,0.5771,0.5344,0.5268,0.5303,0.5115,0.5096,0.5018,0.5018,0.5015,0.5012,0.4854,0.4467,0.4389,0.4465,0.4309,0.4387,0.4929,0.5315,0.5544,0.6005,0.6619,0.7011,0.7326,0.7787,0.8322,0.878,0.9084,0.9377,0.9788,1.0063,0.9946,1.0396,1.0639,1.0569,1.0815,1.1009,1.1027,1.0961,1.091,1.071,1.0432,0.997,0.9711,0.9741,0.9814,0.9844,1.0061,1.0381,1.059,1.0707,1.069,1.0585,1.0603,1.1002,1.1666,1.1708,1.2018,1.2199,1.2228,1.218,1.2224,1.197,1.1959,1.2103,1.2204,1.2282,1.2289,1.2617,1.2854,1.2877,1.2921,1.3322,1.3631,1.3795,1.3992,1.43,1.4478,1.4666,1.4843,1.5137,1.5196,1.5362,1.5546,1.573,1.5846,1.5961,1.6134,1.5966,1.5941,1.5751,1.5491,1.5324,1.5259,1.5314,1.5369,1.5124,1.4818,1.5221,1.5797,0.5366,0.5453,0.5633,0.6163,0.6694,0.7048,0.7401,0.7834,0.8189,0.8452,0.8674,0.8858,0.8756,0.8242,0.7633,0.6839,0.5975,0.552,0.537,0.5471,0.537,0.5329,0.5485,0.5715,0.5867,0.5786,0.586,0.5931,0.547,0.5087,0.4851,0.5085,0.5705,0.6244,0.6472,0.6934,0.7472,0.8008,0.8699,0.9231,0.9533,0.976,0.9911,0.9992,1.0438,1.0519,1.0633,1.0804,1.1069,1.096,1.1075,1.1105,1.1093,1.1064,1.0967,1.0857,1.0918,1.0588,1.0055,1.0049,1.0,1.0023,1.019,1.061,1.0941,1.124,1.1301,1.1326,1.1325,1.1585,1.2018,1.2088,1.2444,1.2663,1.2742,1.2608,1.2542,1.2254,1.215,1.2382,1.2656,1.29,1.3171,1.3598,1.3743,1.3534,1.3684,1.4066,1.4309,1.4506,1.4725,1.4902,1.5029,1.5088,1.5196,1.5371,1.5362,1.5478,1.5672,1.5856,1.5904,1.6029,1.6202,1.6316,1.6203,1.6033,1.5884,1.592,1.5869,1.5955,1.5997,1.5794,1.5577,1.5818,1.6318,0.6163,0.6248,0.6517,0.7048,0.7661,0.8105,0.8544,0.8978,0.924,0.9497,0.9808,0.9843,0.94,0.8626,0.8116,0.7315,0.6529,0.5775,0.5692,0.5778,0.5741,0.583,0.6035,0.6483,0.6637,0.6714,0.6633,0.6659,0.6613,0.6379,0.6139,0.6012,0.663,0.7092,0.7476,0.7859,0.8322,0.9008,0.9765,1.0143,1.0368,1.0438,1.0438,1.0519,1.0669,1.0812,1.0812,1.0962,1.1105,1.1099,1.1099,1.1117,1.1105,1.1149,1.1156,1.1052,1.1261,1.1147,1.0667,1.0448,1.0236,1.0233,1.0432,1.0943,1.1281,1.1794,1.1992,1.183,1.1893,1.213,1.241,1.2494,1.2806,1.3014,1.3162,1.3001,1.2848,1.2902,1.2979,1.3251,1.3617,1.405,1.4309,1.4703,1.4658,1.4285,1.4417,1.4771,1.4874,1.5018,1.5088,1.5205,1.5254,1.5254,1.5371,1.5488,1.5536,1.5624,1.5808,1.5972,1.6087,1.6144,1.6249,1.6363,1.6374,1.6322,1.6151,1.6291,1.6467,1.6327,1.6275,1.6451,1.6543,1.6637,1.6673,0.7485,0.7654,0.7489,0.7658,0.7921,0.854,0.8978,0.941,1.0111,1.0463,1.0549,1.0499,1.0253,0.9664,0.8595,0.7856,0.7417,0.6423,0.6342,0.6344,0.6371,0.6476,0.6738,0.6932,0.7053,0.7042,0.7316,0.7473,0.745,0.7786,0.7383,0.7042,0.7687,0.8034,0.8408,0.8894,0.9261,0.9803,1.0355,1.0587,1.0645,1.0634,1.064,1.0634,1.0767,1.0812,1.0824,1.101,1.1172,1.1172,1.1129,1.1117,1.1111,1.1186,1.1211,1.1286,1.1434,1.1411,1.1101,1.0931,1.0727,1.0683,1.0891,1.1346,1.1716,1.1832,1.1962,1.2155,1.2221,1.2402,1.2649,1.2975,1.3241,1.3588,1.3821,1.3832,1.3854,1.3963,1.4048,1.4196,1.444,1.472,1.5151,1.5455,1.5433,1.5009,1.4953,1.5287,1.5213,1.5292,1.5283,1.5313,1.5362,1.5362,1.543,1.5517,1.5664,1.5781,1.5898,1.608,1.6212,1.6316,1.6316,1.6363,1.6374,1.6374,1.642,1.6534,1.6534,1.6477,1.6534,1.6648,1.6761,1.6807,1.692,0.8163,0.8962,0.9117,0.924,0.941,0.9951,1.0299,1.0554,1.1079,1.1343,1.1429,1.1144,1.0549,0.9853,0.9224,0.8266,0.7454,0.7105,0.698,0.6955,0.6919,0.7219,0.7568,0.7928,0.8162,0.809,0.837,0.8541,0.8695,0.8983,0.9171,0.9082,0.889,0.8961,0.9321,0.974,1.0198,1.0498,1.0941,1.1307,1.1153,1.1153,1.1218,1.1366,1.1183,1.1325,1.1409,1.136,1.1318,1.1329,1.1208,1.116,1.1129,1.1198,1.1273,1.1267,1.1558,1.1573,1.1441,1.134,1.1294,1.1362,1.1471,1.1744,1.2096,1.2335,1.2449,1.2551,1.2564,1.2796,1.3042,1.3522,1.3894,1.4269,1.4474,1.4645,1.473,1.4782,1.4829,1.4811,1.4911,1.5116,1.5637,1.6098,1.5993,1.5814,1.577,1.5718,1.5578,1.5507,1.5517,1.5478,1.5537,1.5576,1.5596,1.5704,1.5831,1.6009,1.6107,1.6242,1.6386,1.6327,1.6374,1.6374,1.6431,1.6431,1.6477,1.6648,1.6648,1.6591,1.6637,1.6807,1.6864,1.6987,1.7032,0.8878,0.9785,1.027,1.042,1.0552,1.1034,1.1354,1.1527,1.178,1.1952,1.2037,1.1322,1.0732,1.0179,0.9549,0.9083,0.8312,0.8026,0.7807,0.7859,0.7923,0.8143,0.8444,0.8724,0.8891,0.9091,0.9389,0.9565,0.9746,1.0106,1.0136,1.0182,1.0085,0.9963,0.9906,1.0479,1.0887,1.1018,1.1379,1.1805,1.1624,1.1486,1.157,1.175,1.1636,1.1636,1.1708,1.1703,1.151,1.1522,1.1419,1.128,1.1283,1.1241,1.1253,1.1366,1.1539,1.1678,1.1604,1.1527,1.168,1.168,1.1796,1.2107,1.2569,1.2837,1.2905,1.3006,1.3091,1.3368,1.358,1.405,1.452,1.4816,1.533,1.5479,1.5437,1.541,1.5405,1.538,1.5579,1.5891,1.6048,1.6478,1.6337,1.6147,1.6011,1.5889,1.5792,1.571,1.5742,1.5713,1.5703,1.5762,1.582,1.6086,1.6394,1.6445,1.6507,1.6447,1.6534,1.6496,1.6405,1.6374,1.6431,1.6477,1.6534,1.6705,1.6694,1.6694,1.6807,1.692,1.7032,1.7155,1.7222,0.9781,1.0299,1.0472,1.0665,1.0987,1.144,1.1699,1.178,1.2112,1.2192,1.2112,1.0809,1.0641,1.0869,0.988,0.942,0.9588,0.907,0.8927,0.8972,0.8861,0.9016,0.9193,0.9398,0.9495,0.9668,0.9809,1.0171,1.0575,1.0622,1.081,1.0877,1.0704,1.0568,1.0315,1.0668,1.0901,1.0973,1.1295,1.1551,1.1654,1.1462,1.154,1.1682,1.1665,1.1647,1.1792,1.1732,1.16,1.1552,1.16,1.1508,1.139,1.1544,1.1601,1.1651,1.1861,1.199,1.1957,1.1616,1.1623,1.1859,1.2045,1.2381,1.2764,1.3071,1.3331,1.3497,1.3693,1.3954,1.425,1.4689,1.5158,1.5631,1.6111,1.6307,1.628,1.6298,1.6356,1.6282,1.6537,1.689,1.6802,1.6844,1.6701,1.6541,1.6318,1.616,1.5999,1.595,1.5943,1.5933,1.5933,1.6072,1.6208,1.6668,1.6888,1.6931,1.6907,1.6789,1.6717,1.666,1.6591,1.6436,1.6477,1.6591,1.6648,1.6694,1.6751,1.6797,1.6853,1.6976,1.7155,1.7289,1.7266,0.9596,1.0312,1.0265,1.0411,1.0736,1.0567,1.0819,1.1246,1.1419,1.1585,1.1671,1.0636,1.0294,1.0381,1.0207,0.9772,0.9772,1.0115,0.9861,0.9675,0.9565,0.9728,0.9819,0.9846,0.9897,1.0026,1.0149,1.0406,1.0632,1.0948,1.1043,1.1209,1.1025,1.0806,1.0644,1.0656,1.0684,1.0753,1.108,1.1294,1.1201,1.121,1.1263,1.1502,1.1385,1.1464,1.1656,1.1573,1.1504,1.145,1.151,1.1435,1.1378,1.1583,1.1608,1.1719,1.1935,1.2083,1.2144,1.2084,1.2031,1.2128,1.2352,1.2707,1.3165,1.3613,1.3905,1.4137,1.4289,1.4584,1.5057,1.5744,1.6208,1.6655,1.7066,1.718,1.7216,1.7461,1.7497,1.7297,1.7431,1.7312,1.7248,1.7092,1.6959,1.6812,1.6663,1.6534,1.6391,1.6208,1.6138,1.6191,1.6263,1.6384,1.6583,1.6914,1.7175,1.7189,1.7106,1.696,1.689,1.6866,1.6643,1.653,1.6612,1.6705,1.6751,1.6797,1.6909,1.6955,1.6909,1.7094,1.7394,1.7372,1.7262,0.9504,1.013,0.9925,1.0027,1.0377,1.0178,1.0381,1.0722,1.0641,1.0809,1.0982,1.0289,1.012,1.0207,1.0125,1.0217,1.0125,1.0294,1.0381,1.0207,1.0207,1.0178,1.0188,1.0202,1.01,1.0243,1.0444,1.0727,1.0804,1.1107,1.1241,1.1182,1.1106,1.0947,1.0756,1.0795,1.0695,1.0778,1.097,1.1107,1.1044,1.1015,1.1038,1.1169,1.1255,1.1215,1.1352,1.1368,1.13,1.1361,1.1348,1.1338,1.1427,1.1571,1.1708,1.1906,1.2009,1.2157,1.2218,1.2291,1.2225,1.2245,1.2618,1.3078,1.3585,1.3977,1.4274,1.4569,1.48,1.5129,1.5526,1.6254,1.661,1.6963,1.714,1.7225,1.7261,1.7388,1.7424,1.7316,1.7351,1.7315,1.7378,1.7348,1.7147,1.7097,1.695,1.6847,1.6797,1.659,1.6438,1.6493,1.6596,1.6737,1.6934,1.7086,1.7311,1.7437,1.7316,1.7223,1.7185,1.7164,1.6839,1.6597,1.6587,1.6612,1.6751,1.6853,1.6874,1.6818,1.6797,1.7091,1.7532,1.7478,1.7291,0.9519,0.9868,0.9437,0.9607,1.0125,1.0038,1.0207,1.0463,0.9946,0.9946,1.0294,0.9781,0.9864,1.0376,1.012,1.0386,1.0911,1.0727,1.0641,1.0646,1.0646,1.0386,1.0207,1.0033,1.0183,1.0366,1.0549,1.0804,1.0987,1.117,1.1262,1.123,1.1155,1.0982,1.0941,1.0876,1.0806,1.0651,1.0606,1.0835,1.0875,1.0931,1.0886,1.0971,1.109,1.1044,1.1135,1.1169,1.1155,1.1294,1.1419,1.1544,1.1758,1.1917,1.2123,1.2249,1.2238,1.2305,1.2305,1.2305,1.2305,1.2378,1.2959,1.3477,1.3833,1.4201,1.4489,1.4784,1.5086,1.5254,1.5606,1.5942,1.6225,1.6455,1.6634,1.6608,1.6546,1.6652,1.6679,1.6661,1.6661,1.6732,1.7008,1.7042,1.7238,1.7293,1.7245,1.7079,1.6968,1.69,1.6798,1.6864,1.6978,1.7159,1.7264,1.7359,1.7441,1.755,1.7526,1.7466,1.7439,1.7267,1.6964,1.6707,1.6535,1.653,1.6715,1.6726,1.6722,1.6701,1.6658,1.7184,1.7658,1.7453,1.7356,0.8915,0.8999,0.8828,0.8819,0.8811,0.8636,0.9074,0.9772,0.9859,1.0033,1.0294,0.9951,0.9864,1.012,1.0038,1.0381,1.0733,1.0992,1.0997,1.0916,1.0916,1.0564,1.0386,1.0212,1.0386,1.0559,1.0733,1.0906,1.117,1.1267,1.1267,1.1241,1.1252,1.1144,1.1025,1.0995,1.0713,1.0537,1.0429,1.0512,1.0622,1.06,1.0622,1.0644,1.066,1.0751,1.0772,1.0727,1.0795,1.1094,1.1164,1.1352,1.1714,1.1789,1.19,1.2257,1.2305,1.2305,1.2305,1.2305,1.2318,1.2405,1.2914,1.3484,1.392,1.4289,1.4649,1.4999,1.5229,1.5396,1.5711,1.6002,1.6223,1.6436,1.6597,1.6553,1.6509,1.6518,1.6527,1.6564,1.6555,1.6696,1.6874,1.6988,1.7202,1.7385,1.7458,1.7348,1.7352,1.726,1.7069,1.7118,1.7281,1.7434,1.7581,1.7678,1.7656,1.7698,1.7676,1.7567,1.7327,1.7124,1.6953,1.6757,1.6605,1.6576,1.6602,1.6686,1.6701,1.6582,1.654,1.7196,1.7675,1.7438,1.7727,0.8572,0.8568,0.8476,0.8296,0.8113,0.794,0.8468,0.9257,0.9257,0.9428,0.9777,0.934,0.9515,0.9951,0.9777,0.9951,1.0824,1.0819,1.0911,1.0911,1.1008,1.0743,1.0559,1.0467,1.0559,1.0646,1.0819,1.0911,1.1181,1.1267,1.1267,1.1267,1.1267,1.1262,1.1144,1.1009,1.0778,1.0519,1.0342,1.032,1.0358,1.0406,1.0385,1.0315,1.0304,1.0302,1.0338,1.0299,1.0599,1.0818,1.0893,1.126,1.1632,1.1861,1.2009,1.2305,1.2305,1.2305,1.2305,1.2305,1.2371,1.2486,1.2748,1.3352,1.3865,1.4317,1.4681,1.507,1.53,1.5564,1.5922,1.6211,1.6413,1.6534,1.6645,1.6683,1.6692,1.6701,1.6676,1.6616,1.6643,1.6777,1.6901,1.6988,1.7275,1.7633,1.788,1.7917,1.7889,1.7896,1.7544,1.7267,1.7546,1.7738,1.785,1.7823,1.7744,1.7767,1.7795,1.7584,1.7245,1.7175,1.7185,1.699,1.6693,1.6708,1.6646,1.6681,1.6665,1.656,1.6646,1.7204,1.7455,1.7164,1.7852,0.8568,0.848,0.8292,0.8116,0.794,0.7944,0.8384,0.8819,0.8384,0.8468,0.9082,0.84,0.8844,0.9437,0.9253,0.9602,1.0299,1.0559,1.0727,1.0733,1.0916,1.0829,1.0733,1.0733,1.0733,1.0824,1.0911,1.1003,1.1094,1.1181,1.1267,1.1267,1.1267,1.123,1.1187,1.1144,1.0966,1.0816,1.0708,1.0681,1.0589,1.0579,1.0525,1.0374,1.0288,1.0263,1.0079,1.0159,1.0321,1.0553,1.0895,1.1307,1.1708,1.2083,1.2231,1.2351,1.2371,1.2351,1.2358,1.2371,1.2512,1.2545,1.2587,1.3124,1.3652,1.4114,1.4513,1.5141,1.5443,1.5593,1.5845,1.5951,1.6117,1.6168,1.6223,1.6206,1.6206,1.6286,1.6385,1.636,1.6572,1.6643,1.6783,1.6878,1.722,1.7761,1.7972,1.8073,1.8239,1.8221,1.7989,1.7544,1.7773,1.7989,1.7868,1.7891,1.7783,1.7807,1.779,1.767,1.7322,1.7352,1.7513,1.7304,1.7011,1.6759,1.6688,1.6819,1.6931,1.684,1.6971,1.7236,1.7282,1.7099,1.7954,0.8032,0.812,0.8113,0.8201,0.8113,0.8376,0.8903,0.9515,0.8376,0.8468,0.9279,0.8852,0.867,0.8819,0.8723,0.9161,0.9694,1.0299,1.0467,1.0733,1.0916,1.0916,1.0733,1.0819,1.0819,1.0916,1.1008,1.1094,1.1181,1.1267,1.1267,1.1267,1.1267,1.1267,1.1267,1.123,1.1165,1.1042,1.1036,1.0885,1.0686,1.0509,1.0385,1.0423,1.0417,1.0279,1.0231,1.05,1.0775,1.1058,1.1648,1.2079,1.2279,1.2282,1.2325,1.2338,1.2505,1.2492,1.2492,1.2477,1.2636,1.2732,1.2788,1.3086,1.3454,1.3902,1.4441,1.5086,1.5497,1.5576,1.5664,1.5743,1.584,1.584,1.5874,1.5874,1.5865,1.5981,1.6114,1.6263,1.6465,1.6569,1.6657,1.6906,1.7195,1.7431,1.7559,1.7715,1.8064,1.8193,1.8397,1.8024,1.8057,1.8222,1.8081,1.79,1.7794,1.7733,1.7718,1.7526,1.7342,1.7422,1.7596,1.7541,1.7382,1.706,1.6971,1.7243,1.7296,1.7059,1.7161,1.7407,1.7461,1.7307,1.8233,0.7944,0.794,0.8113,0.8113,0.8113,0.846,0.8982,0.9174,0.8363,0.8355,0.8828,0.8375,0.8193,0.8372,0.846,0.8811,0.9432,1.0038,1.0467,1.0733,1.0916,1.1089,1.0997,1.0906,1.0997,1.1089,1.1094,1.1181,1.1267,1.1267,1.1267,1.1267,1.1267,1.1267,1.1267,1.1257,1.1295,1.1176,1.1214,1.1047,1.0783,1.0676,1.0562,1.0616,1.0492,1.0366,1.0556,1.0846,1.1117,1.14,1.1909,1.212,1.2248,1.2303,1.2457,1.2477,1.2563,1.2579,1.2593,1.2678,1.2843,1.2955,1.3121,1.3361,1.4314,1.4714,1.4405,1.4936,1.4585,1.4625,1.5232,1.5416,1.5846,1.5986,1.6246,1.6439,1.6336,1.6387,1.6602,1.6934,1.6973,1.6756,1.6888,1.6921,1.7202,1.7422,1.7495,1.7542,1.7844,1.8027,1.8249,1.8351,1.8288,1.8295,1.8193,1.7975,1.7804,1.7754,1.7674,1.7721,1.7632,1.7619,1.7599,1.7589,1.7484,1.7357,1.7357,1.753,1.7347,1.7044,1.7286,1.7556,1.7547,1.749,1.8061,0.7768,0.7852,0.8113,0.8113,0.8113,0.8464,0.8811,0.8915,0.8341,0.8061,0.8212,0.7588,0.7757,0.8105,0.8285,0.8899,0.9423,0.9859,1.0299,1.0733,1.1089,1.1176,1.1176,1.1267,1.1262,1.1262,1.1176,1.1267,1.1267,1.1267,1.1267,1.1267,1.1267,1.1267,1.1267,1.1246,1.1278,1.1171,1.1133,1.1085,1.1015,1.0966,1.0816,1.0708,1.0632,1.0599,1.0767,1.1073,1.1381,1.1739,1.2055,1.2189,1.2226,1.2325,1.2453,1.2536,1.268,1.2713,1.2792,1.279,1.3046,1.3292,1.348,1.4043,1.4931,1.5068,1.4767,1.4559,1.4286,1.4462,1.5073,1.5381,1.583,1.6209,1.6595,1.6833,1.6762,1.6724,1.7086,1.745,1.7306,1.7097,1.704,1.6985,1.7067,1.7295,1.7442,1.7606,1.7715,1.7734,1.7807,1.8,1.7989,1.8046,1.8157,1.7983,1.7687,1.7736,1.7707,1.7804,1.7891,1.7841,1.7693,1.7615,1.75,1.7556,1.7566,1.7625,1.7366,1.7145,1.7561,1.781,1.7536,1.7543,1.766,0.7231,0.758,0.8025,0.8464,0.8907,0.9082,0.9253,0.9253,0.832,0.7959,0.8032,0.794,0.7848,0.7933,0.7937,0.8464,0.9345,0.9689,1.0207,1.0646,1.1003,1.1176,1.1176,1.1176,1.1267,1.1176,1.1176,1.1181,1.1267,1.1267,1.1267,1.1267,1.1267,1.1267,1.1267,1.1251,1.123,1.1235,1.1235,1.115,1.1128,1.1031,1.0853,1.0772,1.0729,1.0805,1.0956,1.1373,1.1711,1.1993,1.2204,1.2289,1.2353,1.2361,1.2459,1.255,1.2771,1.2901,1.2991,1.3089,1.3402,1.3899,1.4121,1.4531,1.5189,1.5503,1.5366,1.5425,1.5288,1.5429,1.5831,1.5774,1.6038,1.6478,1.6824,1.6874,1.6862,1.7129,1.7393,1.7519,1.7415,1.726,1.714,1.6988,1.6808,1.6874,1.6776,1.692,1.6956,1.7099,1.7424,1.7488,1.7623,1.7768,1.7862,1.7735,1.752,1.7608,1.7676,1.7725,1.7862,1.794,1.7823,1.7764,1.7803,1.7842,1.7842,1.7754,1.7686,1.7642,1.7915,1.8061,1.774,1.7611,1.78]},{"header":{"parameterUnit":"m.s-1","parameterCategory":1,"la1":31.0,"la2":29.5877,"lo1":-88.7671,"lo2":-86.6584,"dy":0.0162,"dx":0.0185,"nx":115,"ny":88,"refTime":"2024-02-13T18:00:00:Z","depth":0,"parameterNumber":3,"parameterNumberName":"V-component_of_WINDS"},"data":[0.0,0.0,0.0,0.0,0.0,0.0,0.0,0.0,0.0,0.0,0.0,0.0,0.0,0.0,0.0,0.0,0.0,0.0,0.0,0.0,0.0,0.0,0.0,0.0,0.0,0.0,0.0,0.0,0.0,0.0,0.0,0.0,0.0,0.0,0.0,0.0,0.0,0.0,0.0,0.0,0.0,0.0,0.0,0.0,0.0,0.0,0.0,0.0,0.0,0.0,0.0,0.0,0.0,0.0,0.0,0.0,0.0,0.0,0.0,0.0,0.0,0.0,0.0,0.0,0.0,0.0,0.0,0.0,0.0,0.0,0.0,0.0,0.0,0.0,0.0,0.0,0.0,0.0,0.0,0.0,0.0,0.0,0.0,0.0,0.0,0.0,0.0,0.0,0.0,0.0,0.0,0.0,0.0,0.0,0.0,0.0,0.0,0.0,0.0,0.0,0.0,0.0,0.0,0.0,0.0,0.0,0.0,0.0,0.0,0.0,0.0,0.0,0.0,0.0,0.0,0.0,0.0,0.0,0.0,0.0,0.0,0.0,0.0,0.0,0.0,0.0,0.0,0.0,0.0,0.0,0.0,0.0,0.0,0.0,0.0,0.0,0.0,0.0,0.0,0.0,0.0,0.0,0.0,0.0,0.0,0.0,0.0,0.0,0.0,0.0,0.0,0.0,0.0,0.0,0.0,0.0,0.0,0.0,0.0,0.0,0.0,0.0,0.0,0.0,0.0,0.0,0.0,0.0,0.0,0.0,0.0,0.0,0.0,0.0,0.0,0.0,0.0,0.0,0.0,0.0,0.0,0.0,0.0,0.0,0.0,0.0,0.0,0.0,0.0,0.0,0.0,0.0,0.0,0.0,0.0,0.0,0.0,0.0,0.0,0.0,0.0,0.0,0.0,0.0,0.0,0.0,0.0,0.0,0.0,0.0,0.0,0.0,0.0,0.0,0.0,0.0,0.0,0.0,0.0,0.0,0.0,0.0,0.0,0.0,0.0,0.0,0.0,0.0,0.0,0.0,0.0,0.0,0.0,0.0,0.0,0.0,0.0,0.0,0.0,0.0,0.0,0.0,0.0,0.0,0.0,0.0,0.0,0.0,0.0,0.0,0.0,0.0,0.0,0.0,0.0,0.0,0.0,0.0,0.0,0.0,0.0,0.0,0.0,0.0,0.0,0.0,0.0,0.0,0.0,0.0,0.0,0.0,0.0,0.0,0.0,0.0,0.0,0.0,0.0,0.0,0.0,0.0,0.0,0.0,0.0,0.0,0.0,0.0,0.0,0.0,0.0,0.0,0.0,0.0,0.0,0.0,0.0,0.0,0.0,0.0,0.0,0.0,0.0,0.0,0.0,0.0,0.0,0.0,0.0,0.0,0.0,0.0,0.0,0.0,0.0,0.0,0.0,0.0,0.0,0.0,0.0,0.0,0.0,0.0,0.0,0.0,0.0,0.0,0.0,0.0,0.0,0.0,0.0,0.0,0.0,0.0,0.0,0.0,0.0,0.0,0.0,0.0,0.0,0.0,0.0,0.0,0.0,0.0,0.0,0.0,0.0,0.0,0.0,0.0,0.0,0.0,0.0,0.0,0.0,0.0,0.0,0.0,0.0,0.0,0.0,0.0,0.0,0.0,0.0,0.0,0.0,0.0,0.0,0.0,0.0,0.0,0.0,0.0,0.0,0.0,0.0,0.0,0.0,0.0,0.0,0.0,0.0,0.0,0.0,0.0,0.0,0.0,0.0,0.0,0.0,0.0,0.0,0.0,0.0,0.0,0.0,0.0,0.0,0.0,0.0,0.0,0.0,0.0,0.0,0.0,0.0,0.0,0.0,0.0,0.0,0.0,0.0,0.0,0.0,0.0,0.0,0.0,0.0,0.0,0.0,0.0,0.0,0.0,0.0,0.0,0.0,0.0,0.0,0.0,0.0,0.0,0.0,0.0,0.0,0.0,0.0,0.0,0.0,0.0,0.0,0.0,0.0,0.0,0.0,0.0,0.0,0.0,0.0,0.0,0.0,0.0,0.0,0.0,0.0,0.0,0.0,0.0,0.0,0.0,0.0,0.0,0.0,0.0,0.0,0.0,0.0,0.0,0.0,0.0,0.0,0.0,0.0,0.0,0.0,0.0,0.0,0.0,0.0,0.0,0.0,0.0,0.0,0.0,0.0,0.0,0.0,0.0,0.0,0.0,0.0,0.0,0.0,0.0,0.0,0.0,0.0,0.0,0.0,0.0,0.0,0.0,0.0,0.0,0.0,0.0,0.0,0.0,0.0,0.0,0.0,0.0,0.0,0.0,0.0,0.0,0.0,0.0,0.0,0.0,0.0,0.0,0.0,0.0,0.0,0.0,0.0,0.0,0.0,0.0,0.0,0.0,0.0,0.0,0.0,0.0,0.0,0.0,0.0,0.0,0.0,0.0,0.0,0.0,0.0,0.0,0.0,0.0,0.0,0.0,0.0,0.0,0.0,0.0,0.0,0.0,0.0,0.0,0.0,0.0,0.0,0.0,0.0,0.0,0.0,0.0,0.0,0.0,0.0,0.0,0.0,0.0,0.0,0.0,0.0,0.0,0.0,0.0,0.0,0.0,0.0,0.0,0.0,0.0,0.0,0.0,0.0,0.0,0.0,0.0,0.0,0.0,0.0,0.0,0.0,0.0,0.0,0.0,0.0,0.0,0.0,0.0,0.0,0.0,0.0,0.0,0.0,0.0,0.0,0.0,0.0,0.0,0.0,0.0,0.0,0.0,0.0,0.0,0.0,0.0,0.0,0.0,0.0,0.0,0.0,0.0,0.0,0.0,0.0,0.0,0.0,0.0,0.0,0.0,0.0,0.0,0.0,0.0,0.0,0.0,0.0,0.0,0.0,0.0,0.0,0.0,0.0,0.0,0.0,0.0,0.0,0.0,0.0,0.0,0.0,0.0,0.0,0.0,0.0,0.0,0.0,0.0,0.0,0.0,0.0,0.0,0.0,0.0,0.0,0.0,0.0,0.0,0.0,0.0,0.0,0.0,0.0,0.0,0.0,0.0,0.0,0.0,0.0,0.0,0.0,0.0,0.0,0.0,0.0,0.0,0.0,0.0,0.0,0.0,0.0,0.0,0.0,0.0,0.0,0.0,0.0,0.0,0.0,0.0,0.0,0.0,0.0,0.0,0.0,0.0,0.0,0.0,0.0,0.0,0.0,0.0,0.0,0.0,0.0,0.0,0.0,0.0,0.0,0.0,0.0,0.0,0.0,0.0,0.0,0.0,0.0,0.0,0.0,0.0,0.0,0.0,0.0,0.0,0.0,0.0,0.0,0.0,0.0,0.0,0.0,0.0,0.0,0.0,0.0,0.0,0.0,0.0,0.0,0.0,0.0,0.0,0.0,0.0,0.0,0.0,0.0,0.0,0.0,0.0,0.0,0.0,0.0,0.0,0.0,0.0,0.0,0.0,0.0,0.0,0.0,0.0,0.0,0.0,0.0,0.0,0.0,0.0,0.0,0.0,0.0,0.0,0.0,0.0,0.0,0.0,0.0,0.0,0.0,0.0,0.0,0.0,0.0,0.0,0.0,0.0,0.0,0.0,0.0,0.0,0.0,0.0,0.0,0.0,0.0,0.0,0.0,0.0,0.0,0.0,0.0,0.0,0.0,0.0,0.0,0.0,0.0,0.0,0.0,0.0,0.0,0.0,0.0,0.0,0.0,0.0,0.0,0.0,0.0,0.0,0.0,0.0,0.0,0.0,0.0,0.0,0.0,0.0,0.0,0.0,0.0,0.0,0.0,0.0,0.0,0.0,0.0,0.0,0.0,0.0,0.0,0.0,0.0,0.0,0.0,0.0,0.0,0.0,0.0,0.0,0.0,0.0,0.0,0.0,0.0,0.0,0.0,0.0,0.0,0.0,0.0,0.0,0.0,0.0,0.0,0.0,0.0,0.0,0.0,0.0,0.0,0.0,0.0,0.0,0.0,0.0,0.0,0.0,0.0,0.0,0.0,0.0,0.0,0.0,0.0,0.0,0.0,0.0,0.0,0.0,0.0,0.0,0.0,0.0,0.0,0.0,0.0,0.0,0.0,0.0,0.0,0.0,0.0,0.0,0.0,0.0,0.0,0.0,0.0,0.0,0.0,0.0,0.0,0.0,0.0,0.0,0.0,0.0,0.0,0.0,0.0,0.0,0.0,0.0,0.0,0.0,0.0,0.0,0.0,0.0,0.0,0.0,0.0,0.0,0.0,0.0,0.0,0.0,0.0,0.0,0.0,0.0,0.0,0.0,0.0,0.0,0.0,0.0,1.4214,0.0,0.0,0.0,0.0,0.0,0.0,0.0,0.0,0.0,0.0,0.0,0.0,0.0,0.0,0.0,0.0,0.0,0.0,0.0,0.0,0.0,0.0,0.0,0.0,0.0,0.0,0.0,0.0,0.0,0.0,0.0,0.0,0.0,0.0,0.0,0.0,0.0,0.0,0.0,0.0,0.0,0.0,0.0,0.0,0.0,0.0,0.0,0.0,0.0,0.0,0.0,0.0,0.0,0.0,0.0,0.0,0.0,0.0,0.0,0.0,0.0,0.0,0.0,0.0,0.0,0.0,0.0,0.0,0.0,0.0,0.0,0.0,0.0,0.0,0.0,0.0,0.0,0.0,0.0,0.0,0.0,0.0,0.0,0.0,0.0,0.0,0.0,0.0,0.0,0.0,0.0,0.0,0.0,0.0,0.0,0.0,0.0,0.0,0.0,0.0,0.0,0.0,0.0,0.0,0.0,0.0,0.0,0.0,0.0,0.0,1.3925,1.3947,1.4015,1.4109,1.4235,0.0,0.0,0.0,0.0,0.0,0.0,0.0,0.0,0.0,0.0,0.0,0.0,0.0,0.0,0.0,0.0,0.0,0.0,0.0,0.0,0.0,0.0,0.0,0.0,0.0,0.0,0.0,0.0,0.0,0.0,0.0,0.0,0.0,0.0,0.0,0.0,0.0,0.0,0.0,0.0,0.0,0.0,0.0,0.0,0.0,0.0,0.0,0.0,0.0,0.0,0.0,0.0,0.0,0.0,0.0,0.0,0.0,0.0,0.0,0.0,0.0,0.0,0.0,0.0,0.0,0.0,0.0,0.0,0.0,0.0,0.0,0.0,0.0,0.0,0.0,0.0,0.0,0.0,0.0,0.0,0.0,0.0,0.0,0.0,0.0,0.0,0.0,0.0,0.0,0.0,0.0,0.0,0.0,0.0,0.0,0.0,0.0,0.0,0.0,0.0,0.0,0.0,0.0,0.0,0.0,0.0,0.0,0.0,0.0,0.0,0.0,0.0,1.4047,1.4214,1.4372,0.0,0.0,0.0,0.0,0.0,0.0,0.0,0.0,0.0,0.0,0.0,0.0,0.0,0.0,0.0,0.0,0.0,0.0,0.0,0.0,0.0,0.0,0.0,0.0,0.0,0.0,0.0,0.0,0.0,0.0,0.0,0.0,0.0,0.0,0.0,0.0,0.0,0.0,0.0,0.0,0.0,0.0,0.0,0.0,0.0,0.0,0.0,0.0,0.0,0.0,0.0,0.0,0.0,0.0,0.0,0.0,0.0,0.0,0.0,0.0,0.0,0.0,0.0,0.0,0.0,0.0,0.0,0.0,0.0,0.0,0.0,0.0,0.0,0.0,0.0,0.0,0.0,0.0,0.0,0.0,0.0,0.0,0.0,0.0,0.0,0.0,0.0,0.0,0.0,0.0,0.0,0.0,0.0,0.0,0.0,0.0,0.0,0.0,0.0,0.0,0.0,0.0,0.0,0.0,0.0,0.0,0.0,0.0,0.0,0.0,1.3023,1.3458,1.3545,0.0,1.4529,0.0,0.0,0.0,0.0,0.0,0.0,0.0,0.0,0.0,0.0,0.0,0.0,0.0,0.0,0.0,0.0,0.0,0.0,0.0,0.0,0.0,0.0,0.0,0.0,0.0,0.0,0.0,0.0,0.0,0.0,0.0,0.0,0.0,0.0,0.0,0.0,0.0,0.0,0.0,0.0,0.0,0.0,0.0,0.0,0.0,0.0,0.0,0.0,0.0,0.0,0.0,0.0,0.0,0.0,0.0,0.0,0.0,0.0,0.0,0.0,0.0,0.0,0.0,0.0,0.0,0.0,0.0,0.0,0.0,0.0,0.0,0.0,0.0,0.0,0.0,0.0,0.0,0.0,0.0,0.0,0.0,0.0,0.0,0.0,0.0,0.0,0.0,0.0,0.0,0.0,0.0,0.0,0.0,0.0,0.0,0.0,0.0,0.0,0.0,0.0,0.0,0.0,0.0,0.0,0.0,0.0,0.0,0.0,0.0,0.0,1.2576,1.2877,1.3196,1.3666,0.0,0.0,0.0,0.0,0.0,0.0,0.0,0.0,0.0,0.0,0.0,0.0,0.0,0.0,0.0,0.0,0.0,0.0,0.0,0.0,0.0,0.0,0.0,0.0,0.0,0.0,0.0,0.0,0.0,0.0,0.0,0.0,0.0,0.0,0.0,0.0,0.0,0.0,0.0,0.0,0.0,0.0,0.0,0.0,0.0,0.0,0.0,0.0,0.0,0.0,0.0,0.0,0.0,0.0,0.0,0.0,0.0,0.0,0.0,0.0,0.0,0.0,0.0,0.0,0.0,0.0,0.0,0.0,0.0,0.0,0.0,0.0,0.0,0.0,0.0,0.0,0.0,0.0,0.0,0.0,0.0,0.0,0.0,0.0,0.0,0.0,0.0,0.0,0.0,0.0,0.0,0.0,0.0,0.0,0.0,0.0,0.0,0.0,0.0,0.0,0.0,0.0,0.0,0.0,0.0,0.0,0.0,0.0,0.0,0.0,1.1686,1.1724,1.2077,1.2609,1.3168,1.3672,0.0,0.0,0.0,0.0,0.0,0.0,0.0,0.0,0.0,0.0,0.0,0.0,0.0,0.0,0.0,0.0,0.0,0.0,0.0,0.0,0.0,0.0,0.0,0.0,0.0,0.0,0.0,0.0,0.0,0.0,0.0,0.0,0.0,0.0,0.0,0.0,0.0,0.0,0.0,0.0,0.0,0.0,0.0,0.0,0.0,0.0,0.0,0.0,0.0,0.0,0.0,0.0,0.0,0.0,0.0,0.0,0.0,0.0,0.0,0.0,0.0,0.0,0.0,0.0,0.0,0.0,0.0,0.0,0.0,0.0,0.0,0.0,0.0,0.0,0.0,0.0,0.0,0.0,0.0,0.0,0.0,0.0,0.0,0.0,0.0,0.0,0.0,0.0,0.0,0.0,0.0,0.0,0.0,0.0,0.0,0.0,0.0,0.0,0.0,0.0,0.0,0.0,0.0,0.0,0.0,0.0,0.0,0.0,1.1466,1.0517,1.0297,1.095,1.1605,1.2258,0.0,0.0,0.0,0.0,0.0,0.0,0.0,0.0,0.0,0.0,0.0,0.0,0.0,0.0,0.0,0.0,0.0,0.0,0.0,0.0,0.0,0.0,0.0,0.0,0.0,0.0,0.0,0.0,0.0,0.0,0.0,0.0,0.0,0.0,0.0,0.0,0.0,0.0,0.0,0.0,0.0,0.0,0.0,0.0,0.0,0.0,0.0,0.0,0.0,0.0,0.0,0.0,0.0,0.0,0.0,0.0,0.0,0.0,0.0,0.0,0.0,0.0,0.0,0.0,0.0,0.0,0.0,0.0,0.0,0.0,0.0,0.0,0.0,0.0,0.0,0.0,0.0,0.0,0.0,0.0,0.0,0.0,0.0,0.0,0.0,0.0,0.0,0.0,0.0,0.0,0.0,0.0,0.0,0.0,0.0,0.0,0.0,0.0,0.0,0.0,0.0,0.0,0.0,0.0,0.0,0.0,0.0,0.0,0.0,1.0401,0.955,0.9224,0.9606,1.0305,1.1011,0.0,0.0,0.0,0.0,0.0,0.0,0.0,0.0,0.0,0.0,0.0,0.0,0.0,0.0,0.0,0.0,0.0,0.0,0.0,0.0,0.0,0.0,0.0,0.0,0.0,0.0,0.0,0.0,0.0,0.0,0.0,0.0,0.0,0.0,0.0,0.0,0.0,0.0,0.0,0.0,0.0,0.0,0.0,0.0,0.0,0.0,0.0,0.0,0.0,0.0,0.0,0.0,0.0,0.0,0.0,0.0,0.0,0.0,0.0,0.0,0.0,0.0,0.0,0.0,0.0,0.0,0.0,0.0,0.0,0.0,0.0,0.0,0.0,0.0,0.0,0.0,0.0,0.0,0.0,0.0,0.0,0.0,0.0,0.0,0.0,0.0,0.0,0.0,0.0,0.0,0.0,0.0,0.0,0.0,0.0,0.0,0.0,0.0,0.0,0.0,0.0,0.0,0.0,0.0,0.0,0.0,0.0,0.0,0.0,0.8825,0.0,0.7762,0.7824,0.8709,0.9585,0.0,0.0,0.0,0.0,0.0,0.0,0.0,0.0,0.0,0.0,0.0,0.0,0.0,0.0,0.0,0.0,0.0,0.0,0.0,0.0,0.0,0.0,0.0,0.0,0.0,0.0,0.0,0.0,0.0,0.0,0.0,0.0,0.0,0.0,0.0,0.0,0.0,0.0,0.0,0.0,0.0,0.0,0.0,0.0,0.0,0.0,0.0,0.0,0.0,0.0,0.0,0.0,0.0,0.0,0.0,0.0,0.0,0.0,0.0,0.0,0.0,0.0,0.0,0.0,0.0,0.0,0.0,0.0,0.0,0.0,0.0,0.0,0.0,0.0,0.0,0.0,0.0,0.0,0.0,0.0,0.0,0.0,0.0,0.0,0.0,0.0,0.0,0.0,0.0,0.0,0.0,0.0,0.0,0.0,0.0,0.0,0.0,0.0,0.0,0.0,0.0,0.0,0.0,0.0,0.0,0.0,0.0,0.0,0.9085,0.6778,0.6192,0.5782,0.5533,0.6775,0.7978,0.0,0.0,0.0,0.0,0.0,0.0,0.0,0.0,0.0,0.0,0.0,0.0,0.0,0.0,0.0,0.0,0.0,0.0,0.0,0.0,0.0,0.0,0.0,0.0,0.0,0.0,0.0,0.0,0.0,0.0,0.0,0.0,0.0,0.0,0.0,0.0,0.0,0.0,0.0,0.0,0.0,0.0,0.0,0.0,0.0,0.0,0.0,0.0,0.0,0.0,0.0,0.0,0.0,0.0,0.0,0.0,0.0,0.0,0.0,0.0,0.0,0.0,0.0,0.0,0.0,0.0,0.0,0.0,0.0,0.0,0.0,0.0,0.0,0.0,0.0,0.0,0.0,0.0,0.0,0.0,0.0,0.0,0.0,0.0,0.0,0.0,0.0,0.0,0.0,0.0,0.0,0.0,0.0,0.0,0.0,0.0,0.0,0.0,0.0,0.0,0.0,0.0,0.0,0.0,0.0,0.0,0.0,0.0,0.0,0.5631,0.3875,0.3044,0.3071,0.4068,0.5463,0.0,0.0,0.0,0.0,0.0,0.0,0.0,0.0,0.0,0.0,0.0,0.0,0.0,0.0,0.0,0.0,0.0,0.0,0.0,0.0,0.0,0.0,0.0,0.0,0.0,0.0,0.0,0.0,0.0,0.0,0.0,0.0,0.0,0.0,0.0,0.0,0.0,0.0,0.0,0.0,0.0,0.0,0.0,0.0,0.0,0.0,0.0,0.0,0.0,0.0,0.0,0.0,0.0,0.0,0.0,0.0,0.0,0.0,0.0,0.0,0.0,0.0,0.0,0.0,0.0,0.0,0.0,0.0,0.0,0.0,0.0,0.0,0.0,0.0,0.0,0.0,0.0,0.0,0.0,0.0,0.0,0.0,0.0,0.0,0.0,0.0,0.0,0.0,0.0,0.0,0.0,0.0,0.0,0.0,0.0,0.0,0.0,0.0,0.0,0.0,0.0,0.0,0.0,0.0,0.0,0.0,0.0,0.0,0.0,0.4217,0.2446,0.1536,0.139,0.2231,0.3938,0.6563,0.0,0.0,0.0,0.0,0.0,0.0,0.0,0.0,0.0,0.0,0.0,0.0,0.0,0.0,0.0,0.0,0.0,0.0,0.0,0.0,0.0,0.0,0.0,0.0,0.0,0.0,0.0,0.0,0.0,0.0,0.0,0.0,0.0,0.0,0.0,0.0,0.0,0.0,0.0,0.0,0.0,0.0,0.0,0.0,0.0,0.0,0.0,0.0,0.0,0.0,0.0,0.0,0.0,0.0,0.0,0.0,0.0,0.0,0.0,0.0,0.0,0.0,0.0,0.0,0.0,0.0,0.0,0.0,0.0,0.0,0.0,0.0,0.0,0.0,0.0,0.0,0.0,0.0,0.0,0.0,0.0,0.0,0.0,0.0,0.0,0.0,0.0,0.0,0.0,0.0,0.0,0.0,0.0,0.0,0.0,0.0,0.0,0.0,0.0,0.0,0.0,0.0,0.0,0.0,0.0,0.0,0.0,0.0,0.2752,0.167,0.0788,0.02,0.1066,0.3101,0.0,0.0,0.0,0.0,0.0,0.0,0.0,0.0,0.0,0.0,0.0,0.0,0.0,0.0,0.0,0.0,0.0,0.0,0.0,0.0,0.0,0.0,0.0,0.0,0.0,0.0,0.0,0.0,0.0,0.0,0.0,0.0,0.0,0.0,0.0,0.0,0.0,0.0,0.0,0.0,0.0,0.0,0.0,0.0,0.0,0.0,0.0,0.0,0.0,0.0,0.0,0.0,0.0,0.0,0.0,0.0,0.0,0.0,0.0,0.0,0.0,0.0,0.0,0.0,0.0,0.0,0.0,0.0,0.0,0.0,0.0,0.0,0.0,0.0,0.0,0.0,0.0,0.0,0.0,0.0,0.0,0.0,0.0,0.0,0.0,0.0,0.0,0.0,0.0,0.0,0.0,0.0,0.0,0.0,0.0,0.0,0.0,0.0,0.0,0.0,0.0,0.0,0.0,0.0,0.0,0.0,0.0,0.0,0.0,0.2976,-0.0707,-0.3131,-0.4079,-0.1473,0.1022,0.0,0.0,0.0,0.0,0.0,0.0,0.0,0.0,0.0,0.0,0.0,0.0,0.0,0.0,0.0,0.0,0.0,0.0,0.0,0.0,0.0,0.0,0.0,0.0,0.0,0.0,0.0,0.0,0.0,0.0,0.0,0.0,0.0,0.0,0.0,0.0,0.0,0.0,0.0,0.0,0.0,0.0,0.0,0.0,0.0,0.0,0.0,0.0,0.0,0.0,0.0,0.0,0.0,0.0,0.0,0.0,0.0,0.0,0.0,0.0,0.0,0.0,0.0,0.0,0.0,0.0,0.0,0.0,0.0,0.0,0.0,0.0,0.0,0.0,0.0,0.0,0.0,0.0,0.0,0.0,0.0,0.0,0.0,0.0,0.0,0.0,0.0,0.0,0.0,0.0,0.0,0.0,0.0,0.0,0.0,0.0,0.0,0.0,0.0,0.0,0.0,0.0,0.0,0.0,0.0,0.0,0.0,0.0,0.5574,0.2649,-0.2681,-0.6368,-0.817,-0.3158,0.0501,0.0,0.0,0.0,0.0,0.0,0.0,0.0,0.0,0.0,0.0,0.0,0.0,0.0,0.0,0.0,0.0,0.0,0.0,0.0,0.0,0.0,0.0,0.0,0.0,0.0,0.0,0.0,0.0,0.0,0.0,0.0,0.0,0.0,0.0,0.0,0.0,0.0,0.0,0.0,0.0,0.0,0.0,0.0,0.0,0.0,0.0,0.0,0.0,0.0,0.0,0.0,0.0,0.0,0.0,0.0,0.0,0.0,0.0,0.0,0.0,0.0,0.0,0.0,0.0,0.0,0.0,0.0,0.0,0.0,0.0,0.0,0.0,0.0,0.0,0.0,0.0,0.0,0.0,0.0,0.0,0.0,0.0,0.0,0.0,0.0,0.0,0.0,0.0,0.0,0.0,0.0,0.0,0.0,0.0,0.0,0.0,0.0,0.0,0.0,0.0,0.0,0.0,0.0,0.0,0.0,0.0,0.0,0.0,0.4388,0.1864,-0.4431,-0.8957,-1.1178,-0.4237,0.0744,0.0,0.0,0.0,0.0,0.0,0.0,0.0,0.0,0.0,0.0,0.0,0.0,0.0,0.0,0.0,0.0,0.0,0.0,0.0,0.0,0.0,0.0,0.0,0.0,0.0,0.0,0.0,0.0,0.0,0.0,0.0,0.0,0.0,0.0,0.0,0.0,0.0,0.0,0.0,0.0,0.0,0.0,0.0,0.0,0.0,0.0,0.0,0.0,0.0,0.0,0.0,0.0,0.0,0.0,0.0,0.0,0.0,0.0,0.0,0.0,0.0,0.0,0.0,0.0,0.0,0.0,0.0,0.0,0.0,0.0,0.0,0.0,0.0,0.0,0.0,0.0,0.0,0.0,0.0,0.0,0.0,0.0,0.0,0.0,0.0,0.0,0.0,0.0,0.0,0.0,0.0,0.0,0.0,0.0,0.0,0.0,0.0,0.0,0.0,0.0,0.0,0.0,0.0,0.0,0.0,0.0,0.0,0.0,0.2935,-0.0247,-0.6219,-1.0326,-1.2239,-0.4437,0.0085,0.0,0.0,0.0,0.0,0.0,0.0,0.0,0.0,0.0,0.0,0.0,0.0,0.0,0.0,0.0,0.0,0.0,0.0,0.0,0.0,0.0,0.0,0.0,0.0,0.0,0.0,0.0,0.0,0.0,0.0,0.0,0.0,0.0,0.0,0.0,0.0,0.0,0.0,0.0,0.0,0.0,0.0,0.0,0.0,0.0,0.0,0.0,0.0,0.8282,0.0,0.0,0.0,0.0,0.0,0.0,0.0,0.0,0.0,0.0,0.0,0.0,0.0,0.0,0.0,0.0,0.0,0.0,0.0,0.0,0.0,0.0,0.0,0.0,0.0,0.0,0.0,0.0,0.0,0.0,0.0,0.0,0.0,0.0,0.0,0.0,0.0,0.0,0.0,0.0,0.0,0.0,0.0,0.0,0.0,0.0,0.0,0.0,0.0,0.0,0.0,0.0,0.0,0.0,0.0,0.0,0.0,0.0,0.0,0.2483,-0.1233,-0.7016,-1.0876,-1.2292,-0.6636,-0.2422,0.0,0.0,0.0,0.0,0.0,0.0,0.0,0.0,0.0,0.0,0.0,0.0,0.0,0.0,0.0,0.0,0.0,0.0,0.0,0.0,0.0,0.0,0.0,0.0,0.0,0.0,0.0,0.0,0.0,0.0,0.0,0.0,0.0,0.0,0.0,0.0,0.0,0.0,0.0,0.0,0.0,0.0,0.0,0.0,0.0,0.0,0.0,0.0,0.0,0.0,0.0,0.0,0.0,0.0,0.0,0.0,0.0,0.0,0.0,0.0,0.0,0.0,0.0,0.0,0.0,0.0,0.0,0.0,0.0,0.0,0.0,0.0,0.0,0.0,0.0,0.0,0.0,0.0,0.0,0.0,0.0,0.0,0.0,0.0,0.0,0.0,0.0,0.0,0.0,0.0,0.0,0.0,0.0,0.0,0.0,0.0,0.0,0.0,0.0,0.0,0.0,0.0,0.0,0.0,0.0,0.0,0.0,0.6673,0.223,-0.2084,-0.7594,-1.1166,-1.2478,-0.9023,-0.4945,-0.0462,0.0,0.0,0.0,0.0,0.0,0.0,0.0,0.0,0.0,0.0,0.0,0.0,0.0,0.0,0.0,0.0,0.0,0.0,0.0,0.0,0.0,0.0,0.0,0.0,0.0,0.0,0.0,0.0,0.0,0.0,0.0,0.0,0.0,0.0,0.0,0.0,0.0,0.0,1.2715,1.1022,0.0,0.0,0.0,0.0,0.0,0.0,0.0,0.0,0.3378,0.0,0.0,0.0,0.0,0.0,0.0,0.0,0.0,0.0,0.0,0.0,0.0,0.0,0.0,0.0,0.0,0.0,0.0,0.0,0.0,0.0,0.0,0.0,0.0,0.0,0.0,0.0,0.0,0.0,0.0,0.0,0.0,0.0,0.0,0.0,0.0,0.0,0.0,0.0,0.0,0.0,0.0,0.0,0.0,0.0,0.0,0.0,0.0,0.0,0.0,0.0,0.0,0.0,0.0,0.0,0.0,0.8031,0.5059,0.105,-0.421,-0.8882,-1.1707,-1.2467,-0.8958,-0.488,-0.026,0.0,0.0,0.0,0.0,0.0,0.0,0.0,0.0,0.0,0.0,0.0,0.0,0.0,0.0,0.0,0.0,0.0,0.0,0.0,0.0,0.0,0.0,0.0,0.0,0.0,0.0,0.0,0.0,0.0,0.0,0.0,0.0,0.0,0.0,0.0,0.0,0.0,0.0,0.0,1.0381,0.87,0.0,0.0,0.0,0.0,0.0,0.0,0.0,0.0,0.1593,0.0,0.0,0.0,0.0,0.0,0.0,0.0,0.0,0.0,0.0,0.0,0.0,0.0,0.0,0.0,0.0,0.0,0.0,0.0,0.0,0.0,0.0,0.0,0.0,0.0,0.0,0.0,0.0,0.0,0.0,0.0,0.0,0.0,0.0,0.0,0.0,0.0,0.0,0.0,0.0,0.0,0.0,0.0,0.0,0.0,0.0,0.0,0.0,0.0,0.0,0.0,0.0,0.0,0.0,0.0,0.7334,0.4426,0.0447,-0.4801,-0.8706,-1.1113,-1.182,-0.8711,-0.4643,0.0,0.0,0.0,0.0,0.0,0.0,0.0,0.0,0.0,0.0,0.0,0.0,0.0,0.0,0.0,0.0,0.0,0.0,0.0,0.0,0.0,0.0,0.0,0.0,0.0,0.0,0.0,0.0,0.0,0.0,0.0,0.0,0.0,0.0,0.0,0.0,0.0,0.0,0.0,0.0,1.0057,0.8598,0.671,0.0,0.0,0.0,0.0,0.0,0.0,0.0611,0.0427,0.0,0.0,0.0,0.0,0.0,0.0,0.0,0.0,0.0,0.0,0.0,0.0,0.0,0.0,0.0,0.0,0.0,0.0,0.0,0.0,0.0,0.0,0.0,0.0,0.0,0.0,0.0,0.0,0.0,0.0,0.0,0.0,0.0,0.0,0.0,0.0,0.0,0.0,0.0,0.0,0.0,0.0,0.0,0.0,0.0,0.0,0.0,0.0,0.0,0.0,0.0,0.0,0.0,0.0,0.0,0.7281,0.4235,0.0245,-0.4711,-0.8092,-1.0247,-1.1064,-0.741,-0.3365,0.0,0.0,0.0,0.0,0.0,0.0,0.0,0.0,0.0,0.0,0.0,0.0,0.0,0.0,0.0,0.0,0.0,0.0,0.0,0.0,0.0,0.0,0.0,0.0,0.0,0.0,0.0,0.0,0.0,0.0,0.0,0.0,0.0,0.0,0.0,0.0,0.0,0.0,0.0,0.0,0.0,0.8475,0.6341,0.4613,0.0,0.0,0.0,0.0,0.0494,0.0,0.0,0.0,0.0,0.0,0.0,0.0,0.0,0.0,0.0,0.0,0.0,0.0,0.0,0.0,0.0,0.0,0.0,0.0,0.0,0.0,0.0,0.0,0.0,0.0,0.0,0.0,0.0,0.0,0.0,0.0,0.0,0.0,0.0,0.0,0.0,0.0,0.0,0.0,0.0,0.0,0.0,0.0,0.0,0.0,0.0,0.0,0.0,0.0,0.0,0.0,0.0,0.0,0.0,0.0,0.0,0.0,0.7371,0.4412,0.057,-0.412,-0.7416,-0.964,-1.0625,-0.3687,0.0333,0.0,0.0,0.0,0.0,0.0,0.0,0.0,0.0,0.0,0.0,0.0,0.0,0.0,0.0,0.0,0.0,0.0,0.0,0.0,0.0,0.0,0.0,0.0,0.0,0.0,0.0,0.0,0.0,0.0,0.0,0.0,0.0,0.0,0.0,0.0,0.0,0.0,0.0,0.0,0.0,0.0,0.8257,0.5771,0.3906,0.2806,0.0,0.0,0.1084,0.0448,0.0,0.0,0.0,0.0,0.0,0.0,0.0,0.0,0.0,0.0,0.0,0.0,0.0,0.0,0.0,0.0,0.0,0.0,0.0,0.0,0.0,0.0,0.0,0.0,0.0,0.0,0.0,0.0,0.0,0.0,0.0,0.0,0.0,0.0,0.0,0.0,0.0,0.0,0.0,0.0,0.0,0.0,0.0,0.0,0.0,0.0,0.0,0.0,0.0,0.0,0.0,0.0,0.0,0.0,0.0,0.0,1.0902,0.7762,0.4257,0.0507,-0.3404,-0.6235,-0.821,-0.9465,-0.2478,0.1203,0.0,0.0,0.0,0.0,0.0,0.0,0.0,0.0,0.0,0.0,0.0,0.0,0.0,0.0,0.0,0.0,0.0,0.0,0.0,0.0,0.0,0.0,0.0,0.0,0.0,0.0,0.0,0.0,0.0,0.0,0.0,0.0,0.0,0.0,0.0,0.0,0.0,0.0,0.0,0.0,0.0,0.0,0.6329,0.4578,0.0,0.0,0.0,0.1352,0.0964,0.0,0.0,0.0,0.0,0.0,0.0,0.0,0.0,0.0,0.0,0.0,0.0,0.0,0.0,0.0,0.0,0.0,0.0,0.0,0.0,0.0,0.0,0.0,0.0,0.0,0.0,0.0,0.0,0.0,0.0,0.0,0.0,0.0,0.0,0.0,0.0,0.0,0.0,0.0,0.0,0.0,0.0,0.0,0.0,0.0,0.0,0.0,0.0,0.0,0.0,0.0,0.0,0.0,0.0,0.0,0.0,0.0,0.8251,0.4391,0.0779,-0.2582,-0.4999,-0.6864,-0.8026,-0.2521,0.0,0.0,0.0,0.0,0.0,0.0,0.0,0.0,0.0,0.0,0.0,0.0,0.0,0.0,0.0,0.0,0.0,0.0,0.0,0.0,0.0,0.0,0.0,0.0,0.0,0.0,0.0,1.1652,0.0,0.0,0.0,0.0,0.0,0.0,0.0,0.0,0.0,0.0,0.0,0.0,0.0,0.0,0.8661,0.7101,0.5586,0.4593,0.0,0.0,0.2395,0.2052,0.1947,0.1989,0.0,0.0,0.0,0.0,0.0,0.0,0.0,0.0,0.0,0.0,0.0,0.0,0.0,0.0,0.0,0.0,0.0,0.0,0.0,0.0,0.0,0.0,0.0,0.0,0.0,0.0,0.0,0.0,0.0,0.0,0.0,0.0,0.0,0.0,0.0,0.0,0.0,0.0,0.0,0.0,0.0,0.0,0.0,0.0,0.0,0.0,0.0,0.0,0.0,0.0,0.0,0.0,0.0,0.0,0.0,0.8626,0.5116,0.1719,-0.1578,-0.3983,-0.5769,-0.6899,-0.3717,-0.0822,0.0,0.0,0.0,0.0,0.0,0.0,0.0,0.0,0.0,0.0,0.0,0.0,0.0,0.0,0.0,0.0,0.0,0.0,0.0,0.0,0.0,0.0,0.0,0.0,0.0,0.0,0.0,0.0,0.0,0.0,0.0,0.0,0.0,0.0,0.0,0.0,0.0,0.0,0.0,0.0,0.0,0.9542,0.7672,0.673,0.6152,0.0,0.0,0.4355,0.4226,0.3609,0.3311,0.3721,0.0,0.0,0.0,0.0,0.0,0.0,0.0,0.0,0.0,0.0,0.0,0.0,0.0,0.0,0.0,0.0,0.0,0.0,0.0,0.0,0.0,0.0,0.0,0.0,0.0,0.0,0.0,0.0,0.0,0.0,0.0,0.0,0.0,0.0,0.0,0.0,0.0,0.0,0.0,0.0,0.0,0.0,0.0,0.0,0.0,0.0,0.0,0.0,0.0,0.0,0.0,0.0,0.0,1.1398,0.9622,0.6007,0.2861,0.0307,-0.1839,-0.3673,-0.5189,-0.2298,0.0041,0.0,0.0,0.0,0.0,0.0,0.0,0.0,0.0,0.0,0.0,0.0,0.0,0.0,0.0,0.0,0.0,0.0,0.0,0.0,0.0,0.0,0.0,0.0,0.0,0.0,0.0,0.0,0.0,1.1376,1.1718,1.2175,0.0,0.0,0.0,0.0,0.0,0.0,0.0,0.0,0.0,0.0,1.0007,0.8976,0.767,0.0,0.0,0.5872,0.5067,0.5164,0.4931,0.4882,0.56,0.5985,0.0,0.0,0.0,0.0,0.0,0.0,0.0,0.0,0.0,0.0,0.0,0.0,0.0,0.0,0.0,0.0,0.0,0.0,0.0,0.0,0.0,0.0,0.0,0.0,0.0,0.0,0.0,0.0,0.0,0.0,0.0,0.0,0.0,0.0,0.0,0.0,0.0,0.0,0.0,0.0,0.0,0.0,0.0,0.0,0.0,0.0,0.0,0.0,0.0,0.0,0.0,0.0,1.1745,1.0324,0.6956,0.4217,0.2146,0.0088,-0.1622,-0.2924,-0.1456,0.0125,0.0,0.0,0.0,0.0,0.0,0.0,0.0,0.0,0.0,0.0,0.0,0.0,0.0,0.0,0.0,0.0,0.0,0.0,0.0,0.0,0.0,0.0,0.0,0.0,0.0,0.0,0.0,0.0,1.1148,1.1814,1.2817,0.0,0.0,0.0,0.0,0.0,0.0,0.0,0.0,0.0,0.0,1.0933,1.0294,0.9017,0.8126,0.799,0.7125,0.6464,0.661,0.6491,0.6623,0.7307,0.0,0.0,0.0,0.0,0.0,0.0,0.0,0.0,0.0,0.0,0.0,0.0,0.0,0.0,0.0,0.0,0.0,0.0,0.0,0.0,0.0,0.0,0.0,0.0,0.0,0.0,0.0,0.0,0.0,0.0,1.6635,0.0,0.0,0.0,0.0,0.0,0.0,0.0,0.0,0.0,0.0,0.0,0.0,0.0,0.0,0.0,0.0,0.0,0.0,0.0,0.0,0.0,0.0,1.2516,1.0625,0.8016,0.5686,0.3709,0.1574,0.0219,-0.0393,-0.1703,-0.1148,0.1487,0.0,0.0,0.0,0.0,0.0,0.0,0.0,0.0,0.0,0.0,0.0,0.0,0.0,0.0,0.0,0.0,0.0,0.0,0.0,0.0,0.0,0.0,0.0,0.0,0.0,0.0,1.0307,1.0845,1.1937,0.0,0.0,0.0,0.0,0.0,0.0,0.0,0.0,0.0,0.0,1.2706,1.252,1.1442,1.0895,1.0251,0.9504,0.9099,0.8895,0.8826,0.8522,0.8476,0.0,0.0,0.0,0.0,0.0,0.0,0.0,0.0,0.0,0.0,0.0,0.0,0.0,0.0,0.0,0.0,0.0,0.0,0.0,0.0,0.0,0.0,0.0,0.0,0.0,0.0,0.0,1.7371,1.681,0.0,0.0,0.0,0.0,0.0,0.0,0.0,0.0,0.0,0.0,0.0,1.8213,1.7866,0.0,0.0,0.0,0.0,0.0,0.0,0.0,0.0,0.0,0.0,0.0,0.0,1.2931,1.1861,0.9333,0.7304,0.5847,0.4069,0.2613,0.1441,0.0744,0.1127,0.2732,0.0,0.0,0.0,0.0,0.0,0.0,0.0,0.0,0.0,0.0,0.0,0.0,0.0,0.0,0.0,0.0,0.0,0.0,0.0,0.0,0.0,0.0,0.0,0.0,0.0,1.2027,0.0,0.0,0.0,0.0,0.0,0.0,0.0,0.0,0.0,0.0,0.0,1.3231,1.2986,1.2692,1.2503,1.2457,1.1418,1.0837,0.0,0.0,0.0,0.0,0.0,0.0,0.0,0.0,0.0,0.0,0.0,0.0,0.0,0.0,1.3123,1.1693,1.1614,1.1996,1.2704,0.0,0.0,0.0,0.0,0.0,0.0,0.0,0.0,0.0,0.0,0.0,0.0,0.0,0.0,1.9475,0.0,1.9503,0.0,0.0,0.0,0.0,0.0,0.0,0.0,0.0,1.9373,1.9552,2.0193,1.9578,1.9524,0.0,1.9161,1.896,0.0,0.0,0.0,0.0,0.0,0.0,0.0,0.0,1.3362,1.2687,1.0426,0.8796,0.7797,0.6288,0.499,0.3917,0.3101,0.2942,0.3474,0.412,0.4582,0.0,0.0,0.0,0.0,0.0,0.0,0.0,0.0,0.0,0.0,0.0,0.0,0.0,0.0,0.0,0.0,0.0,0.0,0.0,0.0,0.0,0.0,0.0,1.2907,0.0,0.0,0.0,0.0,0.0,0.0,0.0,0.0,0.0,1.4061,1.4002,1.4026,1.4105,1.3495,1.3146,1.3356,0.0,0.0,0.0,0.0,0.0,0.0,0.0,1.1621,1.2006,1.2551,1.303,1.3397,1.4372,1.5091,1.5037,0.0,0.0,1.3303,1.3075,1.3345,1.4017,1.4341,1.4622,1.5132,1.5778,1.6131,0.0,0.0,0.0,0.0,0.0,0.0,0.0,0.0,2.1773,2.1785,0.0,2.1355,0.0,0.0,0.0,0.0,0.0,2.1596,0.0,0.0,2.1945,2.2271,2.2398,2.1856,2.1773,2.2015,2.104,2.07,2.081,1.8355,0.0,0.0,0.0,0.0,0.0,0.0,1.3918,1.304,1.1304,1.0146,0.9548,0.819,0.7272,0.6803,0.5286,0.4293,0.3846,0.3822,0.3832,0.3873,0.4604,0.0,0.0,0.0,0.0,0.0,0.0,0.0,0.0,0.0,0.0,0.0,0.0,0.0,0.0,0.0,0.0,0.0,0.0,0.0,0.0,1.2779,0.0,0.0,0.0,0.0,0.0,0.0,0.0,0.0,0.0,0.0,1.5113,1.5006,1.5205,1.5644,0.0,0.0,0.0,0.0,1.3733,1.2868,1.2969,1.3175,1.3192,1.3439,1.3742,1.4125,0.0,0.0,1.5259,1.5969,1.6414,1.6283,1.7023,1.707,1.5266,1.5157,1.5414,1.5752,1.5802,1.5824,1.6186,1.6888,1.7169,2.6349,0.0,0.0,0.0,0.0,2.4517,2.4371,2.4473,2.4454,2.4134,2.3671,2.3353,0.0,0.0,0.0,0.0,0.0,0.0,2.2696,2.326,2.299,2.2703,2.2494,2.2497,2.2267,2.1724,2.1181,2.0946,2.0965,1.9269,1.8329,1.8097,0.0,0.0,0.0,0.0,1.4699,1.3985,1.2692,1.1796,1.1351,1.0185,0.8993,0.7903,0.6888,0.6222,0.6048,0.5476,0.5114,0.5077,0.533,0.0,0.0,0.0,0.0,0.0,0.0,0.0,0.0,0.0,0.0,0.0,0.0,0.0,0.0,0.0,0.0,0.0,0.0,0.0,1.4637,1.5008,1.571,0.0,0.0,0.0,0.0,0.0,0.0,0.0,0.0,0.0,1.6403,1.5661,1.5195,0.0,0.0,1.416,1.4043,1.4245,1.4452,1.454,0.0,0.0,0.0,1.5433,1.5639,1.5954,1.6645,1.7209,1.7449,1.7862,1.804,1.759,1.8278,1.8642,1.7772,1.7487,1.7669,1.8072,1.8097,1.8133,1.8455,1.8785,1.8899,2.8845,2.7164,2.6677,2.6639,2.6842,2.6583,2.6651,2.6973,2.6847,2.6458,2.5918,2.5373,2.4918,2.4687,2.4259,0.0,0.0,0.0,2.4191,2.4697,2.3982,2.3514,2.3297,2.3141,2.2798,2.2298,2.1827,2.1604,2.1657,2.0304,1.959,1.9367,0.0,0.0,1.6065,1.5977,1.5564,1.4797,1.3756,1.306,1.2761,1.1564,1.0444,0.9449,0.872,0.8278,0.814,0.7558,0.723,0.7194,0.737,0.7843,0.0,0.0,0.0,0.0,0.0,0.0,0.0,0.0,0.0,0.0,0.0,1.6756,1.637,0.0,0.0,0.0,1.5594,1.6188,1.6718,1.7043,0.0,0.0,0.0,0.0,0.0,0.0,0.0,1.9656,1.8838,1.8135,1.7814,1.7091,1.6393,1.5838,1.5461,1.5246,1.5167,0.0,1.6241,1.6359,1.6507,1.681,1.7223,1.7077,1.7036,1.7285,1.7553,1.7811,1.7985,1.8302,1.8451,1.8354,1.904,1.9679,1.9421,1.9628,1.9767,1.9703,1.9718,1.9803,2.0008,2.0203,2.0302,3.022,2.9547,2.9074,2.8556,2.7984,2.8072,2.8554,2.9227,2.8716,2.8495,2.8349,2.7201,2.6623,2.6542,2.604,0.0,2.5947,2.5911,2.5862,2.5776,2.4942,2.4528,2.4346,2.3647,2.3289,2.3174,2.272,2.2505,2.2503,2.1301,2.0744,2.0787,1.9238,1.7822,1.6635,1.6745,1.6367,1.5463,1.4533,1.395,1.3802,1.2577,1.1721,1.1244,1.0661,1.0319,1.0099,0.9966,0.987,0.9873,1.0229,1.0652,1.1216,0.0,0.0,0.0,0.0,0.0,0.0,0.0,0.0,0.0,0.0,0.0,0.0,0.0,0.0,0.0,1.7262,0.0,1.8747,1.8914,0.0,0.0,0.0,2.0783,2.1507,2.0632,2.0212,2.0831,0.0,0.0,1.9101,1.885,1.8292,1.7499,1.7314,1.7137,1.6998,1.7911,1.8564,1.817,1.7896,1.8036,1.887,1.8592,1.8314,1.8435,1.7956,1.7807,1.7824,1.8021,1.8299,1.8383,1.946,2.0312,2.0499,2.1323,2.1888,2.0877,2.0831,2.0958,2.0908,2.1234,2.1458,3.2151,3.1013,3.1305,3.029,2.8555,2.8539,2.8372,2.8117,2.8046,2.7997,2.7855,2.757,2.7383,2.7244,2.7198,2.7161,2.7083,2.7002,2.6466,2.568,2.5528,2.4694,2.3307,2.3452,2.3126,2.2425,2.2329,2.2303,2.231,2.14,2.0702,2.0247,1.9328,1.8552,1.7892,1.668,1.6103,1.615,1.4931,1.416,1.3893,1.3268,1.2753,1.2319,1.2082,1.1916,1.1881,1.214,1.2263,1.2259,1.284,1.3356,1.383,1.4915,0.0,0.0,0.0,0.0,0.0,0.0,0.0,0.0,0.0,1.872,1.8352,0.0,1.9109,0.0,1.8942,1.9481,1.989,2.0115,0.0,0.0,2.1771,2.181,2.1738,2.1541,2.1022,2.003,1.946,1.9007,1.8676,1.8506,1.8599,1.896,1.8956,1.8571,1.7797,1.8759,1.9531,1.9406,1.9217,1.9446,2.0055,2.0346,2.0304,2.0447,1.9986,1.9739,1.9809,1.9414,1.9034,1.8858,2.0069,2.0925,2.0725,2.199,2.3018,2.2849,2.2505,2.1983,2.1437,2.2039,2.2698,3.2507,3.18,3.2162,3.1346,2.9804,2.9961,2.9716,2.9218,2.931,2.89,2.8197,2.7937,2.7795,2.7771,2.784,2.7829,2.773,2.7678,2.714,2.6137,2.5901,2.5045,2.3663,2.3553,2.3206,2.2669,2.2721,2.2746,2.2745,2.1972,2.1399,2.0999,1.9948,1.9304,1.9007,1.7092,1.6142,1.6221,1.5335,1.4811,1.4654,1.4369,1.3998,1.3504,1.3419,1.338,1.338,1.3839,1.4243,1.4538,1.5146,1.5737,1.6388,1.7026,1.7811,0.0,0.0,0.0,0.0,0.0,0.0,0.0,0.0,0.0,0.0,0.0,2.056,0.0,2.0742,2.1044,2.1414,2.1702,2.1945,2.2133,2.2223,2.2089,2.1534,2.1375,2.1048,2.0507,1.9957,1.9559,1.9433,1.9433,1.9449,1.9644,2.0183,2.0328,1.9787,2.0236,2.0676,2.0617,1.9948,1.9558,1.9975,2.0191,2.0344,2.0277,1.9883,1.9561,1.9568,1.9324,1.8996,1.8901,2.0219,2.1348,2.1141,2.2542,2.376,2.3508,2.356,2.334,2.2696,2.3004,2.3523,3.2232,3.2144,3.2265,3.1998,3.1434,3.1655,3.1377,3.081,3.0828,3.0036,2.871,2.8227,2.8065,2.8156,2.8183,2.8147,2.8083,2.8147,2.7638,2.6685,2.6104,2.5343,2.4427,2.3772,2.3414,2.3414,2.3397,2.3432,2.3397,2.2708,2.2314,2.2178,2.0632,1.9881,1.984,1.7651,1.6311,1.5857,1.5727,1.5692,1.568,1.5462,1.5122,1.4676,1.462,1.4682,1.489,1.5439,1.6066,1.6784,1.7306,1.7902,1.8662,1.9069,1.9638,0.0,2.1015,0.0,0.0,0.0,0.0,0.0,0.0,0.0,0.0,2.1167,2.2,2.2669,2.2453,2.2508,2.2981,2.3259,2.3151,2.2557,2.2443,2.2104,2.1367,2.0854,2.0744,2.1255,2.0422,2.0036,2.0443,2.0681,2.053,2.0289,2.1139,2.1906,2.2103,2.1821,2.1562,2.1587,2.0321,1.9611,1.9512,1.9604,1.9751,1.9516,1.9222,1.8677,1.8704,1.8751,1.8807,1.8932,2.0156,2.1261,2.1479,2.2989,2.3985,2.363,2.4224,2.4572,2.3968,2.3934,2.4137,3.2932,3.2334,3.247,3.2631,3.2693,3.213,3.0942,2.9387,2.9387,2.8995,2.8332,2.8546,2.8569,2.8518,2.8619,2.8594,2.8492,2.85,2.7698,2.6237,2.6027,2.5201,2.3813,2.3656,2.3544,2.35,2.3544,2.3584,2.3566,2.2937,2.2558,2.238,2.0478,1.9693,1.9921,0.0,0.0,0.0,1.6158,1.6505,1.6102,1.5766,1.5594,1.5507,1.5621,0.0,1.6985,1.7619,1.8345,1.9124,1.9684,0.0,0.0,0.0,0.0,0.0,0.0,0.0,0.0,0.0,0.0,0.0,2.3213,2.2722,2.1959,2.2139,2.2632,2.3325,2.3462,2.3536,2.3712,2.3749,2.3855,2.3946,2.3427,2.2789,2.214,2.1412,2.0802,2.0259,2.0592,2.0671,2.0274,2.0645,2.1282,2.1687,2.214,2.2855,2.3936,2.2609,2.1607,2.146,2.0949,2.0532,2.0011,2.0389,2.0639,2.0764,2.0299,1.9867,1.9758,1.9368,1.9194,1.935,2.0238,2.1297,2.2066,2.3095,2.405,2.455,2.487,2.4796,2.4018,2.4397,2.4917,3.3301,0.0,3.3086,3.3015,0.0,3.2419,3.1311,2.9725,2.9575,2.9196,2.8664,2.8897,2.8984,2.8962,2.8952,2.8881,2.8785,2.8868,2.799,2.6425,2.6478,2.5658,2.4098,2.4098,2.4079,2.4041,2.408,2.4098,2.408,2.3805,2.3382,2.2887,2.1844,2.1031,2.036,1.8837,1.7567,1.6595,1.7282,1.7809,1.8098,1.7813,1.7622,1.7511,0.0,0.0,0.0,0.0,0.0,0.0,0.0,0.0,0.0,0.0,0.0,2.3154,2.3654,2.3853,2.3617,2.4127,2.4346,2.4137,2.4246,2.3989,2.3204,2.3283,2.3526,2.3949,2.4137,2.4262,2.4312,2.4346,2.4126,2.3512,2.3477,2.2925,2.1513,2.1272,2.1139,2.0766,2.1072,2.132,2.1359,2.1692,2.213,2.2564,2.2675,2.2975,2.3572,2.3133,2.2353,2.141,2.0763,2.0329,2.007,2.0218,2.0556,2.0478,2.0294,2.0117,2.0048,1.9819,1.9762,2.0292,2.1138,2.2056,2.3005,2.388,2.4658,2.5103,2.5302,2.5227,2.4761,2.4965,2.5213,3.3633,3.3615,3.3689,3.3311,3.2649,3.2539,3.1663,3.0296,0.0,0.0,0.0,2.9233,2.9314,2.9334,2.9246,2.9156,2.9075,2.9061,2.825,2.682,2.6805,2.6018,2.4634,2.4596,2.4599,2.4599,2.4599,2.4599,2.4599,2.4599,2.4228,2.358,2.3409,2.252,2.1009,2.0241,1.9685,1.9249,1.8803,1.9096,2.0089,1.9942,1.9688,1.9488,1.9495,1.9648,1.9946,2.0128,2.0391,2.0781,2.1351,2.2416,2.4075,2.3726,2.3754,2.4406,2.4423,2.4335,2.4264,2.4481,2.4634,2.4685,2.4818,2.47,2.4172,2.4262,2.4366,2.4482,2.4666,2.4766,2.4793,2.4892,2.4434,2.3099,2.3494,2.3036,2.1235,2.1355,2.1789,2.1721,2.1939,2.2204,2.2699,2.294,2.3112,2.3193,2.3231,2.3237,2.3331,2.3473,2.292,2.173,2.1062,2.0435,2.038,2.0488,2.0356,2.065,2.0604,2.0478,2.0422,2.0459,2.0781,2.1442,2.2209,2.2959,2.3848,2.4523,2.5187,2.5483,2.5574,2.5618,2.5588,2.5483,2.539,3.4099,3.4099,3.4124,3.3666,3.292,3.2214,3.1033,2.9662,2.9526,2.9471,2.9456,2.9514,2.9514,2.9476,2.9532,2.9494,2.9418,2.8802,2.8015,0.0,2.6405,2.5546,2.461,2.4596,2.4599,2.4599,2.4599,2.4599,2.4599,2.4596,2.4489,2.4286,2.3764,2.297,2.2046,2.1811,2.198,2.2471,2.0644,1.9891,2.0333,2.0332,2.0267,2.0168,2.0297,2.0767,2.1593,2.172,2.217,2.2985,2.324,2.353,2.3869,2.4712,2.4929,2.4542,2.5814,2.6113,2.4903,2.5428,2.5598,2.5082,2.4991,2.4924,2.4799,2.4804,2.4826,2.4917,2.4998,2.5077,2.5126,2.5168,2.509,2.496,2.4462,2.3974,2.3528,2.3139,2.287,2.2851,2.3543,2.3637,2.3315,2.3751,2.414,2.4121,2.4124,2.4342,2.4697,2.3933,2.3035,2.2687,2.254,2.2449,2.2226,2.2372,2.2243,2.2397,2.2301,2.2177,2.21,2.2183,2.2372,2.2634,2.2862,2.3318,2.4138,2.4342,2.4837,2.5412,2.562,2.5644,2.56,2.5556,2.5535,3.4302,3.4325,3.4348,3.3708,3.2596,3.1393,3.0502,2.9888,2.9799,2.975,2.9661,2.9715,2.9751,2.9697,2.9626,2.957,2.9514,2.8799,2.8009,2.7163,2.6403,2.5623,2.4888,2.4813,2.4832,2.4813,2.4861,2.487,2.4874,2.4874,2.4869,2.4826,2.4094,2.3757,2.3764,2.2873,2.2969,2.4068,2.249,2.1917,2.2488,2.2363,2.2278,2.2243,2.2282,2.2457,2.2865,2.2998,2.3581,2.4634,2.4721,2.5448,2.7009,2.6742,2.6578,2.6729,2.7142,2.7105,2.6522,2.6447,2.6331,2.6032,2.5558,2.5479,2.5909,2.5418,2.5138,2.5216,2.5294,2.5374,2.5409,2.5408,2.5274,2.4873,2.488,2.4596,2.3851,2.3815,2.3815,2.3823,2.4159,2.4393,2.4469,2.4848,2.5086,2.5065,2.5066,2.5223,2.5593,2.4971,2.4202,2.375,2.3283,2.2976,2.2959,2.296,2.2968,2.2963,2.2968,2.2939,2.2925,2.2993,2.3198,2.3571,2.3701,2.406,2.4842,2.4999,2.519,2.5403,2.5581,2.5574,2.5554,2.5532,2.5479,3.4553,3.4553,3.4634,3.3809,3.2364,3.0803,3.0157,3.018,3.0166,3.0041,2.9899,2.9953,2.9972,2.994,2.9786,2.9716,2.9603,2.8921,2.8237,2.7551,2.6674,2.5912,2.5349,2.5184,2.5069,2.5069,2.5113,2.5141,2.5138,2.5149,2.5171,2.5147,2.4543,2.4553,2.5186,2.389,2.382,2.4865,2.4077,2.3854,2.4315,2.4137,2.4026,2.4026,2.3971,2.4004,2.4127,2.4283,2.4894,2.5986,2.6035,2.7062,2.9156,2.8379,2.7998,2.8414,2.816,2.7931,2.7856,2.737,2.7062,2.7095,2.6315,2.6101,2.6638,2.594,2.5402,2.5451,2.5522,2.559,2.5593,2.5606,2.5369,2.4749,2.5215,2.5098,2.4012,2.4305,2.4695,2.4678,2.4683,2.4958,2.5447,2.5664,2.5643,2.5603,2.5662,2.566,2.5681,2.568,2.5312,2.4725,2.4015,2.3735,2.3601,2.3705,2.3765,2.3685,2.3729,2.3789,2.3769,2.3711,2.3846,2.4431,2.4562,2.4807,2.5453,2.5548,2.5496,2.557,2.5532,2.5473,2.5427,2.5335,2.5312,3.5034,3.5053,3.5088,3.4203,3.2539,3.0911,3.0232,3.0259,3.0254,3.0241,3.027,3.0171,3.0161,3.0094,3.0045,3.0045,2.9988,2.9174,2.8774,2.8613,2.7146,2.6359,2.6263,2.5629,2.5264,2.5264,2.5283,2.5283,2.5284,2.5322,2.5293,2.5283,2.5216,2.5253,2.5301,2.5146,2.5174,2.5354,2.5197,2.4898,2.4495,2.4465,2.4431,2.4449,2.4449,2.4834,2.5574,2.5762,2.6235,2.7157,2.7286,2.7464,2.7899,2.8466,2.8595,2.8106,2.8666,2.878,2.8165,2.8079,2.8067,2.803,2.7267,2.6808,2.6891,2.6179,2.5652,2.5601,2.5598,2.5603,2.5605,2.5652,2.5637,2.5485,2.5582,2.5603,2.541,2.5527,2.5566,2.5585,2.5482,2.5609,2.5648,2.5634,2.5616,2.5593,2.5563,2.555,2.5585,2.5561,2.5532,2.5414,2.5336,2.5309,2.5215,2.5387,2.5208,2.5272,2.5332,2.5158,2.506,2.5095,2.5298,2.504,2.5265,2.5357,2.5434,2.5504,2.5486,2.5473,2.5439,2.5356,2.5255,2.5107,2.5043,3.5239,3.5219,3.5254,3.4357,3.2795,3.1609,3.1107,3.1144,3.1133,3.1391,3.1734,3.1314,3.0753,3.0228,3.0267,3.0279,3.0222,2.9384,2.9013,2.8964,2.7822,2.7054,2.6535,2.6265,2.5841,2.5397,2.5359,2.5395,2.5495,2.5979,2.6486,2.6919,2.6986,2.7026,2.7032,2.7026,2.7026,2.7058,2.6992,2.684,2.6514,2.5979,2.592,2.639,2.6479,2.6371,2.6268,2.674,2.7217,2.7599,2.8121,2.8703,2.9291,2.9709,2.9812,2.959,2.9887,2.9738,2.8992,2.8961,2.8964,2.8974,2.8179,2.7674,2.7715,2.7419,2.6831,2.5858,2.5664,2.5664,2.5664,2.5703,2.5702,2.5701,2.5702,2.572,2.5699,2.5699,2.5697,2.5687,2.5671,2.5652,2.5632,2.5591,2.5537,2.5532,2.5515,2.5504,2.5543,2.5531,2.5518,2.5518,2.556,2.5571,2.5547,2.5563,2.5574,2.5578,2.5556,2.5532,2.5521,2.5465,2.5421,2.5439,2.5418,2.541,2.542,2.5329,2.5274,2.5274,2.5196,2.5069,2.4981,2.4947,2.4921,3.5378,3.5359,3.5141,3.4417,3.3341,3.2482,3.2155,3.2163,3.2116,3.2464,3.2947,3.2396,3.1776,3.1083,3.0629,3.0398,3.0332,2.9743,2.9475,2.9409,2.8666,2.798,2.7417,2.7121,2.673,2.6246,2.6226,2.6209,2.6314,2.6887,2.7565,2.8051,2.8179,2.8212,2.8232,2.8212,2.8232,2.8208,2.8145,2.8221,2.8262,2.7702,2.7391,2.7557,2.7798,2.7595,2.6948,2.7758,2.8338,2.854,2.9178,2.9842,3.0482,3.0607,3.0664,3.072,3.0735,3.0469,2.9882,2.9845,2.9758,2.9473,2.8884,2.8471,2.8328,2.8276,2.7725,2.6691,2.6381,2.6327,2.5726,2.5915,2.6027,2.6049,2.6186,2.6359,2.6398,2.6205,2.6061,2.6002,2.5764,2.5556,2.5531,2.5506,2.5473,2.5473,2.5459,2.5459,2.5432,2.5422,2.5426,2.5434,2.541,2.5441,2.5492,2.5518,2.5512,2.5506,2.5499,2.5452,2.543,2.5395,2.5343,2.5339,2.5303,2.5274,2.5255,2.5138,2.5038,2.5031,2.4949,2.4832,2.4794,2.4798,2.4738,3.5581,3.5503,3.4749,3.4429,3.4245,3.3468,3.3128,3.3145,3.3149,3.3156,3.3238,3.3192,3.3169,3.2889,3.1332,3.0469,3.051,3.0423,3.0385,3.0374,2.9617,2.9278,2.9329,2.8538,2.8076,2.7843,2.7809,2.7912,2.8019,2.8091,2.8162,2.8244,2.8353,2.832,2.8421,2.8463,2.8352,2.8463,2.8423,2.8626,2.9316,2.9362,2.8529,2.7285,2.766,2.8106,2.8087,2.8851,2.9667,3.0496,3.0508,3.0628,3.0691,3.0689,3.0723,3.0796,3.0786,3.0775,3.0703,3.0664,3.0367,2.9693,2.9486,2.9113,2.8486,2.8434,2.8252,2.8025,2.7905,2.7418,2.6188,2.6506,2.6852,2.6899,2.7474,2.7756,2.7839,2.6963,2.6831,2.6537,2.5925,2.5524,2.5421,2.5397,2.5493,2.5484,2.5409,2.5418,2.5447,2.534,2.533,2.5253,2.5253,2.5293,2.5464,2.5461,2.548,2.5445,2.5357,2.5302,2.5293,2.5274,2.5243,2.5212,2.519,2.5145,2.5056,2.4968,2.4869,2.4814,2.4723,2.4654,2.4613,2.4596,2.4547,3.6484,3.6406,3.5572,3.495,3.4451,3.4148,3.4054,3.4088,3.4088,3.4413,3.4742,3.4367,3.4127,3.4034,3.2812,3.1969,3.1491,3.1425,3.1176,3.073,3.0392,3.0,2.9479,2.9156,2.87,2.8254,2.8205,2.8494,2.9003,2.9035,2.9325,2.9815,2.9865,2.9893,2.9893,2.9899,2.9901,2.9899,2.9893,3.0027,3.0284,3.0384,2.9793,2.8727,2.9362,2.9518,2.8948,2.9771,3.0137,2.994,3.0412,3.0712,3.0749,3.0769,3.078,3.08,3.0798,3.0793,3.0735,3.0729,3.0595,3.0263,3.0203,2.9827,2.9244,2.9362,2.9311,2.8475,2.8638,2.832,2.7575,2.7496,2.7673,2.7653,2.7448,2.7393,2.7126,2.6537,2.599,2.5932,2.5623,2.5415,2.5562,2.5793,2.6081,2.6158,2.6549,2.6565,2.6181,2.6044,2.5868,2.5351,2.5209,2.5231,2.5282,2.5293,2.5303,2.5273,2.5212,2.519,2.5157,2.5153,2.5137,2.5094,2.5057,2.4987,2.4888,2.4727,2.4636,2.4524,2.4459,2.4459,2.441,2.441,2.4339,3.7323,3.6993,3.6441,3.5716,3.501,3.4971,3.4989,3.5017,3.5012,3.5352,3.571,3.5281,3.5015,3.4929,3.4408,3.3663,3.2814,3.2309,3.1729,3.1227,3.0938,3.0495,3.0016,2.9929,2.9623,2.9119,2.9023,2.9374,2.9856,2.9916,3.0242,3.0752,3.0816,3.0838,3.0838,3.0843,3.0808,3.081,3.0827,3.0808,3.0831,3.085,3.0637,3.0187,3.0545,3.0398,2.9536,3.0297,3.0537,3.0123,3.0454,3.0754,3.08,3.0779,3.0784,3.0758,3.0747,3.0711,3.0681,3.067,3.0529,3.0249,3.0428,3.0238,2.9489,3.0086,2.9865,2.9218,2.9231,2.9358,2.8988,2.8846,2.8752,2.8553,2.8177,2.7852,2.76,2.7108,2.6684,2.6462,2.6361,2.6227,2.6177,2.6617,2.6864,2.6899,2.7424,2.745,2.7036,2.6871,2.656,2.5776,2.5643,2.5435,2.5239,2.5087,2.5153,2.5141,2.5118,2.5088,2.5019,2.5012,2.5004,2.4977,2.4903,2.4827,2.4689,2.4528,2.4392,2.4284,2.4284,2.4303,2.4266,2.4247,2.4134,3.8014,3.7371,3.7219,3.6731,3.6025,3.5938,3.5895,3.5802,3.5836,3.5827,3.5894,3.5827,3.5752,3.5802,3.5617,3.5302,3.4354,3.3016,3.2294,3.205,3.1289,3.0898,3.082,3.0701,3.0644,3.0527,3.0682,3.0701,3.0682,3.0664,3.0721,3.0798,3.0852,3.087,3.0889,3.0894,3.0857,3.082,3.0838,3.0857,3.082,3.0858,3.0857,3.08,3.0858,3.0527,2.9687,3.0448,3.0839,3.0819,3.0797,3.0786,3.0774,3.0739,3.0711,3.0691,3.0651,3.061,3.0583,3.0579,3.0233,2.9821,3.0167,3.0219,2.9717,3.0065,3.0403,3.025,3.0231,3.0278,3.0269,3.0171,2.9939,2.9487,2.9603,2.9583,2.9187,2.9081,2.8791,2.7913,2.7561,2.7739,2.7746,2.7699,2.7701,2.7708,2.7772,2.774,2.7498,2.7364,2.7154,2.6511,2.5933,2.5514,2.5175,2.4884,2.4966,2.5019,2.5025,2.4985,2.4884,2.4842,2.4813,2.4783,2.4707,2.461,2.4495,2.4321,2.4247,2.4171,2.4152,2.4133,2.4056,2.3998,2.3917,3.9246,3.8934,3.8337,3.7616,3.6871,3.6809,3.6474,3.5925,3.5962,3.5977,3.5955,3.5923,3.589,3.5893,3.5896,3.5741,3.5394,3.4324,3.3529,3.2928,3.2107,3.1678,3.1578,3.1068,3.0786,3.0788,3.0801,3.0807,3.0843,3.0832,3.0798,3.08,3.0859,3.0839,3.0898,3.082,3.0819,3.0799,3.0819,3.0819,3.0796,3.0814,3.0813,3.0829,3.0845,3.0662,3.0398,3.0669,3.0827,3.0836,3.0771,3.0711,3.0665,3.0633,3.0632,3.0622,3.0571,3.0537,3.053,3.0462,3.0355,3.01,3.0271,3.0267,3.0044,3.019,3.0364,3.0383,3.0348,3.0316,3.0279,3.0228,3.0126,3.0113,2.9813,2.9589,2.9209,2.8648,2.8165,2.7911,2.7726,2.7689,2.7822,2.8025,2.8346,2.8322,2.8341,2.827,2.7609,2.7214,2.6441,2.5698,2.5494,2.5441,2.504,2.49,2.5035,2.5096,2.5077,2.4907,2.4776,2.4692,2.4645,2.4561,2.4513,2.441,2.4266,2.4153,2.4056,2.4016,2.4016,2.3937,2.3855,2.3753,2.3667,4.0094,3.9744,3.9219,3.8495,3.7713,3.7676,3.7207,3.6465,3.6444,3.6267,3.6014,3.5937,3.5918,3.5895,3.5888,3.5868,3.5812,3.5271,3.4779,3.4147,3.3021,3.2416,3.2079,3.1539,3.1456,3.1679,3.1738,3.1734,3.1718,3.1741,3.1753,3.1758,3.1731,3.1771,3.1667,3.1433,3.1274,3.1211,3.096,3.0784,3.0796,3.0794,3.0791,3.0788,3.0778,3.0743,3.0711,3.0715,3.0735,3.076,3.0703,3.0632,3.0571,3.0554,3.0537,3.0501,3.0472,3.0413,3.0419,3.0375,3.0328,3.0311,3.0305,3.0279,3.0279,3.0266,3.0266,3.0272,3.0213,3.0204,3.0185,3.0109,3.0133,3.026,2.9832,2.9462,2.9302,2.8632,2.8376,2.8483,2.8527,2.8436,2.8574,2.8707,2.886,2.8758,2.889,2.8588,2.7759,2.7294,2.6531,2.5849,2.5546,2.5337,2.4896,2.492,2.5107,2.5161,2.5178,2.4916,2.4696,2.4586,2.4515,2.4375,2.4266,2.4173,2.4037,2.3937,2.3855,2.3837,2.3813,2.3664,2.3553,2.3531,2.3463,4.0621,3.9902,3.9863,3.9373,3.8602,3.8571,3.8083,3.734,3.7166,3.6718,3.6151,3.6009,3.596,3.59,3.588,3.5858,3.5787,3.5733,3.5643,3.523,3.4198,3.3145,3.2302,3.2127,3.2427,3.3005,3.3103,3.3155,3.3011,3.3025,3.3303,3.3098,3.3044,3.323,3.2947,3.2498,3.2116,3.2002,3.1406,3.1094,3.0974,3.0915,3.0845,3.0802,3.073,3.0677,3.0656,3.062,3.061,3.0671,3.0595,3.0546,3.0492,3.0482,3.0471,3.0409,3.034,3.0328,3.0304,3.0299,3.0292,3.0292,3.0266,3.0266,3.0213,3.0166,3.0138,3.0142,3.0068,3.0019,3.0098,3.0038,2.9953,2.995,2.9851,2.9801,2.9807,2.9128,2.9014,2.9491,2.9727,2.9657,2.95,2.949,2.9117,2.8891,2.9041,2.8365,2.7951,2.7481,2.7363,2.6688,2.5756,2.5289,2.4867,2.539,2.5505,2.4985,2.5208,2.5375,2.4968,2.4801,2.4413,2.4246,2.413,2.4012,2.3837,2.3774,2.3646,2.3576,2.3486,2.3342,2.3295,2.3271,2.3182,4.0893,4.0688,4.0734,4.0257,3.9526,3.9462,3.8959,3.812,3.748,3.7152,3.6754,3.6192,3.5997,3.5833,3.5878,3.5815,3.5821,3.5765,3.5765,3.5743,3.5438,3.4294,3.3213,3.2973,3.3083,3.3361,3.3465,3.3304,3.3284,3.3432,3.3398,3.3303,3.3429,3.3361,3.3223,3.3101,3.2998,3.2947,3.2765,3.2234,3.1709,3.1605,3.128,3.0695,3.0637,3.0614,3.0546,3.0482,3.0449,3.0479,3.046,3.0417,3.0371,3.0314,3.0294,3.0328,3.0311,3.0299,3.0279,3.0247,3.0226,3.0207,3.0123,3.0064,3.0049,2.9956,2.9907,2.9891,2.9876,2.9823,2.9787,2.9736,2.9645,2.9532,2.9681,2.9784,2.9693,2.9581,2.9526,2.9643,2.9551,2.9514,2.942,2.9044,2.8722,2.878,2.8445,2.7886,2.7662,2.7494,2.7287,2.6465,2.5646,2.5218,2.5112,2.5725,2.574,2.4967,2.5261,2.6119,2.5715,2.5366,2.4794,2.4257,2.4192,2.4088,2.3822,2.3628,2.3491,2.3342,2.3271,2.3193,2.3052,2.3003,2.2876,4.1022,4.1008,4.1081,4.0817,4.037,4.0329,3.9836,3.9032,3.8531,3.8052,3.7669,3.7196,3.6922,3.6861,3.6509,3.6318,3.627,3.5892,3.5718,3.5737,3.5697,3.5189,3.4435,3.4088,3.3996,3.4342,3.433,3.4369,3.4361,3.4307,3.4326,3.4423,3.434,3.4192,3.3854,3.3789,3.3587,3.3327,3.3242,3.2839,3.2019,3.1926,3.1424,3.0789,3.0577,3.052,3.0389,3.0063,2.9971,3.0182,3.0035,2.9946,3.0235,2.9915,2.9927,3.0222,3.0273,3.026,3.0247,3.0166,3.0128,3.0094,3.0007,2.9943,2.9891,2.9823,2.9789,2.9771,2.9718,2.9701,2.9645,2.9589,2.9471,2.9392,2.9474,2.9551,2.9494,2.9474,2.9474,2.9433,2.933,2.9267,2.9316,2.8719,2.8529,2.8513,2.8331,2.7811,2.7424,2.73,2.7118,2.6469,2.6023,2.5727,2.5337,2.5698,2.5892,2.5179,2.497,2.5983,2.5634,2.5269,2.4787,2.4197,2.4208,2.4068,2.3701,2.3382,2.323,2.3102,2.307,2.2995,2.2842,2.279,2.2632,4.1042,4.1011,4.1057,4.1086,4.1033,4.1064,4.0565,3.9922,3.965,3.9188,3.8595,3.8408,3.8013,3.8209,3.7114,3.689,3.6734,3.5998,3.5766,3.5718,3.5699,3.5562,3.5469,3.4933,3.5014,3.5435,3.5745,3.5648,3.5454,3.5533,3.5659,3.5541,3.5627,3.5355,3.4789,3.4633,3.4209,3.3785,3.3757,3.3341,3.2578,3.227,3.1739,3.0975,3.0548,3.0425,3.0194,2.9774,2.9615,3.026,2.9391,2.941,2.9934,2.9487,2.9494,3.0075,3.0188,3.0161,3.0147,3.0049,2.9991,2.9956,2.9859,2.979,2.9773,2.9737,2.9682,2.9664,2.9608,2.9588,2.9588,2.9472,2.9372,2.931,2.9246,2.92,2.9178,2.9178,2.9178,2.9175,2.9085,2.904,2.898,2.8847,2.8562,2.8503,2.8282,2.7952,2.7787,2.7886,2.75,2.6912,2.6597,2.6392,2.5983,2.5646,2.5658,2.5415,2.5012,2.5195,2.4626,2.4316,2.4235,2.4042,2.3876,2.3631,2.3294,2.3052,2.297,2.2893,2.2842,2.2712,2.2605,2.2579,2.2497,4.1011,4.0999,4.102,4.1026,4.1013,4.102,4.0909,4.0653,3.996,3.9574,3.9237,3.8656,3.8025,3.7394,3.719,3.6646,3.616,3.5831,3.5706,3.5707,3.5718,3.5708,3.5708,3.5465,3.5553,3.5718,3.5775,3.5784,3.5773,3.5754,3.5782,3.5782,3.5782,3.5685,3.5463,3.5346,3.5426,3.5175,3.5098,3.4575,3.3713,3.3082,3.2403,3.1526,3.0782,3.0356,3.0228,3.0068,3.0041,2.9811,2.8945,2.8664,2.9735,2.9436,2.939,2.9909,3.0071,3.0007,2.995,2.9888,2.9841,2.9842,2.9794,2.9626,2.9645,2.9605,2.9547,2.947,2.945,2.9429,2.9388,2.9326,2.9243,2.92,2.9112,2.9044,2.9062,2.9089,2.9067,2.8998,2.8952,2.8905,2.8845,2.8328,2.8213,2.8377,2.8323,2.8104,2.8177,2.8346,2.7981,2.7433,2.7364,2.7123,2.6427,2.5973,2.57,2.5523,2.513,2.4806,2.4242,2.3975,2.414,2.3874,2.3466,2.3203,2.3014,2.2944,2.2893,2.2738,2.2623,2.2579,2.2525,2.2443,2.2547,4.0991,4.0988,4.0984,4.0991,4.0991,4.0991,4.0976,4.0866,4.045,4.0189,4.0082,3.9624,3.8991,3.8167,3.7719,3.7108,3.6323,3.5858,3.5715,3.5706,3.5707,3.5707,3.5718,3.5708,3.5718,3.5708,3.5737,3.5756,3.5745,3.5765,3.5765,3.5801,3.5801,3.5491,3.5355,3.5571,3.5475,3.5214,3.5494,3.5231,3.4378,3.389,3.3164,3.2257,3.1366,3.0828,3.0805,2.9837,2.9808,2.9584,2.8579,2.8351,2.9632,2.9365,2.9317,2.9832,2.9937,2.9905,2.9841,2.9754,2.9701,2.9719,2.9906,3.0032,3.0068,3.0006,2.9983,2.985,2.9625,2.9323,2.9262,2.9197,2.9134,2.9089,2.904,2.8994,2.897,2.8975,2.8975,2.8905,2.8858,2.881,2.8543,2.8173,2.8209,2.8561,2.853,2.8349,2.8397,2.8549,2.8494,2.8202,2.8142,2.7803,2.6989,2.6375,2.5829,2.5532,2.5137,2.4866,2.4478,2.4357,2.4322,2.3832,2.3315,2.3153,2.2989,2.2911,2.2833,2.2667,2.2559,2.2515,2.2562,2.2683,2.2852,4.0982,4.0991,4.0988,4.0988,4.0988,4.0988,4.0935,4.0898,4.0888,4.0742,4.0787,4.0812,3.9975,3.922,3.8443,3.7657,3.669,3.6071,3.5704,3.5715,3.5715,3.5715,3.5695,3.5716,3.5698,3.5708,3.5737,3.5718,3.5727,3.5718,3.5765,3.5784,3.5803,3.5521,3.5083,3.5318,3.5524,3.5078,3.5377,3.5353,3.4643,3.4287,3.3622,3.268,3.2019,3.142,3.1089,3.0288,2.9693,3.0016,2.8785,2.9025,2.9618,2.9308,2.915,2.9935,2.994,2.9736,2.97,2.9626,2.9569,2.9606,3.0197,3.0522,3.0559,3.0504,3.0485,3.0241,2.9882,2.9447,2.9514,2.9503,2.9457,2.9471,2.937,2.9135,2.9075,2.8997,2.8863,2.8839,2.8785,2.8718,2.8669,2.8481,2.859,2.8644,2.8594,2.8587,2.8619,2.8583,2.8485,2.8348,2.817,2.8038,2.7326,2.6544,2.6028,2.5725,2.5279,2.4971,2.4746,2.4551,2.4344,2.367,2.3229,2.3138,2.3093,2.3086,2.2928,2.2658,2.262,2.2711,2.2841,2.297,2.3186,4.0945,4.0991,4.0991,4.0982,4.0926,4.0897,4.0869,4.0828,4.0815,4.0812,4.0781,4.0757,3.9843,3.8721,3.8315,3.7348,3.6273,3.582,3.5742,3.5762,3.5742,3.5704,3.5704,3.5695,3.5707,3.5718,3.5737,3.5756,3.5773,3.5782,3.5773,3.5801,3.5801,3.5599,3.5514,3.565,3.565,3.5347,3.5496,3.5403,3.5142,3.4578,3.3873,3.2943,3.2452,3.195,3.1536,3.1486,3.1412,3.094,3.1186,3.1431,3.1224,2.9809,2.9565,3.0133,2.9964,2.9608,2.9531,2.9451,2.9429,2.9595,3.015,3.0597,3.0652,3.0671,3.0742,3.0497,3.0083,2.9795,3.1043,3.0475,3.0465,3.0582,3.0259,2.9826,2.971,2.9235,2.8779,2.8718,2.8694,2.8669,2.8644,2.8612,2.8594,2.8594,2.8543,2.844,2.8388,2.8344,2.8246,2.812,2.7992,2.7862,2.7606,2.6807,2.6167,2.6033,2.5673,2.5244,2.4992,2.4726,2.4317,2.396,2.3647,2.3528,2.3448,2.3351,2.3323,2.3236,2.3151,2.3021,2.3165,2.3341,2.3701,4.0927,4.0946,4.0946,4.0908,4.0849,4.0849,4.0798,4.0742,4.075,4.0732,4.0539,4.0152,3.9295,3.8234,3.7559,3.6928,3.6404,3.5839,3.5955,3.6149,3.5936,3.5704,3.5704,3.5695,3.5697,3.5708,3.5737,3.5765,3.5791,3.5801,3.5801,3.5793,3.5784,3.5727,3.5689,3.564,3.5637,3.5601,3.5496,3.543,3.5393,3.4791,3.4282,3.3876,3.324,3.2788,3.2487,3.1994,3.1934,3.1653,3.1817,3.2166,3.1976,3.1325,3.0355,3.0615,3.0051,2.9488,2.9409,2.9388,2.9388,2.95,3.0169,3.0801,3.1117,3.1244,3.1129,3.0987,3.0863,3.0683,3.1372,3.109,3.1121,3.1152,3.0638,3.0186,2.988,2.9191,2.8808,2.8619,2.8648,2.8648,2.8612,2.8587,2.8587,2.8536,2.8484,2.8353,2.8191,2.8073,2.8017,2.7876,2.7713,2.7624,2.7504,2.6978,2.6427,2.6279,2.6082,2.5666,2.552,2.5406,2.5088,2.4751,2.4413,2.412,2.389,2.386,2.386,2.386,2.3779,2.3698,2.3634,2.3787,2.4128,4.0898,4.0877,4.0877,4.0837,4.0796,4.0776,4.0742,4.0681,4.0642,4.0602,4.0444,3.9585,3.8862,3.8074,3.7257,3.6658,3.6612,3.5894,3.6021,3.6253,3.5974,3.5704,3.5715,3.5706,3.5697,3.5707,3.5708,3.5747,3.5793,3.5784,3.5794,3.5766,3.5728,3.5679,3.5639,3.5554,3.5507,3.5432,3.534,3.5254,3.5141,3.5037,3.4964,3.4927,3.4168,3.3655,3.3239,3.2924,3.2502,3.2328,3.2374,3.2641,3.299,3.247,3.1745,3.1139,3.0336,2.9853,2.9463,2.9686,2.976,2.9816,3.0429,3.121,3.1689,3.1815,3.1658,3.1602,3.1015,3.1164,3.1556,3.1476,3.1598,3.1719,3.1082,3.0246,2.9981,2.9442,2.867,2.8554,2.8644,2.8637,2.8619,2.8801,2.882,2.8569,2.8515,2.8279,2.8092,2.7864,2.776,2.7582,2.7461,2.7355,2.7261,2.7103,2.6717,2.6584,2.6452,2.6184,2.6236,2.6269,2.5866,2.538,2.5213,2.4911,2.4629,2.4427,2.4459,2.4491,2.4411,2.4277,2.4009,2.4213,2.463,4.0858,4.0807,4.0787,4.0765,4.0706,4.0694,4.0668,4.0588,4.0466,4.0438,4.0348,3.9404,3.8856,3.8299,3.7172,3.6334,3.5926,3.5755,3.5786,3.6018,3.5828,3.5693,3.5704,3.5704,3.5684,3.5665,3.5667,3.5737,3.5747,3.5718,3.5737,3.5728,3.5637,3.5562,3.5507,3.5412,3.5283,3.5247,3.5223,3.5124,3.5001,3.4889,3.4811,3.4693,3.4417,3.3971,3.3577,3.3482,3.3487,3.3018,3.3533,3.3881,3.3937,3.3239,3.2845,3.2479,3.1871,3.0913,2.9888,2.9981,3.0203,3.0296,3.0965,3.1949,3.2354,3.2233,3.195,3.1635,3.0577,3.0643,3.1836,3.1737,3.2143,3.22,3.1855,3.1119,3.064,2.9626,2.8871,2.8514,2.8577,2.8587,2.8604,2.8846,2.904,2.8752,2.8518,2.8246,2.7947,2.7669,2.7461,2.7324,2.723,2.7152,2.7055,2.6892,2.6859,2.6742,2.6657,2.6572,2.6503,2.6434,2.6329,2.5927,2.576,2.5578,2.5279,2.513,2.5146,2.5113,2.508,2.468,2.418,2.4597,2.5159,4.0761,4.073,4.0725,4.0629,4.0545,4.0485,4.0422,4.03,4.025,4.0195,3.9948,3.9147,3.8309,3.7563,3.6695,3.6454,3.619,3.5867,3.5929,3.6072,3.5929,3.5659,3.5635,3.5579,3.5534,3.5528,3.5496,3.5445,3.5538,3.5635,3.5648,3.5615,3.5521,3.5411,3.535,3.5262,3.5152,3.5034,3.4889,3.4752,3.467,3.4607,3.4564,3.4561,3.4409,3.4139,3.3981,3.4008,3.4067,3.3733,3.4086,3.4179,3.4141,3.3802,3.3505,3.2924,3.311,3.2108,3.0494,3.0476,3.0327,3.0176,3.0676,3.1483,3.2464,3.2878,3.2588,3.2207,3.1544,3.1616,3.2143,3.2117,3.263,3.2775,3.2346,3.1601,3.0849,2.9953,2.9151,2.882,2.8594,2.8806,2.9069,2.9497,2.9473,2.8859,2.8529,2.8211,2.7782,2.7282,2.712,2.7023,2.6975,2.6942,2.6859,2.6759,2.6742,2.6674,2.6606,2.652,2.6468,2.6415,2.631,2.6239,2.6057,2.5909,2.5794,2.5726,2.5643,2.5658,2.5725,2.5276,2.4928,2.5192,2.5615,4.0629,4.0596,4.0574,4.0485,4.0353,4.0286,4.0196,4.0081,4.0021,3.9941,3.9705,3.9113,3.8055,3.6996,3.6991,3.7198,3.7026,3.646,3.6453,3.6479,3.6247,3.5798,3.5586,3.5407,3.5379,3.5364,3.536,3.5494,3.5681,3.5724,3.5726,3.5451,3.534,3.5251,3.5171,3.5088,3.5001,3.4831,3.4626,3.4517,3.445,3.4409,3.4409,3.4404,3.4358,3.4293,3.4293,3.4245,3.4179,3.416,3.416,3.4216,3.4179,3.4061,3.3833,3.3518,3.3654,3.3074,3.1649,3.1001,3.0372,3.0146,3.0512,3.1782,3.2533,3.3305,3.3401,3.2504,3.2023,3.2017,3.2329,3.2338,3.272,3.2827,3.2578,3.1779,3.1018,3.0212,2.9497,2.9076,2.9036,2.9457,2.9832,3.0314,3.0053,2.9127,2.8603,2.8224,2.7683,2.7093,2.6942,2.6876,2.6825,2.6825,2.6759,2.6691,2.664,2.6657,2.6571,2.645,2.638,2.6345,2.6258,2.6187,2.6203,2.612,2.5974,2.6071,2.6099,2.6002,2.5919,2.5947,2.5842,2.599,2.5921,4.0386,4.0315,4.0406,4.0334,4.0283,4.0177,4.0081,3.9962,3.981,3.9739,3.9717,3.9528,3.8603,3.7707,3.7985,3.8185,3.7715,3.7877,3.7396,3.692,3.6598,3.6262,3.5916,3.5661,3.5458,3.54,3.5564,3.593,3.6214,3.6243,3.5889,3.54,3.5405,3.5148,3.502,3.5021,3.4865,3.4757,3.4678,3.4629,3.4549,3.4512,3.4531,3.4512,3.4409,3.4293,3.433,3.4394,3.4383,3.4383,3.4253,3.4216,3.4197,3.4173,3.4,3.3975,3.3926,3.3377,3.2471,3.1745,3.1154,3.1025,3.1407,3.2262,3.2856,3.2732,3.2643,3.2509,3.2046,3.1892,3.211,3.2317,3.2567,3.2805,3.2559,3.181,3.1118,3.064,2.9955,2.9431,2.9443,2.9849,3.0223,3.0661,3.0453,2.9617,2.8724,2.8303,2.7587,2.7029,2.6876,2.6792,2.6742,2.6742,2.6725,2.6742,2.686,2.6791,2.6722,2.6499,2.6327,2.6239,2.6239,2.6187,2.6203,2.6203,2.6151,2.6079,2.6079,2.6115,2.6079,2.6007,2.5934,2.5881,2.5807,4.0574,4.0845,4.029,4.0021,3.9962,3.9911,3.9823,3.9735,3.9613,3.9558,3.9533,3.9513,3.9029,3.8445,3.842,3.8477,3.7907,3.7874,3.7659,3.7525,3.7333,3.7137,3.6788,3.6512,3.6441,3.6117,3.6253,3.6274,3.6217,3.671,3.6784,3.6424,3.5989,3.5286,3.5092,3.512,3.4989,3.488,3.5235,3.5591,3.5107,3.5107,3.5311,3.5777,3.52,3.538,3.564,3.5225,3.5095,3.4866,3.4494,3.4346,3.4253,3.421,3.4185,3.4167,3.4049,3.361,3.2994,3.2471,3.2115,3.1863,3.1948,3.2265,3.301,3.3213,3.2858,3.2484,3.2101,3.2073,3.2079,3.2049,3.2145,3.2621,3.2509,3.1767,3.1232,3.0818,3.0404,2.9869,2.9907,3.0154,3.0525,3.0924,3.056,3.0058,2.9197,2.8357,2.7675,2.7131,2.7013,2.6945,2.6911,2.6979,2.7012,2.7063,2.7147,2.7042,2.6939,2.6766,2.6609,2.6256,2.6203,2.6203,2.6168,2.6168,2.6115,2.6007,2.6007,2.6043,2.599,2.5881,2.5844,2.5787,2.5733,4.0463,4.0756,4.0072,3.9932,4.0079,3.9787,3.9596,3.9546,3.9451,3.9399,3.9373,3.9483,3.9364,3.9006,3.9024,3.8955,3.8687,3.8588,3.8374,3.8204,3.8091,3.7905,3.7699,3.7414,3.7034,3.6804,3.6971,3.6986,3.702,3.7389,3.7502,3.7348,3.699,3.6233,3.5418,3.5375,3.5333,3.5211,3.5547,3.6333,3.5776,3.5615,3.5876,3.6433,3.608,3.608,3.6303,3.6017,3.569,3.546,3.5144,3.4717,3.447,3.434,3.4377,3.4216,3.3993,3.3677,3.3227,3.2551,3.2309,3.1873,3.1975,3.2381,3.2958,3.3441,3.3184,3.2809,3.2607,3.2473,3.2385,3.2312,3.2232,3.2699,3.2504,3.1913,3.1477,3.1077,3.073,3.0349,3.0576,3.0855,3.0994,3.132,3.0887,3.0368,2.9488,2.8664,2.7913,2.7487,2.7266,2.7215,2.7199,2.73,2.7402,2.7722,2.7971,2.7919,2.7746,2.7372,2.7114,2.6656,2.6253,2.6203,2.6168,2.6115,2.6079,2.597,2.5954,2.5954,2.5881,2.5807,2.5733,2.5675,2.5654,3.9973,3.9823,3.9777,4.0151,4.0651,3.9896,3.9495,3.9451,3.9309,3.9264,3.9309,3.9647,3.9712,3.9529,3.9627,3.9618,3.9558,3.968,3.9452,3.8861,3.8766,3.8289,3.7925,3.7694,3.773,3.7383,3.7589,3.7958,3.8131,3.83,3.8329,3.8249,3.7953,3.7159,3.5972,3.5726,3.5656,3.5613,3.5553,3.6087,3.6136,3.5808,3.605,3.6496,3.644,3.6384,3.6563,3.6378,3.5969,3.5553,3.5702,3.5157,3.429,3.4754,3.4673,3.4079,3.3965,3.3858,3.3766,3.2353,3.1935,3.1931,3.2216,3.2465,3.2611,3.2972,3.3415,3.299,3.3057,3.3075,3.297,3.2798,3.2692,3.2772,3.2669,3.2353,3.1951,3.1986,3.1758,3.1445,3.1598,3.1765,3.1768,3.1679,3.1246,3.0623,2.9744,2.9005,2.8423,2.8048,2.7894,2.7877,2.7877,2.7978,2.8215,2.8581,2.8814,2.8743,2.8417,2.7942,2.7414,2.6922,2.6551,2.6303,2.6115,2.6043,2.6007,2.5954,2.5917,2.5864,2.5828,2.577,2.5675,2.5632,2.5718,4.0359,4.0605,4.0053,4.0257,4.0778,4.0136,3.9684,3.9545,3.9496,3.9427,3.9401,3.9693,3.9804,3.9781,3.9826,3.9935,3.9935,3.9829,3.9551,3.9537,3.9463,3.9383,3.9018,3.8769,3.8615,3.842,3.855,3.8501,3.8338,3.8818,3.9156,3.9089,3.845,3.7376,3.6222,3.5689,3.5497,3.517,3.5683,3.6373,3.6074,3.5826,3.5994,3.6758,3.6385,3.636,3.6689,3.6428,3.5938,3.5504,3.569,3.4934,3.4253,3.4617,3.4444,3.4035,3.3939,3.3887,3.3823,3.3201,3.3054,3.2873,3.2602,3.2675,3.2998,3.3069,3.316,3.3104,3.306,3.3144,3.3425,3.3194,3.3231,3.3773,3.3676,3.3179,3.2896,3.3187,3.3256,3.2876,3.2783,3.2559,3.2438,3.2145,3.1728,3.1453,3.069,3.0137,2.957,2.909,2.8816,2.8764,2.8745,2.8812,2.9013,2.9296,2.9303,2.9181,2.8753,2.8226,2.7698,2.7254,2.6634,2.6198,2.6076,2.597,2.5917,2.5864,2.5791,2.5738,2.5791,2.595,2.6032,2.6,2.5956,4.0361,4.0631,4.0179,4.0214,4.0488,4.0075,3.9781,3.967,3.9712,3.9647,3.9599,3.9785,3.9848,3.9826,3.9867,3.9864,3.9867,3.9804,3.9781,3.9826,3.9826,3.9712,3.975,3.9807,3.941,3.9252,3.932,3.9345,3.8959,3.9382,3.9526,3.932,3.8732,3.7863,3.6902,3.6443,3.582,3.553,3.588,3.6328,3.6123,3.6029,3.6104,3.6534,3.6528,3.6397,3.6559,3.6329,3.5839,3.5492,3.5188,3.4637,3.4402,3.4333,3.4245,3.4094,3.3913,3.386,3.3797,3.377,3.3587,3.3642,3.3086,3.299,3.3207,3.3129,3.3024,3.2916,3.2855,3.3006,3.3296,3.3143,3.3315,3.3838,3.3639,3.309,3.2983,3.3225,3.3294,3.3087,3.298,3.291,3.2855,3.2628,3.2248,3.1987,3.1711,3.119,3.0617,3.0084,2.9655,2.9602,2.9634,2.9734,2.978,2.9895,2.9833,2.9602,2.9106,2.8524,2.8181,2.7736,2.6949,2.6178,2.6162,2.6076,2.5917,2.5828,2.586,2.5897,2.5864,2.6069,2.6363,2.6281,2.6124,4.0036,3.9951,4.0076,4.0015,3.9867,3.9889,3.9826,3.9739,3.9892,3.9892,3.9804,3.9973,3.9933,3.9762,3.9848,3.98,3.9679,3.9689,3.9712,3.9731,3.9731,3.98,3.9826,3.987,3.9731,3.9724,3.9717,3.9628,3.9618,3.9607,3.9602,3.9489,3.8901,3.83,3.7845,3.7314,3.648,3.5956,3.5521,3.6002,3.6133,3.6035,3.6171,3.6451,3.6558,3.6409,3.6422,3.6248,3.5925,3.582,3.5944,3.5268,3.4888,3.4855,3.4473,3.4118,3.3852,3.3807,3.3807,3.3807,3.3807,3.378,3.3541,3.3357,3.319,3.3055,3.293,3.282,3.2725,3.2712,3.2719,3.2687,3.2721,3.2825,3.2823,3.2595,3.2473,3.2506,3.2558,3.2524,3.2524,3.2487,3.2498,3.2392,3.2421,3.2524,3.2262,3.1952,3.1414,3.0805,3.046,3.0424,3.0472,3.064,3.067,3.0527,3.0209,2.9943,2.9458,2.8925,2.8598,2.804,2.7147,2.6478,2.6333,2.6198,2.5987,2.6003,2.6122,2.6089,2.6023,2.6335,2.6678,2.6368,2.6222,4.0215,4.0176,4.0234,4.0196,4.0158,4.0196,4.0099,3.9935,3.9914,3.987,3.9804,3.9911,3.9933,3.9848,3.9889,3.9781,3.9708,3.9637,3.9656,3.9698,3.9698,3.9773,3.98,3.9845,3.98,3.9754,3.9708,3.9661,3.9607,3.962,3.962,3.9526,3.9239,3.8863,3.845,3.8032,3.7057,3.6152,3.5492,3.5773,3.6147,3.6073,3.6147,3.6222,3.6279,3.6007,3.5511,3.5362,3.5035,3.4921,3.4878,3.4427,3.4264,3.4238,3.4076,3.3907,3.3807,3.3807,3.3807,3.3807,3.3844,3.3853,3.3642,3.3375,3.3196,3.306,3.2902,3.2722,3.2659,3.2645,3.2755,3.2809,3.2897,3.2966,3.2929,3.2841,3.2754,3.2772,3.2789,3.2508,3.249,3.2418,3.2414,3.2288,3.2352,3.2697,3.2835,3.2628,3.2294,3.1788,3.1113,3.1042,3.1175,3.1291,3.1074,3.093,3.0581,3.0196,2.971,2.9092,2.8415,2.7807,2.7131,2.6816,2.6703,2.6399,2.6059,2.6191,2.6598,2.628,2.6214,2.6606,2.683,2.6472,2.6655,4.0329,4.031,4.031,4.0327,4.0325,4.0379,4.0272,4.0098,4.0098,4.0038,3.9954,4.0058,4.0017,3.9911,3.9954,3.9911,3.9703,3.9684,3.9679,3.9679,3.9693,3.9746,3.9754,3.9758,3.9754,3.9731,3.9684,3.9679,3.9645,3.962,3.962,3.962,3.962,3.9276,3.8863,3.8394,3.7587,3.6686,3.6066,3.5991,3.6122,3.6291,3.6216,3.5972,3.5935,3.5346,3.4622,3.4491,3.44,3.4311,3.4288,3.4148,3.4023,3.3965,3.3913,3.3807,3.3807,3.3807,3.3807,3.3807,3.399,3.4073,3.3872,3.368,3.3473,3.3324,3.2973,3.269,3.2626,3.263,3.2827,3.3055,3.3282,3.3528,3.3385,3.3279,3.3296,3.3314,3.3085,3.2788,3.2664,3.2574,3.2466,3.2288,3.249,3.3162,3.3628,3.3697,3.3468,3.3132,3.2145,3.1473,3.1654,3.1837,3.155,3.1184,3.0734,3.0314,2.9911,2.9264,2.8419,2.8165,2.8044,2.759,2.7108,2.6869,2.677,2.6955,2.7194,2.6892,2.677,2.7135,2.7137,2.6557,2.6971,4.031,4.0329,4.0308,4.0344,4.0379,4.0398,4.0309,4.0196,4.0309,4.0272,4.0138,4.0386,4.0311,4.0076,4.0078,3.9996,3.9823,3.9754,3.9689,3.9708,3.9698,3.9722,3.9708,3.9708,3.9708,3.9703,3.9679,3.9674,3.9669,3.9645,3.962,3.962,3.962,3.9489,3.9339,3.8863,3.8244,3.7718,3.7343,3.7249,3.693,3.6892,3.6704,3.6179,3.5878,3.5499,3.4861,3.4573,3.4566,3.4517,3.4554,3.4544,3.4245,3.3887,3.3834,3.3935,3.399,3.3935,3.3954,3.399,3.4376,3.4468,3.4348,3.4189,3.4002,3.3453,3.2983,3.2657,3.2558,3.2508,3.2669,3.2704,3.2862,3.2967,3.2897,3.2862,3.2862,3.2844,3.2685,3.2458,3.235,3.2314,3.2241,3.2081,3.2386,3.3404,3.38,3.399,3.4123,3.3911,3.3304,3.2145,3.2064,3.2122,3.1742,3.1303,3.0801,3.0381,3.0051,2.9554,2.8829,2.8879,2.9147,2.8657,2.8172,2.7891,2.7774,2.7992,2.8039,2.7751,2.7694,2.7852,2.7524,2.697,2.7254,4.0381,4.0363,4.0325,4.0307,4.0325,4.0271,4.0158,4.0017,4.0271,4.0272,4.0193,4.0769,4.0788,4.0196,4.0177,4.008,3.9994,3.9823,3.9758,3.9708,3.9698,3.9698,3.9708,3.9684,3.9684,3.9698,3.9693,3.9669,3.9645,3.962,3.962,3.962,3.962,3.962,3.962,3.9164,3.8939,3.8507,3.8488,3.7962,3.7268,3.6648,3.6216,3.6348,3.6329,3.5556,3.5102,3.5165,3.5245,3.5341,3.585,3.5584,3.4916,3.4209,3.3862,3.3899,3.4357,3.4321,3.4321,3.4513,3.4954,3.4981,3.4899,3.4767,3.4375,3.3563,3.3015,3.2725,3.2489,3.2473,3.2474,3.2458,3.2476,3.2476,3.2546,3.2546,3.2529,3.2406,3.2319,3.2266,3.2141,3.2,3.1998,3.2133,3.251,3.2783,3.3024,3.3317,3.3795,3.3859,3.406,3.3196,3.2576,3.2372,3.1958,3.1477,3.0976,3.056,3.0229,2.9753,2.9295,2.9429,2.9576,2.9631,2.9362,2.8962,2.8811,2.9127,2.9072,2.8531,2.8561,2.8686,2.8355,2.7831,2.8076,4.0398,4.0379,4.0325,4.0325,4.0325,4.0233,4.01,4.0137,4.0652,4.0614,4.0234,4.071,4.0727,4.0252,4.0233,4.0158,4.0057,3.9889,3.9758,3.9708,3.9698,3.965,3.9656,3.9661,3.9656,3.965,3.9669,3.9645,3.962,3.962,3.962,3.962,3.962,3.962,3.962,3.9583,3.9389,3.8976,3.9107,3.8525,3.7606,3.723,3.6836,3.7024,3.6592,3.5856,3.5637,3.5754,3.608,3.6155,3.6382,3.5962,3.5319,3.4741,3.4458,3.4513,3.4752,3.5037,3.5073,3.5312,3.5772,3.5836,3.5567,3.5499,3.5652,3.4875,3.3732,3.3351,3.2952,3.2848,3.2851,3.2873,3.3037,3.3143,3.3494,3.3705,3.3494,3.323,3.3298,3.3415,3.2956,3.2189,3.2098,3.1992,3.2352,3.2766,3.2904,3.3166,3.3559,3.3727,3.3962,3.3974,3.3163,3.2667,3.2321,3.1771,3.115,3.0751,3.0458,3.0386,3.0234,3.0061,3.0027,3.001,2.9981,2.9762,2.9762,2.9909,2.945,2.879,2.9055,2.9508,2.9059,2.8682,2.8903,4.0432,4.0396,4.0325,4.0325,4.0325,4.0252,4.0158,4.0215,4.0996,4.0992,4.0364,4.0447,4.0375,4.0286,4.027,4.0139,4.0019,3.9914,3.9823,3.9708,3.965,3.9626,3.9626,3.962,3.9602,3.9602,3.9626,3.962,3.962,3.962,3.962,3.962,3.962,3.962,3.962,3.9545,3.9333,3.8957,3.8826,3.8657,3.8413,3.8244,3.7718,3.7343,3.708,3.6663,3.6349,3.6502,3.6939,3.695,3.6827,3.6165,3.5761,3.5293,3.5165,3.5156,3.5561,3.5901,3.6122,3.6371,3.684,3.7022,3.6538,3.6346,3.6497,3.5933,3.4789,3.4092,3.3656,3.3261,3.3268,3.3364,3.3564,3.3794,3.4215,3.4512,3.4177,3.3913,3.4082,3.4248,3.3422,3.2496,3.2216,3.2113,3.2268,3.27,3.2976,3.3287,3.3494,3.3529,3.3667,3.3675,3.3304,3.2894,3.2588,3.1947,3.1261,3.1189,3.098,3.115,3.1145,3.0746,3.0492,3.0357,3.0311,3.0256,3.0273,3.0374,2.9779,2.9252,2.9664,3.0085,2.9475,2.9197,2.9537,4.0492,4.0408,4.0342,4.0252,4.0177,4.0138,4.0078,4.0078,4.0442,4.0475,4.0381,4.0379,4.0377,4.0341,4.036,4.0252,4.0077,3.9975,3.9826,3.9731,3.9674,3.9626,3.9626,3.9626,3.962,3.9626,3.9626,3.9645,3.962,3.962,3.962,3.962,3.962,3.962,3.962,3.9564,3.9489,3.9183,3.9183,3.9207,3.8807,3.8469,3.785,3.7568,3.7418,3.7071,3.6986,3.7493,3.7716,3.775,3.7559,3.6729,3.613,3.59,3.5928,3.5938,3.6316,3.6684,3.6942,3.7219,3.7584,3.7424,3.7028,3.689,3.6898,3.6746,3.5765,3.5057,3.4541,3.3857,3.3757,3.3827,3.4005,3.4163,3.4495,3.4405,3.4193,3.4169,3.4321,3.4015,3.3453,3.2807,3.2406,3.2288,3.2117,3.2414,3.2399,3.2676,3.2746,3.3023,3.3294,3.3239,3.3145,3.3068,3.2728,3.1995,3.1445,3.144,3.1402,3.1329,3.1252,3.123,3.1026,3.0768,3.0835,3.0903,3.0903,3.0751,3.0632,3.0251,3.0566,3.0662,2.9967,2.9748,3.0068]}]]